<?xml version="1.0" encoding="UTF-8" standalone="no" ?>
<gpx xmlns="http://www.topografix.com/GPX/1/1" xmlns:xsi="http://www.w3.org/2001/XMLSchema-instance" xsi:schemaLocation="http://www.topografix.com/GPX/1/1 http://www.topografix.com/GPX/1/1/gpx.xsd" version="1.1" creator="VisuGPX - https://www.visugpx.com">
  <metadata>
    <name>Projet RAT</name>
    <desc><![CDATA[Projet de RAT au Baou]]></desc>
  </metadata>
  <trk>
    <name><![CDATA[RaT Saint Jeannet]]></name>
    <trkseg>
      <trkpt lat="43.74908" lon="7.1447">
        <ele>415.60000610352</ele>
        <time>2012-07-12T16:27:34.000Z</time>
      </trkpt>
      <trkpt lat="43.74914" lon="7.14473">
        <ele>417.39999389648</ele>
        <time>2012-07-12T16:27:40.000Z</time>
      </trkpt>
      <trkpt lat="43.7492" lon="7.14473">
        <ele>416.39999389648</ele>
        <time>2012-07-12T16:27:43.000Z</time>
      </trkpt>
      <trkpt lat="43.74923" lon="7.14469">
        <ele>415.79998779297</ele>
        <time>2012-07-12T16:27:45.000Z</time>
      </trkpt>
      <trkpt lat="43.74929" lon="7.14461">
        <ele>411.79998779297</ele>
        <time>2012-07-12T16:27:49.000Z</time>
      </trkpt>
      <trkpt lat="43.74931" lon="7.14461">
        <ele>411</ele>
        <time>2012-07-12T16:27:50.000Z</time>
      </trkpt>
      <trkpt lat="43.74939" lon="7.14466">
        <ele>409.20001220703</ele>
        <time>2012-07-12T16:27:55.000Z</time>
      </trkpt>
      <trkpt lat="43.74941" lon="7.14466">
        <ele>409</ele>
        <time>2012-07-12T16:27:56.000Z</time>
      </trkpt>
      <trkpt lat="43.74956" lon="7.14472">
        <ele>408</ele>
        <time>2012-07-12T16:28:05.000Z</time>
      </trkpt>
      <trkpt lat="43.74967" lon="7.14477">
        <ele>407.39999389648</ele>
        <time>2012-07-12T16:28:13.000Z</time>
      </trkpt>
      <trkpt lat="43.74969" lon="7.14476">
        <ele>408.20001220703</ele>
        <time>2012-07-12T16:28:14.000Z</time>
      </trkpt>
      <trkpt lat="43.74974" lon="7.1447">
        <ele>406</ele>
        <time>2012-07-12T16:28:17.000Z</time>
      </trkpt>
      <trkpt lat="43.74975" lon="7.14468">
        <ele>407.20001220703</ele>
        <time>2012-07-12T16:28:18.000Z</time>
      </trkpt>
      <trkpt lat="43.74982" lon="7.14453">
        <ele>408.39999389648</ele>
        <time>2012-07-12T16:28:25.000Z</time>
      </trkpt>
      <trkpt lat="43.74989" lon="7.14445">
        <ele>407.60000610352</ele>
        <time>2012-07-12T16:28:30.000Z</time>
      </trkpt>
      <trkpt lat="43.75" lon="7.14438">
        <ele>414.39999389648</ele>
        <time>2012-07-12T16:28:37.000Z</time>
      </trkpt>
      <trkpt lat="43.75011" lon="7.14441">
        <ele>416</ele>
        <time>2012-07-12T16:28:44.000Z</time>
      </trkpt>
      <trkpt lat="43.75023" lon="7.14446">
        <ele>423</ele>
        <time>2012-07-12T16:28:51.000Z</time>
      </trkpt>
      <trkpt lat="43.75028" lon="7.1444">
        <ele>422.39999389648</ele>
        <time>2012-07-12T16:28:55.000Z</time>
      </trkpt>
      <trkpt lat="43.75028" lon="7.14432">
        <ele>421.60000610352</ele>
        <time>2012-07-12T16:28:59.000Z</time>
      </trkpt>
      <trkpt lat="43.75024" lon="7.14425">
        <ele>422.79998779297</ele>
        <time>2012-07-12T16:29:02.000Z</time>
      </trkpt>
      <trkpt lat="43.75018" lon="7.14415">
        <ele>426.39999389648</ele>
        <time>2012-07-12T16:29:06.000Z</time>
      </trkpt>
      <trkpt lat="43.75007" lon="7.14412">
        <ele>429</ele>
        <time>2012-07-12T16:29:11.000Z</time>
      </trkpt>
      <trkpt lat="43.74987" lon="7.14412">
        <ele>428.60000610352</ele>
        <time>2012-07-12T16:29:20.000Z</time>
      </trkpt>
      <trkpt lat="43.74969" lon="7.14404">
        <ele>433.60000610352</ele>
        <time>2012-07-12T16:29:28.000Z</time>
      </trkpt>
      <trkpt lat="43.74947" lon="7.14392">
        <ele>439.60000610352</ele>
        <time>2012-07-12T16:29:38.000Z</time>
      </trkpt>
      <trkpt lat="43.74926" lon="7.14377">
        <ele>448.20001220703</ele>
        <time>2012-07-12T16:29:48.000Z</time>
      </trkpt>
      <trkpt lat="43.74912" lon="7.14371">
        <ele>449.79998779297</ele>
        <time>2012-07-12T16:29:54.000Z</time>
      </trkpt>
      <trkpt lat="43.74895" lon="7.14361">
        <ele>448.20001220703</ele>
        <time>2012-07-12T16:30:01.000Z</time>
      </trkpt>
      <trkpt lat="43.74885" lon="7.1436">
        <ele>450</ele>
        <time>2012-07-12T16:30:06.000Z</time>
      </trkpt>
      <trkpt lat="43.74865" lon="7.14359">
        <ele>451</ele>
        <time>2012-07-12T16:30:13.000Z</time>
      </trkpt>
      <trkpt lat="43.74846" lon="7.14358">
        <ele>450.79998779297</ele>
        <time>2012-07-12T16:30:20.000Z</time>
      </trkpt>
      <trkpt lat="43.74833" lon="7.14352">
        <ele>448.79998779297</ele>
        <time>2012-07-12T16:30:28.000Z</time>
      </trkpt>
      <trkpt lat="43.7483" lon="7.14338">
        <ele>450</ele>
        <time>2012-07-12T16:30:34.000Z</time>
      </trkpt>
      <trkpt lat="43.74837" lon="7.14337">
        <ele>449.79998779297</ele>
        <time>2012-07-12T16:30:37.000Z</time>
      </trkpt>
      <trkpt lat="43.74839" lon="7.14337">
        <ele>449.20001220703</ele>
        <time>2012-07-12T16:30:38.000Z</time>
      </trkpt>
      <trkpt lat="43.7484" lon="7.14336">
        <ele>448.60000610352</ele>
        <time>2012-07-12T16:30:39.000Z</time>
      </trkpt>
      <trkpt lat="43.7484" lon="7.14329">
        <ele>446.60000610352</ele>
        <time>2012-07-12T16:30:42.000Z</time>
      </trkpt>
      <trkpt lat="43.7484" lon="7.14327">
        <ele>446.60000610352</ele>
        <time>2012-07-12T16:30:43.000Z</time>
      </trkpt>
      <trkpt lat="43.74839" lon="7.14325">
        <ele>446.79998779297</ele>
        <time>2012-07-12T16:30:44.000Z</time>
      </trkpt>
      <trkpt lat="43.74835" lon="7.14319">
        <ele>448.39999389648</ele>
        <time>2012-07-12T16:30:47.000Z</time>
      </trkpt>
      <trkpt lat="43.74821" lon="7.14309">
        <ele>446</ele>
        <time>2012-07-12T16:30:54.000Z</time>
      </trkpt>
      <trkpt lat="43.74817" lon="7.14305">
        <ele>447.79998779297</ele>
        <time>2012-07-12T16:30:57.000Z</time>
      </trkpt>
      <trkpt lat="43.74818" lon="7.14303">
        <ele>447.20001220703</ele>
        <time>2012-07-12T16:30:58.000Z</time>
      </trkpt>
      <trkpt lat="43.74827" lon="7.14293">
        <ele>447.39999389648</ele>
        <time>2012-07-12T16:31:04.000Z</time>
      </trkpt>
      <trkpt lat="43.74827" lon="7.14291">
        <ele>446.39999389648</ele>
        <time>2012-07-12T16:31:05.000Z</time>
      </trkpt>
      <trkpt lat="43.74824" lon="7.14286">
        <ele>448</ele>
        <time>2012-07-12T16:31:08.000Z</time>
      </trkpt>
      <trkpt lat="43.74824" lon="7.14285">
        <ele>447.79998779297</ele>
        <time>2012-07-12T16:31:09.000Z</time>
      </trkpt>
      <trkpt lat="43.74824" lon="7.14286">
        <ele>448.20001220703</ele>
        <time>2012-07-12T16:31:12.000Z</time>
      </trkpt>
      <trkpt lat="43.74826" lon="7.14288">
        <ele>447.79998779297</ele>
        <time>2012-07-12T16:31:14.000Z</time>
      </trkpt>
      <trkpt lat="43.7483" lon="7.14285">
        <ele>449.20001220703</ele>
        <time>2012-07-12T16:31:16.000Z</time>
      </trkpt>
      <trkpt lat="43.74835" lon="7.14276">
        <ele>454</ele>
        <time>2012-07-12T16:31:21.000Z</time>
      </trkpt>
      <trkpt lat="43.7484" lon="7.14267">
        <ele>457.20001220703</ele>
        <time>2012-07-12T16:31:26.000Z</time>
      </trkpt>
      <trkpt lat="43.7484" lon="7.14262">
        <ele>457.39999389648</ele>
        <time>2012-07-12T16:31:28.000Z</time>
      </trkpt>
      <trkpt lat="43.74841" lon="7.14253">
        <ele>456</ele>
        <time>2012-07-12T16:31:33.000Z</time>
      </trkpt>
      <trkpt lat="43.7484" lon="7.14251">
        <ele>455.60000610352</ele>
        <time>2012-07-12T16:31:34.000Z</time>
      </trkpt>
      <trkpt lat="43.74836" lon="7.1424">
        <ele>461.39999389648</ele>
        <time>2012-07-12T16:31:41.000Z</time>
      </trkpt>
      <trkpt lat="43.74835" lon="7.14233">
        <ele>462.20001220703</ele>
        <time>2012-07-12T16:31:45.000Z</time>
      </trkpt>
      <trkpt lat="43.74836" lon="7.14229">
        <ele>461.39999389648</ele>
        <time>2012-07-12T16:31:47.000Z</time>
      </trkpt>
      <trkpt lat="43.7484" lon="7.14226">
        <ele>459.79998779297</ele>
        <time>2012-07-12T16:31:51.000Z</time>
      </trkpt>
      <trkpt lat="43.74843" lon="7.14225">
        <ele>458.60000610352</ele>
        <time>2012-07-12T16:31:53.000Z</time>
      </trkpt>
      <trkpt lat="43.74855" lon="7.14225">
        <ele>461.79998779297</ele>
        <time>2012-07-12T16:32:01.000Z</time>
      </trkpt>
      <trkpt lat="43.74866" lon="7.14226">
        <ele>464.20001220703</ele>
        <time>2012-07-12T16:32:09.000Z</time>
      </trkpt>
      <trkpt lat="43.74873" lon="7.14224">
        <ele>462.60000610352</ele>
        <time>2012-07-12T16:32:16.000Z</time>
      </trkpt>
      <trkpt lat="43.74881" lon="7.14222">
        <ele>463</ele>
        <time>2012-07-12T16:32:22.000Z</time>
      </trkpt>
      <trkpt lat="43.74888" lon="7.14224">
        <ele>462.39999389648</ele>
        <time>2012-07-12T16:32:28.000Z</time>
      </trkpt>
      <trkpt lat="43.74896" lon="7.14223">
        <ele>461.20001220703</ele>
        <time>2012-07-12T16:32:34.000Z</time>
      </trkpt>
      <trkpt lat="43.749" lon="7.1422">
        <ele>461.60000610352</ele>
        <time>2012-07-12T16:32:40.000Z</time>
      </trkpt>
      <trkpt lat="43.74894" lon="7.14212">
        <ele>467.79998779297</ele>
        <time>2012-07-12T16:32:46.000Z</time>
      </trkpt>
      <trkpt lat="43.74893" lon="7.1421">
        <ele>468.39999389648</ele>
        <time>2012-07-12T16:32:47.000Z</time>
      </trkpt>
      <trkpt lat="43.74893" lon="7.14204">
        <ele>472</ele>
        <time>2012-07-12T16:32:51.000Z</time>
      </trkpt>
      <trkpt lat="43.74894" lon="7.14204">
        <ele>473.79998779297</ele>
        <time>2012-07-12T16:32:52.000Z</time>
      </trkpt>
      <trkpt lat="43.74898" lon="7.14204">
        <ele>476.60000610352</ele>
        <time>2012-07-12T16:32:55.000Z</time>
      </trkpt>
      <trkpt lat="43.74903" lon="7.14202">
        <ele>476.60000610352</ele>
        <time>2012-07-12T16:32:59.000Z</time>
      </trkpt>
      <trkpt lat="43.74913" lon="7.14205">
        <ele>476.79998779297</ele>
        <time>2012-07-12T16:33:07.000Z</time>
      </trkpt>
      <trkpt lat="43.74921" lon="7.14204">
        <ele>475.79998779297</ele>
        <time>2012-07-12T16:33:14.000Z</time>
      </trkpt>
      <trkpt lat="43.74922" lon="7.14204">
        <ele>475.60000610352</ele>
        <time>2012-07-12T16:33:15.000Z</time>
      </trkpt>
      <trkpt lat="43.74926" lon="7.14203">
        <ele>474.79998779297</ele>
        <time>2012-07-12T16:33:20.000Z</time>
      </trkpt>
      <trkpt lat="43.74924" lon="7.142">
        <ele>479</ele>
        <time>2012-07-12T16:33:23.000Z</time>
      </trkpt>
      <trkpt lat="43.7492" lon="7.14198">
        <ele>481.39999389648</ele>
        <time>2012-07-12T16:33:26.000Z</time>
      </trkpt>
      <trkpt lat="43.74918" lon="7.14195">
        <ele>482.20001220703</ele>
        <time>2012-07-12T16:33:29.000Z</time>
      </trkpt>
      <trkpt lat="43.74914" lon="7.14191">
        <ele>483.60000610352</ele>
        <time>2012-07-12T16:33:34.000Z</time>
      </trkpt>
      <trkpt lat="43.74914" lon="7.1419">
        <ele>484</ele>
        <time>2012-07-12T16:33:35.000Z</time>
      </trkpt>
      <trkpt lat="43.74916" lon="7.14188">
        <ele>485.39999389648</ele>
        <time>2012-07-12T16:33:38.000Z</time>
      </trkpt>
      <trkpt lat="43.74916" lon="7.14189">
        <ele>486.20001220703</ele>
        <time>2012-07-12T16:33:40.000Z</time>
      </trkpt>
      <trkpt lat="43.74922" lon="7.14188">
        <ele>486</ele>
        <time>2012-07-12T16:33:46.000Z</time>
      </trkpt>
      <trkpt lat="43.74923" lon="7.14189">
        <ele>485.60000610352</ele>
        <time>2012-07-12T16:33:47.000Z</time>
      </trkpt>
      <trkpt lat="43.74927" lon="7.1419">
        <ele>486</ele>
        <time>2012-07-12T16:33:50.000Z</time>
      </trkpt>
      <trkpt lat="43.74928" lon="7.14188">
        <ele>486.39999389648</ele>
        <time>2012-07-12T16:33:52.000Z</time>
      </trkpt>
      <trkpt lat="43.74928" lon="7.14181">
        <ele>488.60000610352</ele>
        <time>2012-07-12T16:33:58.000Z</time>
      </trkpt>
      <trkpt lat="43.74931" lon="7.14178">
        <ele>490.79998779297</ele>
        <time>2012-07-12T16:34:03.000Z</time>
      </trkpt>
      <trkpt lat="43.74933" lon="7.14178">
        <ele>490</ele>
        <time>2012-07-12T16:34:04.000Z</time>
      </trkpt>
      <trkpt lat="43.74935" lon="7.14179">
        <ele>491.60000610352</ele>
        <time>2012-07-12T16:34:08.000Z</time>
      </trkpt>
      <trkpt lat="43.74936" lon="7.14175">
        <ele>493.39999389648</ele>
        <time>2012-07-12T16:34:13.000Z</time>
      </trkpt>
      <trkpt lat="43.74939" lon="7.14169">
        <ele>494</ele>
        <time>2012-07-12T16:34:21.000Z</time>
      </trkpt>
      <trkpt lat="43.74942" lon="7.14162">
        <ele>494</ele>
        <time>2012-07-12T16:34:28.000Z</time>
      </trkpt>
      <trkpt lat="43.74945" lon="7.14159">
        <ele>492.60000610352</ele>
        <time>2012-07-12T16:34:34.000Z</time>
      </trkpt>
      <trkpt lat="43.74947" lon="7.14155">
        <ele>494.79998779297</ele>
        <time>2012-07-12T16:34:39.000Z</time>
      </trkpt>
      <trkpt lat="43.74949" lon="7.14154">
        <ele>497.20001220703</ele>
        <time>2012-07-12T16:34:46.000Z</time>
      </trkpt>
      <trkpt lat="43.74955" lon="7.14154">
        <ele>497</ele>
        <time>2012-07-12T16:34:51.000Z</time>
      </trkpt>
      <trkpt lat="43.74963" lon="7.14153">
        <ele>493.79998779297</ele>
        <time>2012-07-12T16:34:59.000Z</time>
      </trkpt>
      <trkpt lat="43.74966" lon="7.14153">
        <ele>492</ele>
        <time>2012-07-12T16:35:01.000Z</time>
      </trkpt>
      <trkpt lat="43.74974" lon="7.14149">
        <ele>494</ele>
        <time>2012-07-12T16:35:06.000Z</time>
      </trkpt>
      <trkpt lat="43.74986" lon="7.14149">
        <ele>492.79998779297</ele>
        <time>2012-07-12T16:35:16.000Z</time>
      </trkpt>
      <trkpt lat="43.74998" lon="7.1415">
        <ele>490.79998779297</ele>
        <time>2012-07-12T16:35:25.000Z</time>
      </trkpt>
      <trkpt lat="43.75006" lon="7.14151">
        <ele>493.60000610352</ele>
        <time>2012-07-12T16:35:31.000Z</time>
      </trkpt>
      <trkpt lat="43.75013" lon="7.14151">
        <ele>500.60000610352</ele>
        <time>2012-07-12T16:35:36.000Z</time>
      </trkpt>
      <trkpt lat="43.75014" lon="7.14152">
        <ele>501.39999389648</ele>
        <time>2012-07-12T16:35:37.000Z</time>
      </trkpt>
      <trkpt lat="43.75023" lon="7.14153">
        <ele>507.39999389648</ele>
        <time>2012-07-12T16:35:44.000Z</time>
      </trkpt>
      <trkpt lat="43.75032" lon="7.14159">
        <ele>512</ele>
        <time>2012-07-12T16:35:52.000Z</time>
      </trkpt>
      <trkpt lat="43.75039" lon="7.14165">
        <ele>513.59997558594</ele>
        <time>2012-07-12T16:35:58.000Z</time>
      </trkpt>
      <trkpt lat="43.75042" lon="7.14165">
        <ele>513.20001220703</ele>
        <time>2012-07-12T16:36:01.000Z</time>
      </trkpt>
      <trkpt lat="43.75044" lon="7.14164">
        <ele>512.59997558594</ele>
        <time>2012-07-12T16:36:03.000Z</time>
      </trkpt>
      <trkpt lat="43.75051" lon="7.14166">
        <ele>512.79998779297</ele>
        <time>2012-07-12T16:36:08.000Z</time>
      </trkpt>
      <trkpt lat="43.75053" lon="7.14167">
        <ele>513.20001220703</ele>
        <time>2012-07-12T16:36:10.000Z</time>
      </trkpt>
      <trkpt lat="43.75063" lon="7.14169">
        <ele>511.60000610352</ele>
        <time>2012-07-12T16:36:18.000Z</time>
      </trkpt>
      <trkpt lat="43.75071" lon="7.14172">
        <ele>510.20001220703</ele>
        <time>2012-07-12T16:36:25.000Z</time>
      </trkpt>
      <trkpt lat="43.75081" lon="7.14174">
        <ele>514.40002441406</ele>
        <time>2012-07-12T16:36:33.000Z</time>
      </trkpt>
      <trkpt lat="43.75093" lon="7.14177">
        <ele>517.40002441406</ele>
        <time>2012-07-12T16:36:42.000Z</time>
      </trkpt>
      <trkpt lat="43.75103" lon="7.14181">
        <ele>520.40002441406</ele>
        <time>2012-07-12T16:36:50.000Z</time>
      </trkpt>
      <trkpt lat="43.75112" lon="7.14182">
        <ele>520.20001220703</ele>
        <time>2012-07-12T16:36:58.000Z</time>
      </trkpt>
      <trkpt lat="43.75116" lon="7.14182">
        <ele>521.20001220703</ele>
        <time>2012-07-12T16:37:01.000Z</time>
      </trkpt>
      <trkpt lat="43.75117" lon="7.14182">
        <ele>520.20001220703</ele>
        <time>2012-07-12T16:37:03.000Z</time>
      </trkpt>
      <trkpt lat="43.75117" lon="7.14182">
        <ele>519.79998779297</ele>
        <time>2012-07-12T16:37:04.000Z</time>
      </trkpt>
      <trkpt lat="43.75119" lon="7.14183">
        <ele>520.40002441406</ele>
        <time>2012-07-12T16:37:08.000Z</time>
      </trkpt>
      <trkpt lat="43.75128" lon="7.14188">
        <ele>524</ele>
        <time>2012-07-12T16:37:14.000Z</time>
      </trkpt>
      <trkpt lat="43.75132" lon="7.14189">
        <ele>525.20001220703</ele>
        <time>2012-07-12T16:37:18.000Z</time>
      </trkpt>
      <trkpt lat="43.75134" lon="7.1419">
        <ele>525.20001220703</ele>
        <time>2012-07-12T16:37:19.000Z</time>
      </trkpt>
      <trkpt lat="43.75143" lon="7.14194">
        <ele>528</ele>
        <time>2012-07-12T16:37:26.000Z</time>
      </trkpt>
      <trkpt lat="43.75144" lon="7.14195">
        <ele>528.40002441406</ele>
        <time>2012-07-12T16:37:27.000Z</time>
      </trkpt>
      <trkpt lat="43.75156" lon="7.14203">
        <ele>530.59997558594</ele>
        <time>2012-07-12T16:37:36.000Z</time>
      </trkpt>
      <trkpt lat="43.75168" lon="7.14211">
        <ele>531.20001220703</ele>
        <time>2012-07-12T16:37:45.000Z</time>
      </trkpt>
      <trkpt lat="43.75176" lon="7.14215">
        <ele>533.20001220703</ele>
        <time>2012-07-12T16:37:51.000Z</time>
      </trkpt>
      <trkpt lat="43.75179" lon="7.14215">
        <ele>533.40002441406</ele>
        <time>2012-07-12T16:37:53.000Z</time>
      </trkpt>
      <trkpt lat="43.7519" lon="7.14219">
        <ele>534.40002441406</ele>
        <time>2012-07-12T16:38:01.000Z</time>
      </trkpt>
      <trkpt lat="43.752" lon="7.14227">
        <ele>536.40002441406</ele>
        <time>2012-07-12T16:38:09.000Z</time>
      </trkpt>
      <trkpt lat="43.75211" lon="7.14238">
        <ele>537.59997558594</ele>
        <time>2012-07-12T16:38:18.000Z</time>
      </trkpt>
      <trkpt lat="43.75219" lon="7.14242">
        <ele>539.20001220703</ele>
        <time>2012-07-12T16:38:24.000Z</time>
      </trkpt>
      <trkpt lat="43.75228" lon="7.14245">
        <ele>540.40002441406</ele>
        <time>2012-07-12T16:38:32.000Z</time>
      </trkpt>
      <trkpt lat="43.75237" lon="7.14248">
        <ele>540.59997558594</ele>
        <time>2012-07-12T16:38:39.000Z</time>
      </trkpt>
      <trkpt lat="43.75246" lon="7.1425">
        <ele>540.40002441406</ele>
        <time>2012-07-12T16:38:46.000Z</time>
      </trkpt>
      <trkpt lat="43.75253" lon="7.1425">
        <ele>541.40002441406</ele>
        <time>2012-07-12T16:38:52.000Z</time>
      </trkpt>
      <trkpt lat="43.75254" lon="7.14251">
        <ele>542.20001220703</ele>
        <time>2012-07-12T16:38:53.000Z</time>
      </trkpt>
      <trkpt lat="43.75256" lon="7.14252">
        <ele>542.20001220703</ele>
        <time>2012-07-12T16:38:55.000Z</time>
      </trkpt>
      <trkpt lat="43.75261" lon="7.14251">
        <ele>542.40002441406</ele>
        <time>2012-07-12T16:38:59.000Z</time>
      </trkpt>
      <trkpt lat="43.75269" lon="7.14252">
        <ele>544.79998779297</ele>
        <time>2012-07-12T16:39:05.000Z</time>
      </trkpt>
      <trkpt lat="43.75277" lon="7.14254">
        <ele>546.40002441406</ele>
        <time>2012-07-12T16:39:11.000Z</time>
      </trkpt>
      <trkpt lat="43.75284" lon="7.14254">
        <ele>547.79998779297</ele>
        <time>2012-07-12T16:39:17.000Z</time>
      </trkpt>
      <trkpt lat="43.75291" lon="7.14258">
        <ele>549.59997558594</ele>
        <time>2012-07-12T16:39:23.000Z</time>
      </trkpt>
      <trkpt lat="43.75302" lon="7.14264">
        <ele>552</ele>
        <time>2012-07-12T16:39:31.000Z</time>
      </trkpt>
      <trkpt lat="43.7531" lon="7.14274">
        <ele>554</ele>
        <time>2012-07-12T16:39:39.000Z</time>
      </trkpt>
      <trkpt lat="43.7532" lon="7.1428">
        <ele>555.20001220703</ele>
        <time>2012-07-12T16:39:47.000Z</time>
      </trkpt>
      <trkpt lat="43.7533" lon="7.14285">
        <ele>556</ele>
        <time>2012-07-12T16:39:55.000Z</time>
      </trkpt>
      <trkpt lat="43.75339" lon="7.14285">
        <ele>554.40002441406</ele>
        <time>2012-07-12T16:40:02.000Z</time>
      </trkpt>
      <trkpt lat="43.75347" lon="7.1429">
        <ele>555</ele>
        <time>2012-07-12T16:40:08.000Z</time>
      </trkpt>
      <trkpt lat="43.75355" lon="7.14293">
        <ele>556.20001220703</ele>
        <time>2012-07-12T16:40:15.000Z</time>
      </trkpt>
      <trkpt lat="43.75363" lon="7.14296">
        <ele>558</ele>
        <time>2012-07-12T16:40:21.000Z</time>
      </trkpt>
      <trkpt lat="43.7537" lon="7.14298">
        <ele>559</ele>
        <time>2012-07-12T16:40:27.000Z</time>
      </trkpt>
      <trkpt lat="43.75375" lon="7.14302">
        <ele>560.79998779297</ele>
        <time>2012-07-12T16:40:33.000Z</time>
      </trkpt>
      <trkpt lat="43.75378" lon="7.14302">
        <ele>560.40002441406</ele>
        <time>2012-07-12T16:40:39.000Z</time>
      </trkpt>
      <trkpt lat="43.75381" lon="7.14303">
        <ele>562.59997558594</ele>
        <time>2012-07-12T16:40:45.000Z</time>
      </trkpt>
      <trkpt lat="43.75384" lon="7.14304">
        <ele>565.79998779297</ele>
        <time>2012-07-12T16:40:51.000Z</time>
      </trkpt>
      <trkpt lat="43.75385" lon="7.14302">
        <ele>567</ele>
        <time>2012-07-12T16:40:56.000Z</time>
      </trkpt>
      <trkpt lat="43.75385" lon="7.14303">
        <ele>567.20001220703</ele>
        <time>2012-07-12T16:41:02.000Z</time>
      </trkpt>
      <trkpt lat="43.75379" lon="7.14297">
        <ele>567.40002441406</ele>
        <time>2012-07-12T16:43:37.000Z</time>
      </trkpt>
      <trkpt lat="43.75368" lon="7.14289">
        <ele>568.40002441406</ele>
        <time>2012-07-12T16:43:44.000Z</time>
      </trkpt>
      <trkpt lat="43.7536" lon="7.14281">
        <ele>570.20001220703</ele>
        <time>2012-07-12T16:43:51.000Z</time>
      </trkpt>
      <trkpt lat="43.75351" lon="7.14272">
        <ele>571</ele>
        <time>2012-07-12T16:43:59.000Z</time>
      </trkpt>
      <trkpt lat="43.75349" lon="7.14264">
        <ele>572.40002441406</ele>
        <time>2012-07-12T16:44:04.000Z</time>
      </trkpt>
      <trkpt lat="43.7535" lon="7.14263">
        <ele>572.59997558594</ele>
        <time>2012-07-12T16:44:05.000Z</time>
      </trkpt>
      <trkpt lat="43.75354" lon="7.14261">
        <ele>573</ele>
        <time>2012-07-12T16:44:08.000Z</time>
      </trkpt>
      <trkpt lat="43.75357" lon="7.14261">
        <ele>573.20001220703</ele>
        <time>2012-07-12T16:44:11.000Z</time>
      </trkpt>
      <trkpt lat="43.75367" lon="7.14264">
        <ele>574</ele>
        <time>2012-07-12T16:44:18.000Z</time>
      </trkpt>
      <trkpt lat="43.75377" lon="7.14267">
        <ele>575.59997558594</ele>
        <time>2012-07-12T16:44:26.000Z</time>
      </trkpt>
      <trkpt lat="43.75386" lon="7.14268">
        <ele>576.59997558594</ele>
        <time>2012-07-12T16:44:34.000Z</time>
      </trkpt>
      <trkpt lat="43.75394" lon="7.14272">
        <ele>579.59997558594</ele>
        <time>2012-07-12T16:44:41.000Z</time>
      </trkpt>
      <trkpt lat="43.75402" lon="7.14278">
        <ele>582.20001220703</ele>
        <time>2012-07-12T16:44:48.000Z</time>
      </trkpt>
      <trkpt lat="43.7541" lon="7.14283">
        <ele>584</ele>
        <time>2012-07-12T16:44:55.000Z</time>
      </trkpt>
      <trkpt lat="43.7542" lon="7.14287">
        <ele>584.59997558594</ele>
        <time>2012-07-12T16:45:03.000Z</time>
      </trkpt>
      <trkpt lat="43.75421" lon="7.14288">
        <ele>585</ele>
        <time>2012-07-12T16:45:04.000Z</time>
      </trkpt>
      <trkpt lat="43.75426" lon="7.14291">
        <ele>585.79998779297</ele>
        <time>2012-07-12T16:45:09.000Z</time>
      </trkpt>
      <trkpt lat="43.75427" lon="7.14292">
        <ele>585.79998779297</ele>
        <time>2012-07-12T16:45:10.000Z</time>
      </trkpt>
      <trkpt lat="43.75434" lon="7.14296">
        <ele>587.79998779297</ele>
        <time>2012-07-12T16:45:16.000Z</time>
      </trkpt>
      <trkpt lat="43.75442" lon="7.14302">
        <ele>589.59997558594</ele>
        <time>2012-07-12T16:45:23.000Z</time>
      </trkpt>
      <trkpt lat="43.75451" lon="7.14308">
        <ele>590.40002441406</ele>
        <time>2012-07-12T16:45:30.000Z</time>
      </trkpt>
      <trkpt lat="43.75461" lon="7.14317">
        <ele>591.40002441406</ele>
        <time>2012-07-12T16:45:38.000Z</time>
      </trkpt>
      <trkpt lat="43.75466" lon="7.14317">
        <ele>591.79998779297</ele>
        <time>2012-07-12T16:45:42.000Z</time>
      </trkpt>
      <trkpt lat="43.75466" lon="7.14317">
        <ele>592</ele>
        <time>2012-07-12T16:45:43.000Z</time>
      </trkpt>
      <trkpt lat="43.7547" lon="7.14319">
        <ele>593.59997558594</ele>
        <time>2012-07-12T16:45:49.000Z</time>
      </trkpt>
      <trkpt lat="43.75474" lon="7.1432">
        <ele>593.40002441406</ele>
        <time>2012-07-12T16:45:57.000Z</time>
      </trkpt>
      <trkpt lat="43.75481" lon="7.14322">
        <ele>593.20001220703</ele>
        <time>2012-07-12T16:46:03.000Z</time>
      </trkpt>
      <trkpt lat="43.7549" lon="7.14326">
        <ele>594.40002441406</ele>
        <time>2012-07-12T16:46:10.000Z</time>
      </trkpt>
      <trkpt lat="43.755" lon="7.1433">
        <ele>595</ele>
        <time>2012-07-12T16:46:18.000Z</time>
      </trkpt>
      <trkpt lat="43.75502" lon="7.14331">
        <ele>596.40002441406</ele>
        <time>2012-07-12T16:46:22.000Z</time>
      </trkpt>
      <trkpt lat="43.75507" lon="7.14333">
        <ele>598.20001220703</ele>
        <time>2012-07-12T16:46:29.000Z</time>
      </trkpt>
      <trkpt lat="43.75513" lon="7.14335">
        <ele>597.20001220703</ele>
        <time>2012-07-12T16:46:40.000Z</time>
      </trkpt>
      <trkpt lat="43.75525" lon="7.14337">
        <ele>598.20001220703</ele>
        <time>2012-07-12T16:46:48.000Z</time>
      </trkpt>
      <trkpt lat="43.75531" lon="7.14334">
        <ele>599.40002441406</ele>
        <time>2012-07-12T16:46:53.000Z</time>
      </trkpt>
      <trkpt lat="43.75534" lon="7.14331">
        <ele>601</ele>
        <time>2012-07-12T16:46:56.000Z</time>
      </trkpt>
      <trkpt lat="43.75537" lon="7.14332">
        <ele>602.59997558594</ele>
        <time>2012-07-12T16:46:59.000Z</time>
      </trkpt>
      <trkpt lat="43.75547" lon="7.14333">
        <ele>604.40002441406</ele>
        <time>2012-07-12T16:47:07.000Z</time>
      </trkpt>
      <trkpt lat="43.75555" lon="7.14332">
        <ele>604.79998779297</ele>
        <time>2012-07-12T16:47:14.000Z</time>
      </trkpt>
      <trkpt lat="43.75564" lon="7.14332">
        <ele>605</ele>
        <time>2012-07-12T16:47:21.000Z</time>
      </trkpt>
      <trkpt lat="43.75572" lon="7.14333">
        <ele>605.59997558594</ele>
        <time>2012-07-12T16:47:27.000Z</time>
      </trkpt>
      <trkpt lat="43.75579" lon="7.14333">
        <ele>605.40002441406</ele>
        <time>2012-07-12T16:47:33.000Z</time>
      </trkpt>
      <trkpt lat="43.75586" lon="7.14334">
        <ele>606.20001220703</ele>
        <time>2012-07-12T16:47:38.000Z</time>
      </trkpt>
      <trkpt lat="43.75592" lon="7.14334">
        <ele>608</ele>
        <time>2012-07-12T16:47:43.000Z</time>
      </trkpt>
      <trkpt lat="43.75593" lon="7.14334">
        <ele>608.20001220703</ele>
        <time>2012-07-12T16:47:44.000Z</time>
      </trkpt>
      <trkpt lat="43.75598" lon="7.14331">
        <ele>609.79998779297</ele>
        <time>2012-07-12T16:47:50.000Z</time>
      </trkpt>
      <trkpt lat="43.75603" lon="7.14331">
        <ele>613.79998779297</ele>
        <time>2012-07-12T16:47:58.000Z</time>
      </trkpt>
      <trkpt lat="43.75603" lon="7.14331">
        <ele>614.59997558594</ele>
        <time>2012-07-12T16:47:59.000Z</time>
      </trkpt>
      <trkpt lat="43.75605" lon="7.1433">
        <ele>615.20001220703</ele>
        <time>2012-07-12T16:48:01.000Z</time>
      </trkpt>
      <trkpt lat="43.75607" lon="7.1433">
        <ele>616.40002441406</ele>
        <time>2012-07-12T16:48:03.000Z</time>
      </trkpt>
      <trkpt lat="43.75612" lon="7.14327">
        <ele>620.20001220703</ele>
        <time>2012-07-12T16:48:10.000Z</time>
      </trkpt>
      <trkpt lat="43.7562" lon="7.14326">
        <ele>621.79998779297</ele>
        <time>2012-07-12T16:48:19.000Z</time>
      </trkpt>
      <trkpt lat="43.75627" lon="7.14324">
        <ele>620.79998779297</ele>
        <time>2012-07-12T16:48:25.000Z</time>
      </trkpt>
      <trkpt lat="43.75627" lon="7.14323">
        <ele>620.40002441406</ele>
        <time>2012-07-12T16:48:26.000Z</time>
      </trkpt>
      <trkpt lat="43.75633" lon="7.14321">
        <ele>619.79998779297</ele>
        <time>2012-07-12T16:48:33.000Z</time>
      </trkpt>
      <trkpt lat="43.75634" lon="7.14321">
        <ele>620</ele>
        <time>2012-07-12T16:48:34.000Z</time>
      </trkpt>
      <trkpt lat="43.75641" lon="7.14321">
        <ele>622.79998779297</ele>
        <time>2012-07-12T16:48:42.000Z</time>
      </trkpt>
      <trkpt lat="43.75647" lon="7.14321">
        <ele>625.40002441406</ele>
        <time>2012-07-12T16:48:49.000Z</time>
      </trkpt>
      <trkpt lat="43.75652" lon="7.14321">
        <ele>625.79998779297</ele>
        <time>2012-07-12T16:48:56.000Z</time>
      </trkpt>
      <trkpt lat="43.75653" lon="7.1432">
        <ele>625.59997558594</ele>
        <time>2012-07-12T16:48:57.000Z</time>
      </trkpt>
      <trkpt lat="43.75657" lon="7.1432">
        <ele>623.79998779297</ele>
        <time>2012-07-12T16:49:01.000Z</time>
      </trkpt>
      <trkpt lat="43.75663" lon="7.14317">
        <ele>622.20001220703</ele>
        <time>2012-07-12T16:49:08.000Z</time>
      </trkpt>
      <trkpt lat="43.75671" lon="7.14316">
        <ele>624.79998779297</ele>
        <time>2012-07-12T16:49:17.000Z</time>
      </trkpt>
      <trkpt lat="43.75678" lon="7.14314">
        <ele>623.59997558594</ele>
        <time>2012-07-12T16:49:26.000Z</time>
      </trkpt>
      <trkpt lat="43.75684" lon="7.14312">
        <ele>625.40002441406</ele>
        <time>2012-07-12T16:49:34.000Z</time>
      </trkpt>
      <trkpt lat="43.75687" lon="7.14314">
        <ele>627.20001220703</ele>
        <time>2012-07-12T16:49:41.000Z</time>
      </trkpt>
      <trkpt lat="43.75693" lon="7.14315">
        <ele>627.40002441406</ele>
        <time>2012-07-12T16:49:46.000Z</time>
      </trkpt>
      <trkpt lat="43.75702" lon="7.14318">
        <ele>628.79998779297</ele>
        <time>2012-07-12T16:49:52.000Z</time>
      </trkpt>
      <trkpt lat="43.75704" lon="7.14318">
        <ele>628.20001220703</ele>
        <time>2012-07-12T16:49:53.000Z</time>
      </trkpt>
      <trkpt lat="43.7571" lon="7.14318">
        <ele>626.40002441406</ele>
        <time>2012-07-12T16:49:57.000Z</time>
      </trkpt>
      <trkpt lat="43.75718" lon="7.14321">
        <ele>626.40002441406</ele>
        <time>2012-07-12T16:50:03.000Z</time>
      </trkpt>
      <trkpt lat="43.75727" lon="7.14326">
        <ele>629.59997558594</ele>
        <time>2012-07-12T16:50:09.000Z</time>
      </trkpt>
      <trkpt lat="43.75733" lon="7.14328">
        <ele>629.59997558594</ele>
        <time>2012-07-12T16:50:14.000Z</time>
      </trkpt>
      <trkpt lat="43.75734" lon="7.14329">
        <ele>630.20001220703</ele>
        <time>2012-07-12T16:50:16.000Z</time>
      </trkpt>
      <trkpt lat="43.75735" lon="7.1433">
        <ele>630.59997558594</ele>
        <time>2012-07-12T16:50:17.000Z</time>
      </trkpt>
      <trkpt lat="43.75735" lon="7.14329">
        <ele>630</ele>
        <time>2012-07-12T16:50:22.000Z</time>
      </trkpt>
      <trkpt lat="43.75735" lon="7.14329">
        <ele>628.79998779297</ele>
        <time>2012-07-12T16:50:28.000Z</time>
      </trkpt>
      <trkpt lat="43.75737" lon="7.1433">
        <ele>630.59997558594</ele>
        <time>2012-07-12T16:52:29.000Z</time>
      </trkpt>
      <trkpt lat="43.75743" lon="7.14328">
        <ele>628.59997558594</ele>
        <time>2012-07-12T16:53:15.000Z</time>
      </trkpt>
      <trkpt lat="43.75753" lon="7.14332">
        <ele>628.40002441406</ele>
        <time>2012-07-12T16:53:20.000Z</time>
      </trkpt>
      <trkpt lat="43.75765" lon="7.14332">
        <ele>629.40002441406</ele>
        <time>2012-07-12T16:53:26.000Z</time>
      </trkpt>
      <trkpt lat="43.75778" lon="7.1433">
        <ele>629.20001220703</ele>
        <time>2012-07-12T16:53:33.000Z</time>
      </trkpt>
      <trkpt lat="43.75793" lon="7.14325">
        <ele>628.79998779297</ele>
        <time>2012-07-12T16:53:40.000Z</time>
      </trkpt>
      <trkpt lat="43.75804" lon="7.14317">
        <ele>629.20001220703</ele>
        <time>2012-07-12T16:53:46.000Z</time>
      </trkpt>
      <trkpt lat="43.75821" lon="7.14309">
        <ele>630</ele>
        <time>2012-07-12T16:53:53.000Z</time>
      </trkpt>
      <trkpt lat="43.75837" lon="7.14303">
        <ele>631.79998779297</ele>
        <time>2012-07-12T16:54:00.000Z</time>
      </trkpt>
      <trkpt lat="43.75857" lon="7.14301">
        <ele>635</ele>
        <time>2012-07-12T16:54:08.000Z</time>
      </trkpt>
      <trkpt lat="43.75876" lon="7.14296">
        <ele>637</ele>
        <time>2012-07-12T16:54:16.000Z</time>
      </trkpt>
      <trkpt lat="43.75886" lon="7.14295">
        <ele>637.79998779297</ele>
        <time>2012-07-12T16:54:20.000Z</time>
      </trkpt>
      <trkpt lat="43.75889" lon="7.14297">
        <ele>637.79998779297</ele>
        <time>2012-07-12T16:54:21.000Z</time>
      </trkpt>
      <trkpt lat="43.75901" lon="7.14305">
        <ele>640</ele>
        <time>2012-07-12T16:54:25.000Z</time>
      </trkpt>
      <trkpt lat="43.75909" lon="7.14302">
        <ele>639.40002441406</ele>
        <time>2012-07-12T16:54:29.000Z</time>
      </trkpt>
      <trkpt lat="43.75918" lon="7.14305">
        <ele>640.59997558594</ele>
        <time>2012-07-12T16:54:34.000Z</time>
      </trkpt>
      <trkpt lat="43.75929" lon="7.1431">
        <ele>640.79998779297</ele>
        <time>2012-07-12T16:54:41.000Z</time>
      </trkpt>
      <trkpt lat="43.7594" lon="7.14312">
        <ele>642.79998779297</ele>
        <time>2012-07-12T16:54:49.000Z</time>
      </trkpt>
      <trkpt lat="43.75951" lon="7.1431">
        <ele>643.59997558594</ele>
        <time>2012-07-12T16:54:56.000Z</time>
      </trkpt>
      <trkpt lat="43.75965" lon="7.14309">
        <ele>644.59997558594</ele>
        <time>2012-07-12T16:55:04.000Z</time>
      </trkpt>
      <trkpt lat="43.75972" lon="7.14312">
        <ele>646.59997558594</ele>
        <time>2012-07-12T16:55:09.000Z</time>
      </trkpt>
      <trkpt lat="43.75987" lon="7.14312">
        <ele>647.79998779297</ele>
        <time>2012-07-12T16:55:17.000Z</time>
      </trkpt>
      <trkpt lat="43.75998" lon="7.14314">
        <ele>648.59997558594</ele>
        <time>2012-07-12T16:55:23.000Z</time>
      </trkpt>
      <trkpt lat="43.76011" lon="7.14315">
        <ele>649.40002441406</ele>
        <time>2012-07-12T16:55:30.000Z</time>
      </trkpt>
      <trkpt lat="43.76027" lon="7.1432">
        <ele>648.20001220703</ele>
        <time>2012-07-12T16:55:38.000Z</time>
      </trkpt>
      <trkpt lat="43.76043" lon="7.14331">
        <ele>650.40002441406</ele>
        <time>2012-07-12T16:55:47.000Z</time>
      </trkpt>
      <trkpt lat="43.76055" lon="7.1434">
        <ele>651</ele>
        <time>2012-07-12T16:55:54.000Z</time>
      </trkpt>
      <trkpt lat="43.76071" lon="7.14351">
        <ele>652.59997558594</ele>
        <time>2012-07-12T16:56:03.000Z</time>
      </trkpt>
      <trkpt lat="43.76082" lon="7.14359">
        <ele>653.79998779297</ele>
        <time>2012-07-12T16:56:09.000Z</time>
      </trkpt>
      <trkpt lat="43.76094" lon="7.14369">
        <ele>654.79998779297</ele>
        <time>2012-07-12T16:56:16.000Z</time>
      </trkpt>
      <trkpt lat="43.76109" lon="7.14382">
        <ele>656</ele>
        <time>2012-07-12T16:56:25.000Z</time>
      </trkpt>
      <trkpt lat="43.76127" lon="7.1439">
        <ele>656.59997558594</ele>
        <time>2012-07-12T16:56:34.000Z</time>
      </trkpt>
      <trkpt lat="43.76139" lon="7.14397">
        <ele>656.59997558594</ele>
        <time>2012-07-12T16:56:40.000Z</time>
      </trkpt>
      <trkpt lat="43.76151" lon="7.14407">
        <ele>658.40002441406</ele>
        <time>2012-07-12T16:56:47.000Z</time>
      </trkpt>
      <trkpt lat="43.76163" lon="7.14412">
        <ele>659.20001220703</ele>
        <time>2012-07-12T16:56:54.000Z</time>
      </trkpt>
      <trkpt lat="43.76178" lon="7.14416">
        <ele>658.59997558594</ele>
        <time>2012-07-12T16:57:01.000Z</time>
      </trkpt>
      <trkpt lat="43.76193" lon="7.14418">
        <ele>658.59997558594</ele>
        <time>2012-07-12T16:57:08.000Z</time>
      </trkpt>
      <trkpt lat="43.7621" lon="7.1442">
        <ele>658.40002441406</ele>
        <time>2012-07-12T16:57:16.000Z</time>
      </trkpt>
      <trkpt lat="43.76223" lon="7.14427">
        <ele>658.59997558594</ele>
        <time>2012-07-12T16:57:23.000Z</time>
      </trkpt>
      <trkpt lat="43.7624" lon="7.14436">
        <ele>658.59997558594</ele>
        <time>2012-07-12T16:57:32.000Z</time>
      </trkpt>
      <trkpt lat="43.76257" lon="7.14437">
        <ele>658.79998779297</ele>
        <time>2012-07-12T16:57:39.000Z</time>
      </trkpt>
      <trkpt lat="43.76277" lon="7.1444">
        <ele>659.79998779297</ele>
        <time>2012-07-12T16:57:48.000Z</time>
      </trkpt>
      <trkpt lat="43.7629" lon="7.14445">
        <ele>660.20001220703</ele>
        <time>2012-07-12T16:57:54.000Z</time>
      </trkpt>
      <trkpt lat="43.76307" lon="7.14453">
        <ele>661.20001220703</ele>
        <time>2012-07-12T16:58:02.000Z</time>
      </trkpt>
      <trkpt lat="43.7631" lon="7.14454">
        <ele>662.40002441406</ele>
        <time>2012-07-12T16:58:04.000Z</time>
      </trkpt>
      <trkpt lat="43.76317" lon="7.14455">
        <ele>662.59997558594</ele>
        <time>2012-07-12T16:58:07.000Z</time>
      </trkpt>
      <trkpt lat="43.76335" lon="7.14455">
        <ele>664.20001220703</ele>
        <time>2012-07-12T16:58:15.000Z</time>
      </trkpt>
      <trkpt lat="43.76351" lon="7.14452">
        <ele>666</ele>
        <time>2012-07-12T16:58:23.000Z</time>
      </trkpt>
      <trkpt lat="43.76368" lon="7.14447">
        <ele>667.20001220703</ele>
        <time>2012-07-12T16:58:32.000Z</time>
      </trkpt>
      <trkpt lat="43.76382" lon="7.14451">
        <ele>668.20001220703</ele>
        <time>2012-07-12T16:58:40.000Z</time>
      </trkpt>
      <trkpt lat="43.76398" lon="7.14452">
        <ele>669.59997558594</ele>
        <time>2012-07-12T16:58:48.000Z</time>
      </trkpt>
      <trkpt lat="43.7641" lon="7.1445">
        <ele>670.79998779297</ele>
        <time>2012-07-12T16:58:54.000Z</time>
      </trkpt>
      <trkpt lat="43.76423" lon="7.14451">
        <ele>673.59997558594</ele>
        <time>2012-07-12T16:59:01.000Z</time>
      </trkpt>
      <trkpt lat="43.76438" lon="7.14459">
        <ele>677.59997558594</ele>
        <time>2012-07-12T16:59:09.000Z</time>
      </trkpt>
      <trkpt lat="43.76453" lon="7.14462">
        <ele>679.40002441406</ele>
        <time>2012-07-12T16:59:17.000Z</time>
      </trkpt>
      <trkpt lat="43.76461" lon="7.14464">
        <ele>680.20001220703</ele>
        <time>2012-07-12T16:59:22.000Z</time>
      </trkpt>
      <trkpt lat="43.76464" lon="7.14463">
        <ele>680.40002441406</ele>
        <time>2012-07-12T16:59:24.000Z</time>
      </trkpt>
      <trkpt lat="43.7648" lon="7.14461">
        <ele>682.20001220703</ele>
        <time>2012-07-12T16:59:33.000Z</time>
      </trkpt>
      <trkpt lat="43.7649" lon="7.14459">
        <ele>682.79998779297</ele>
        <time>2012-07-12T16:59:39.000Z</time>
      </trkpt>
      <trkpt lat="43.76499" lon="7.14457">
        <ele>684.59997558594</ele>
        <time>2012-07-12T16:59:45.000Z</time>
      </trkpt>
      <trkpt lat="43.76511" lon="7.14451">
        <ele>686.79998779297</ele>
        <time>2012-07-12T16:59:53.000Z</time>
      </trkpt>
      <trkpt lat="43.76519" lon="7.14448">
        <ele>688.59997558594</ele>
        <time>2012-07-12T17:00:00.000Z</time>
      </trkpt>
      <trkpt lat="43.76525" lon="7.14444">
        <ele>689.59997558594</ele>
        <time>2012-07-12T17:00:06.000Z</time>
      </trkpt>
      <trkpt lat="43.76527" lon="7.14445">
        <ele>690</ele>
        <time>2012-07-12T17:00:11.000Z</time>
      </trkpt>
      <trkpt lat="43.76528" lon="7.14444">
        <ele>689.20001220703</ele>
        <time>2012-07-12T17:00:25.000Z</time>
      </trkpt>
      <trkpt lat="43.76535" lon="7.14441">
        <ele>687</ele>
        <time>2012-07-12T17:01:07.000Z</time>
      </trkpt>
      <trkpt lat="43.76544" lon="7.14439">
        <ele>688.59997558594</ele>
        <time>2012-07-12T17:01:14.000Z</time>
      </trkpt>
      <trkpt lat="43.76555" lon="7.1444">
        <ele>689.40002441406</ele>
        <time>2012-07-12T17:01:22.000Z</time>
      </trkpt>
      <trkpt lat="43.76564" lon="7.1444">
        <ele>689.40002441406</ele>
        <time>2012-07-12T17:01:29.000Z</time>
      </trkpt>
      <trkpt lat="43.76578" lon="7.14441">
        <ele>692</ele>
        <time>2012-07-12T17:01:37.000Z</time>
      </trkpt>
      <trkpt lat="43.76593" lon="7.14436">
        <ele>692.79998779297</ele>
        <time>2012-07-12T17:01:45.000Z</time>
      </trkpt>
      <trkpt lat="43.76608" lon="7.14434">
        <ele>693.79998779297</ele>
        <time>2012-07-12T17:01:53.000Z</time>
      </trkpt>
      <trkpt lat="43.76619" lon="7.14435">
        <ele>696.79998779297</ele>
        <time>2012-07-12T17:01:59.000Z</time>
      </trkpt>
      <trkpt lat="43.76627" lon="7.14437">
        <ele>699.20001220703</ele>
        <time>2012-07-12T17:02:05.000Z</time>
      </trkpt>
      <trkpt lat="43.76637" lon="7.14435">
        <ele>701</ele>
        <time>2012-07-12T17:02:11.000Z</time>
      </trkpt>
      <trkpt lat="43.76647" lon="7.14437">
        <ele>702.79998779297</ele>
        <time>2012-07-12T17:02:18.000Z</time>
      </trkpt>
      <trkpt lat="43.76652" lon="7.14439">
        <ele>703.59997558594</ele>
        <time>2012-07-12T17:02:21.000Z</time>
      </trkpt>
      <trkpt lat="43.76656" lon="7.14438">
        <ele>704.20001220703</ele>
        <time>2012-07-12T17:02:24.000Z</time>
      </trkpt>
      <trkpt lat="43.7666" lon="7.14439">
        <ele>704.79998779297</ele>
        <time>2012-07-12T17:02:27.000Z</time>
      </trkpt>
      <trkpt lat="43.76664" lon="7.14439">
        <ele>705.20001220703</ele>
        <time>2012-07-12T17:02:30.000Z</time>
      </trkpt>
      <trkpt lat="43.76675" lon="7.14441">
        <ele>707</ele>
        <time>2012-07-12T17:02:38.000Z</time>
      </trkpt>
      <trkpt lat="43.76685" lon="7.14444">
        <ele>708.79998779297</ele>
        <time>2012-07-12T17:02:45.000Z</time>
      </trkpt>
      <trkpt lat="43.76692" lon="7.14446">
        <ele>710.20001220703</ele>
        <time>2012-07-12T17:02:51.000Z</time>
      </trkpt>
      <trkpt lat="43.76693" lon="7.14447">
        <ele>710.40002441406</ele>
        <time>2012-07-12T17:02:52.000Z</time>
      </trkpt>
      <trkpt lat="43.76698" lon="7.14449">
        <ele>711</ele>
        <time>2012-07-12T17:02:56.000Z</time>
      </trkpt>
      <trkpt lat="43.76702" lon="7.1445">
        <ele>711.40002441406</ele>
        <time>2012-07-12T17:02:59.000Z</time>
      </trkpt>
      <trkpt lat="43.76706" lon="7.1445">
        <ele>711.79998779297</ele>
        <time>2012-07-12T17:03:02.000Z</time>
      </trkpt>
      <trkpt lat="43.76712" lon="7.14453">
        <ele>713.20001220703</ele>
        <time>2012-07-12T17:03:07.000Z</time>
      </trkpt>
      <trkpt lat="43.7672" lon="7.14457">
        <ele>714.20001220703</ele>
        <time>2012-07-12T17:03:14.000Z</time>
      </trkpt>
      <trkpt lat="43.76729" lon="7.14462">
        <ele>715</ele>
        <time>2012-07-12T17:03:21.000Z</time>
      </trkpt>
      <trkpt lat="43.76737" lon="7.14466">
        <ele>716.20001220703</ele>
        <time>2012-07-12T17:03:27.000Z</time>
      </trkpt>
      <trkpt lat="43.76743" lon="7.1447">
        <ele>716.79998779297</ele>
        <time>2012-07-12T17:03:33.000Z</time>
      </trkpt>
      <trkpt lat="43.76747" lon="7.14468">
        <ele>715.79998779297</ele>
        <time>2012-07-12T17:03:37.000Z</time>
      </trkpt>
      <trkpt lat="43.7675" lon="7.14466">
        <ele>715.59997558594</ele>
        <time>2012-07-12T17:03:39.000Z</time>
      </trkpt>
      <trkpt lat="43.76757" lon="7.1446">
        <ele>717.79998779297</ele>
        <time>2012-07-12T17:03:45.000Z</time>
      </trkpt>
      <trkpt lat="43.76762" lon="7.14463">
        <ele>719.40002441406</ele>
        <time>2012-07-12T17:03:50.000Z</time>
      </trkpt>
      <trkpt lat="43.76763" lon="7.14464">
        <ele>719.59997558594</ele>
        <time>2012-07-12T17:03:51.000Z</time>
      </trkpt>
      <trkpt lat="43.76772" lon="7.14469">
        <ele>720.59997558594</ele>
        <time>2012-07-12T17:03:58.000Z</time>
      </trkpt>
      <trkpt lat="43.76779" lon="7.14472">
        <ele>722.20001220703</ele>
        <time>2012-07-12T17:04:04.000Z</time>
      </trkpt>
      <trkpt lat="43.76791" lon="7.14476">
        <ele>723.79998779297</ele>
        <time>2012-07-12T17:04:13.000Z</time>
      </trkpt>
      <trkpt lat="43.76803" lon="7.14478">
        <ele>725.20001220703</ele>
        <time>2012-07-12T17:04:22.000Z</time>
      </trkpt>
      <trkpt lat="43.76811" lon="7.14479">
        <ele>726.40002441406</ele>
        <time>2012-07-12T17:04:29.000Z</time>
      </trkpt>
      <trkpt lat="43.7682" lon="7.14479">
        <ele>727.79998779297</ele>
        <time>2012-07-12T17:04:36.000Z</time>
      </trkpt>
      <trkpt lat="43.7683" lon="7.14481">
        <ele>729.59997558594</ele>
        <time>2012-07-12T17:04:44.000Z</time>
      </trkpt>
      <trkpt lat="43.76837" lon="7.14483">
        <ele>730.20001220703</ele>
        <time>2012-07-12T17:04:49.000Z</time>
      </trkpt>
      <trkpt lat="43.76849" lon="7.14483">
        <ele>731</ele>
        <time>2012-07-12T17:04:57.000Z</time>
      </trkpt>
      <trkpt lat="43.76856" lon="7.14486">
        <ele>732.20001220703</ele>
        <time>2012-07-12T17:05:04.000Z</time>
      </trkpt>
      <trkpt lat="43.76867" lon="7.14488">
        <ele>732.40002441406</ele>
        <time>2012-07-12T17:05:11.000Z</time>
      </trkpt>
      <trkpt lat="43.76874" lon="7.14487">
        <ele>733.20001220703</ele>
        <time>2012-07-12T17:05:16.000Z</time>
      </trkpt>
      <trkpt lat="43.76884" lon="7.14487">
        <ele>733.20001220703</ele>
        <time>2012-07-12T17:05:22.000Z</time>
      </trkpt>
      <trkpt lat="43.76898" lon="7.14487">
        <ele>732.79998779297</ele>
        <time>2012-07-12T17:05:30.000Z</time>
      </trkpt>
      <trkpt lat="43.76909" lon="7.14485">
        <ele>733.79998779297</ele>
        <time>2012-07-12T17:05:36.000Z</time>
      </trkpt>
      <trkpt lat="43.76925" lon="7.14482">
        <ele>734.40002441406</ele>
        <time>2012-07-12T17:05:44.000Z</time>
      </trkpt>
      <trkpt lat="43.76939" lon="7.14479">
        <ele>735.59997558594</ele>
        <time>2012-07-12T17:05:52.000Z</time>
      </trkpt>
      <trkpt lat="43.76951" lon="7.14476">
        <ele>737.59997558594</ele>
        <time>2012-07-12T17:05:59.000Z</time>
      </trkpt>
      <trkpt lat="43.76956" lon="7.14474">
        <ele>739.20001220703</ele>
        <time>2012-07-12T17:06:04.000Z</time>
      </trkpt>
      <trkpt lat="43.76956" lon="7.14474">
        <ele>739.40002441406</ele>
        <time>2012-07-12T17:06:05.000Z</time>
      </trkpt>
      <trkpt lat="43.76956" lon="7.14479">
        <ele>741.59997558594</ele>
        <time>2012-07-12T17:06:16.000Z</time>
      </trkpt>
      <trkpt lat="43.76957" lon="7.14479">
        <ele>741.59997558594</ele>
        <time>2012-07-12T17:06:17.000Z</time>
      </trkpt>
      <trkpt lat="43.76961" lon="7.14479">
        <ele>740.79998779297</ele>
        <time>2012-07-12T17:06:20.000Z</time>
      </trkpt>
      <trkpt lat="43.76968" lon="7.14484">
        <ele>740.20001220703</ele>
        <time>2012-07-12T17:06:25.000Z</time>
      </trkpt>
      <trkpt lat="43.76968" lon="7.14486">
        <ele>740.20001220703</ele>
        <time>2012-07-12T17:06:26.000Z</time>
      </trkpt>
      <trkpt lat="43.76962" lon="7.14494">
        <ele>741.59997558594</ele>
        <time>2012-07-12T17:06:31.000Z</time>
      </trkpt>
      <trkpt lat="43.76956" lon="7.14502">
        <ele>743.20001220703</ele>
        <time>2012-07-12T17:06:36.000Z</time>
      </trkpt>
      <trkpt lat="43.76954" lon="7.14503">
        <ele>743.20001220703</ele>
        <time>2012-07-12T17:06:38.000Z</time>
      </trkpt>
      <trkpt lat="43.76944" lon="7.14508">
        <ele>744.20001220703</ele>
        <time>2012-07-12T17:06:46.000Z</time>
      </trkpt>
      <trkpt lat="43.76937" lon="7.14513">
        <ele>744</ele>
        <time>2012-07-12T17:06:52.000Z</time>
      </trkpt>
      <trkpt lat="43.76935" lon="7.14516">
        <ele>744</ele>
        <time>2012-07-12T17:06:54.000Z</time>
      </trkpt>
      <trkpt lat="43.76931" lon="7.14522">
        <ele>745.20001220703</ele>
        <time>2012-07-12T17:06:57.000Z</time>
      </trkpt>
      <trkpt lat="43.76929" lon="7.14523">
        <ele>745.20001220703</ele>
        <time>2012-07-12T17:06:59.000Z</time>
      </trkpt>
      <trkpt lat="43.7693" lon="7.14523">
        <ele>745.20001220703</ele>
        <time>2012-07-12T17:07:01.000Z</time>
      </trkpt>
      <trkpt lat="43.76924" lon="7.14527">
        <ele>745.40002441406</ele>
        <time>2012-07-12T17:07:28.000Z</time>
      </trkpt>
      <trkpt lat="43.76924" lon="7.14528">
        <ele>745.59997558594</ele>
        <time>2012-07-12T17:07:29.000Z</time>
      </trkpt>
      <trkpt lat="43.76925" lon="7.14532">
        <ele>746</ele>
        <time>2012-07-12T17:07:33.000Z</time>
      </trkpt>
      <trkpt lat="43.76925" lon="7.14536">
        <ele>747.59997558594</ele>
        <time>2012-07-12T17:07:40.000Z</time>
      </trkpt>
      <trkpt lat="43.76928" lon="7.14536">
        <ele>748.40002441406</ele>
        <time>2012-07-12T17:07:48.000Z</time>
      </trkpt>
      <trkpt lat="43.76931" lon="7.14539">
        <ele>749.59997558594</ele>
        <time>2012-07-12T17:07:54.000Z</time>
      </trkpt>
      <trkpt lat="43.76933" lon="7.14543">
        <ele>748.59997558594</ele>
        <time>2012-07-12T17:08:01.000Z</time>
      </trkpt>
      <trkpt lat="43.76935" lon="7.14546">
        <ele>750.20001220703</ele>
        <time>2012-07-12T17:08:09.000Z</time>
      </trkpt>
      <trkpt lat="43.7694" lon="7.14547">
        <ele>750.59997558594</ele>
        <time>2012-07-12T17:08:14.000Z</time>
      </trkpt>
      <trkpt lat="43.76944" lon="7.14551">
        <ele>749.20001220703</ele>
        <time>2012-07-12T17:08:20.000Z</time>
      </trkpt>
      <trkpt lat="43.76944" lon="7.14551">
        <ele>749.20001220703</ele>
        <time>2012-07-12T17:08:21.000Z</time>
      </trkpt>
      <trkpt lat="43.76945" lon="7.14557">
        <ele>749.40002441406</ele>
        <time>2012-07-12T17:08:29.000Z</time>
      </trkpt>
      <trkpt lat="43.76943" lon="7.14562">
        <ele>756.20001220703</ele>
        <time>2012-07-12T17:08:34.000Z</time>
      </trkpt>
      <trkpt lat="43.76943" lon="7.14563">
        <ele>757</ele>
        <time>2012-07-12T17:08:36.000Z</time>
      </trkpt>
      <trkpt lat="43.76943" lon="7.14565">
        <ele>759.40002441406</ele>
        <time>2012-07-12T17:08:42.000Z</time>
      </trkpt>
      <trkpt lat="43.76942" lon="7.14568">
        <ele>758.79998779297</ele>
        <time>2012-07-12T17:08:48.000Z</time>
      </trkpt>
      <trkpt lat="43.76937" lon="7.14571">
        <ele>758.59997558594</ele>
        <time>2012-07-12T17:08:56.000Z</time>
      </trkpt>
      <trkpt lat="43.76931" lon="7.14573">
        <ele>756.59997558594</ele>
        <time>2012-07-12T17:09:23.000Z</time>
      </trkpt>
      <trkpt lat="43.76919" lon="7.1458">
        <ele>759.59997558594</ele>
        <time>2012-07-12T17:09:31.000Z</time>
      </trkpt>
      <trkpt lat="43.76908" lon="7.14589">
        <ele>762</ele>
        <time>2012-07-12T17:09:39.000Z</time>
      </trkpt>
      <trkpt lat="43.76899" lon="7.14599">
        <ele>764.79998779297</ele>
        <time>2012-07-12T17:09:47.000Z</time>
      </trkpt>
      <trkpt lat="43.76895" lon="7.14603">
        <ele>765.20001220703</ele>
        <time>2012-07-12T17:09:50.000Z</time>
      </trkpt>
      <trkpt lat="43.76894" lon="7.14605">
        <ele>765.79998779297</ele>
        <time>2012-07-12T17:09:52.000Z</time>
      </trkpt>
      <trkpt lat="43.76888" lon="7.14612">
        <ele>767</ele>
        <time>2012-07-12T17:09:58.000Z</time>
      </trkpt>
      <trkpt lat="43.76879" lon="7.14619">
        <ele>768.59997558594</ele>
        <time>2012-07-12T17:10:06.000Z</time>
      </trkpt>
      <trkpt lat="43.76871" lon="7.14628">
        <ele>769.79998779297</ele>
        <time>2012-07-12T17:10:13.000Z</time>
      </trkpt>
      <trkpt lat="43.76866" lon="7.14634">
        <ele>770.79998779297</ele>
        <time>2012-07-12T17:10:18.000Z</time>
      </trkpt>
      <trkpt lat="43.76862" lon="7.14641">
        <ele>771.59997558594</ele>
        <time>2012-07-12T17:10:24.000Z</time>
      </trkpt>
      <trkpt lat="43.76861" lon="7.14642">
        <ele>771.40002441406</ele>
        <time>2012-07-12T17:10:25.000Z</time>
      </trkpt>
      <trkpt lat="43.76855" lon="7.14648">
        <ele>772.40002441406</ele>
        <time>2012-07-12T17:10:30.000Z</time>
      </trkpt>
      <trkpt lat="43.76847" lon="7.14656">
        <ele>774</ele>
        <time>2012-07-12T17:10:38.000Z</time>
      </trkpt>
      <trkpt lat="43.76839" lon="7.14664">
        <ele>775</ele>
        <time>2012-07-12T17:10:45.000Z</time>
      </trkpt>
      <trkpt lat="43.76833" lon="7.14675">
        <ele>776</ele>
        <time>2012-07-12T17:10:53.000Z</time>
      </trkpt>
      <trkpt lat="43.76821" lon="7.14688">
        <ele>777.40002441406</ele>
        <time>2012-07-12T17:11:03.000Z</time>
      </trkpt>
      <trkpt lat="43.76811" lon="7.14689">
        <ele>779.40002441406</ele>
        <time>2012-07-12T17:11:10.000Z</time>
      </trkpt>
      <trkpt lat="43.76801" lon="7.14684">
        <ele>780.79998779297</ele>
        <time>2012-07-12T17:11:18.000Z</time>
      </trkpt>
      <trkpt lat="43.768" lon="7.14684">
        <ele>781.20001220703</ele>
        <time>2012-07-12T17:11:19.000Z</time>
      </trkpt>
      <trkpt lat="43.76795" lon="7.14683">
        <ele>782.20001220703</ele>
        <time>2012-07-12T17:11:23.000Z</time>
      </trkpt>
      <trkpt lat="43.76787" lon="7.1468">
        <ele>783</ele>
        <time>2012-07-12T17:11:29.000Z</time>
      </trkpt>
      <trkpt lat="43.76777" lon="7.14679">
        <ele>784.40002441406</ele>
        <time>2012-07-12T17:11:36.000Z</time>
      </trkpt>
      <trkpt lat="43.76769" lon="7.14677">
        <ele>784.40002441406</ele>
        <time>2012-07-12T17:11:42.000Z</time>
      </trkpt>
      <trkpt lat="43.76756" lon="7.14676">
        <ele>785.20001220703</ele>
        <time>2012-07-12T17:11:50.000Z</time>
      </trkpt>
      <trkpt lat="43.7674" lon="7.14675">
        <ele>789.20001220703</ele>
        <time>2012-07-12T17:12:00.000Z</time>
      </trkpt>
      <trkpt lat="43.76729" lon="7.14677">
        <ele>791.59997558594</ele>
        <time>2012-07-12T17:12:08.000Z</time>
      </trkpt>
      <trkpt lat="43.76716" lon="7.14683">
        <ele>794.40002441406</ele>
        <time>2012-07-12T17:12:18.000Z</time>
      </trkpt>
      <trkpt lat="43.76713" lon="7.14684">
        <ele>795</ele>
        <time>2012-07-12T17:12:20.000Z</time>
      </trkpt>
      <trkpt lat="43.76708" lon="7.14685">
        <ele>796</ele>
        <time>2012-07-12T17:12:24.000Z</time>
      </trkpt>
      <trkpt lat="43.76697" lon="7.14687">
        <ele>797.59997558594</ele>
        <time>2012-07-12T17:12:31.000Z</time>
      </trkpt>
      <trkpt lat="43.76682" lon="7.14691">
        <ele>799.79998779297</ele>
        <time>2012-07-12T17:12:41.000Z</time>
      </trkpt>
      <trkpt lat="43.76674" lon="7.14696">
        <ele>800.40002441406</ele>
        <time>2012-07-12T17:12:47.000Z</time>
      </trkpt>
      <trkpt lat="43.76668" lon="7.14701">
        <ele>800.59997558594</ele>
        <time>2012-07-12T17:12:52.000Z</time>
      </trkpt>
      <trkpt lat="43.76668" lon="7.147">
        <ele>800.79998779297</ele>
        <time>2012-07-12T17:12:53.000Z</time>
      </trkpt>
      <trkpt lat="43.76667" lon="7.14701">
        <ele>801</ele>
        <time>2012-07-12T17:12:54.000Z</time>
      </trkpt>
      <trkpt lat="43.76662" lon="7.14703">
        <ele>801.20001220703</ele>
        <time>2012-07-12T17:12:58.000Z</time>
      </trkpt>
      <trkpt lat="43.7666" lon="7.14703">
        <ele>801.20001220703</ele>
        <time>2012-07-12T17:13:02.000Z</time>
      </trkpt>
      <trkpt lat="43.76662" lon="7.14704">
        <ele>801</ele>
        <time>2012-07-12T17:13:15.000Z</time>
      </trkpt>
      <trkpt lat="43.7666" lon="7.14705">
        <ele>800.40002441406</ele>
        <time>2012-07-12T17:13:22.000Z</time>
      </trkpt>
      <trkpt lat="43.76655" lon="7.14709">
        <ele>800.79998779297</ele>
        <time>2012-07-12T17:13:28.000Z</time>
      </trkpt>
      <trkpt lat="43.76647" lon="7.14716">
        <ele>801.40002441406</ele>
        <time>2012-07-12T17:13:34.000Z</time>
      </trkpt>
      <trkpt lat="43.76637" lon="7.14725">
        <ele>802.40002441406</ele>
        <time>2012-07-12T17:13:42.000Z</time>
      </trkpt>
      <trkpt lat="43.76633" lon="7.14728">
        <ele>802.59997558594</ele>
        <time>2012-07-12T17:13:45.000Z</time>
      </trkpt>
      <trkpt lat="43.7663" lon="7.1473">
        <ele>802.59997558594</ele>
        <time>2012-07-12T17:13:47.000Z</time>
      </trkpt>
      <trkpt lat="43.76616" lon="7.14739">
        <ele>802.79998779297</ele>
        <time>2012-07-12T17:13:55.000Z</time>
      </trkpt>
      <trkpt lat="43.76614" lon="7.14744">
        <ele>803.40002441406</ele>
        <time>2012-07-12T17:13:57.000Z</time>
      </trkpt>
      <trkpt lat="43.76611" lon="7.14748">
        <ele>804</ele>
        <time>2012-07-12T17:13:59.000Z</time>
      </trkpt>
      <trkpt lat="43.76606" lon="7.14753">
        <ele>805</ele>
        <time>2012-07-12T17:14:02.000Z</time>
      </trkpt>
      <trkpt lat="43.76603" lon="7.14756">
        <ele>805.79998779297</ele>
        <time>2012-07-12T17:14:04.000Z</time>
      </trkpt>
      <trkpt lat="43.76587" lon="7.14765">
        <ele>807</ele>
        <time>2012-07-12T17:14:12.000Z</time>
      </trkpt>
      <trkpt lat="43.76572" lon="7.14765">
        <ele>806.40002441406</ele>
        <time>2012-07-12T17:14:16.000Z</time>
      </trkpt>
      <trkpt lat="43.76561" lon="7.14765">
        <ele>806.59997558594</ele>
        <time>2012-07-12T17:14:21.000Z</time>
      </trkpt>
      <trkpt lat="43.76547" lon="7.14772">
        <ele>807.20001220703</ele>
        <time>2012-07-12T17:14:28.000Z</time>
      </trkpt>
      <trkpt lat="43.76546" lon="7.14772">
        <ele>807</ele>
        <time>2012-07-12T17:14:31.000Z</time>
      </trkpt>
      <trkpt lat="43.76542" lon="7.14775">
        <ele>807.59997558594</ele>
        <time>2012-07-12T17:14:37.000Z</time>
      </trkpt>
      <trkpt lat="43.76533" lon="7.14783">
        <ele>809</ele>
        <time>2012-07-12T17:14:43.000Z</time>
      </trkpt>
      <trkpt lat="43.76523" lon="7.14792">
        <ele>810.59997558594</ele>
        <time>2012-07-12T17:14:49.000Z</time>
      </trkpt>
      <trkpt lat="43.76516" lon="7.14799">
        <ele>811.79998779297</ele>
        <time>2012-07-12T17:14:54.000Z</time>
      </trkpt>
      <trkpt lat="43.76504" lon="7.14808">
        <ele>812.40002441406</ele>
        <time>2012-07-12T17:15:01.000Z</time>
      </trkpt>
      <trkpt lat="43.76492" lon="7.1482">
        <ele>813.79998779297</ele>
        <time>2012-07-12T17:15:07.000Z</time>
      </trkpt>
      <trkpt lat="43.76483" lon="7.1483">
        <ele>815</ele>
        <time>2012-07-12T17:15:13.000Z</time>
      </trkpt>
      <trkpt lat="43.76469" lon="7.14835">
        <ele>815.40002441406</ele>
        <time>2012-07-12T17:15:19.000Z</time>
      </trkpt>
      <trkpt lat="43.76461" lon="7.14845">
        <ele>817</ele>
        <time>2012-07-12T17:15:24.000Z</time>
      </trkpt>
      <trkpt lat="43.76453" lon="7.14853">
        <ele>817.40002441406</ele>
        <time>2012-07-12T17:15:29.000Z</time>
      </trkpt>
      <trkpt lat="43.76452" lon="7.14856">
        <ele>817.59997558594</ele>
        <time>2012-07-12T17:15:30.000Z</time>
      </trkpt>
      <trkpt lat="43.76443" lon="7.14863">
        <ele>818.40002441406</ele>
        <time>2012-07-12T17:15:35.000Z</time>
      </trkpt>
      <trkpt lat="43.76431" lon="7.14877">
        <ele>818.40002441406</ele>
        <time>2012-07-12T17:15:42.000Z</time>
      </trkpt>
      <trkpt lat="43.76421" lon="7.14883">
        <ele>818.40002441406</ele>
        <time>2012-07-12T17:15:46.000Z</time>
      </trkpt>
      <trkpt lat="43.76413" lon="7.14889">
        <ele>818.40002441406</ele>
        <time>2012-07-12T17:15:50.000Z</time>
      </trkpt>
      <trkpt lat="43.76411" lon="7.14889">
        <ele>818.40002441406</ele>
        <time>2012-07-12T17:15:51.000Z</time>
      </trkpt>
      <trkpt lat="43.76398" lon="7.14895">
        <ele>819</ele>
        <time>2012-07-12T17:15:57.000Z</time>
      </trkpt>
      <trkpt lat="43.76395" lon="7.14896">
        <ele>819</ele>
        <time>2012-07-12T17:16:02.000Z</time>
      </trkpt>
      <trkpt lat="43.76397" lon="7.14896">
        <ele>819.79998779297</ele>
        <time>2012-07-12T17:16:21.000Z</time>
      </trkpt>
      <trkpt lat="43.76395" lon="7.14894">
        <ele>818.59997558594</ele>
        <time>2012-07-12T17:17:35.000Z</time>
      </trkpt>
      <trkpt lat="43.76396" lon="7.14895">
        <ele>819</ele>
        <time>2012-07-12T17:17:43.000Z</time>
      </trkpt>
      <trkpt lat="43.76398" lon="7.14896">
        <ele>819.40002441406</ele>
        <time>2012-07-12T17:17:49.000Z</time>
      </trkpt>
      <trkpt lat="43.76398" lon="7.1489">
        <ele>818.20001220703</ele>
        <time>2012-07-12T17:18:06.000Z</time>
      </trkpt>
      <trkpt lat="43.76399" lon="7.14889">
        <ele>817.79998779297</ele>
        <time>2012-07-12T17:18:11.000Z</time>
      </trkpt>
      <trkpt lat="43.76399" lon="7.14893">
        <ele>815.59997558594</ele>
        <time>2012-07-12T17:18:35.000Z</time>
      </trkpt>
      <trkpt lat="43.76398" lon="7.14894">
        <ele>814.59997558594</ele>
        <time>2012-07-12T17:18:40.000Z</time>
      </trkpt>
      <trkpt lat="43.76398" lon="7.14895">
        <ele>817.40002441406</ele>
        <time>2012-07-12T17:18:52.000Z</time>
      </trkpt>
      <trkpt lat="43.76396" lon="7.14895">
        <ele>816.20001220703</ele>
        <time>2012-07-12T17:19:06.000Z</time>
      </trkpt>
      <trkpt lat="43.76395" lon="7.14895">
        <ele>818.20001220703</ele>
        <time>2012-07-12T17:19:37.000Z</time>
      </trkpt>
      <trkpt lat="43.76388" lon="7.14896">
        <ele>819.40002441406</ele>
        <time>2012-07-12T17:20:18.000Z</time>
      </trkpt>
      <trkpt lat="43.7638" lon="7.149">
        <ele>819.40002441406</ele>
        <time>2012-07-12T17:20:22.000Z</time>
      </trkpt>
      <trkpt lat="43.76368" lon="7.14908">
        <ele>819.59997558594</ele>
        <time>2012-07-12T17:20:28.000Z</time>
      </trkpt>
      <trkpt lat="43.76351" lon="7.14911">
        <ele>819</ele>
        <time>2012-07-12T17:20:34.000Z</time>
      </trkpt>
      <trkpt lat="43.76328" lon="7.14918">
        <ele>818</ele>
        <time>2012-07-12T17:20:41.000Z</time>
      </trkpt>
      <trkpt lat="43.76315" lon="7.14925">
        <ele>817.40002441406</ele>
        <time>2012-07-12T17:20:46.000Z</time>
      </trkpt>
      <trkpt lat="43.76313" lon="7.14924">
        <ele>817.20001220703</ele>
        <time>2012-07-12T17:20:47.000Z</time>
      </trkpt>
      <trkpt lat="43.76306" lon="7.14917">
        <ele>817.40002441406</ele>
        <time>2012-07-12T17:20:51.000Z</time>
      </trkpt>
      <trkpt lat="43.763" lon="7.1492">
        <ele>817.79998779297</ele>
        <time>2012-07-12T17:20:54.000Z</time>
      </trkpt>
      <trkpt lat="43.76289" lon="7.1492">
        <ele>818.40002441406</ele>
        <time>2012-07-12T17:20:58.000Z</time>
      </trkpt>
      <trkpt lat="43.76287" lon="7.1492">
        <ele>818.40002441406</ele>
        <time>2012-07-12T17:20:59.000Z</time>
      </trkpt>
      <trkpt lat="43.76276" lon="7.14921">
        <ele>819.20001220703</ele>
        <time>2012-07-12T17:21:04.000Z</time>
      </trkpt>
      <trkpt lat="43.76265" lon="7.14925">
        <ele>820.79998779297</ele>
        <time>2012-07-12T17:21:11.000Z</time>
      </trkpt>
      <trkpt lat="43.76255" lon="7.14927">
        <ele>823.59997558594</ele>
        <time>2012-07-12T17:21:18.000Z</time>
      </trkpt>
      <trkpt lat="43.76252" lon="7.14928">
        <ele>824</ele>
        <time>2012-07-12T17:21:21.000Z</time>
      </trkpt>
      <trkpt lat="43.76252" lon="7.14928">
        <ele>824.40002441406</ele>
        <time>2012-07-12T17:21:23.000Z</time>
      </trkpt>
      <trkpt lat="43.76247" lon="7.1493">
        <ele>825.59997558594</ele>
        <time>2012-07-12T17:21:30.000Z</time>
      </trkpt>
      <trkpt lat="43.76243" lon="7.1493">
        <ele>826.40002441406</ele>
        <time>2012-07-12T17:21:36.000Z</time>
      </trkpt>
      <trkpt lat="43.76233" lon="7.14927">
        <ele>829</ele>
        <time>2012-07-12T17:21:47.000Z</time>
      </trkpt>
      <trkpt lat="43.76231" lon="7.14927">
        <ele>829.59997558594</ele>
        <time>2012-07-12T17:21:50.000Z</time>
      </trkpt>
      <trkpt lat="43.76228" lon="7.14928">
        <ele>830.40002441406</ele>
        <time>2012-07-12T17:21:54.000Z</time>
      </trkpt>
      <trkpt lat="43.76228" lon="7.14928">
        <ele>831.59997558594</ele>
        <time>2012-07-12T17:22:01.000Z</time>
      </trkpt>
      <trkpt lat="43.76222" lon="7.14928">
        <ele>832</ele>
        <time>2012-07-12T17:22:05.000Z</time>
      </trkpt>
      <trkpt lat="43.76215" lon="7.14925">
        <ele>832.59997558594</ele>
        <time>2012-07-12T17:22:11.000Z</time>
      </trkpt>
      <trkpt lat="43.76216" lon="7.14925">
        <ele>832.40002441406</ele>
        <time>2012-07-12T17:22:18.000Z</time>
      </trkpt>
      <trkpt lat="43.76216" lon="7.14925">
        <ele>832.59997558594</ele>
        <time>2012-07-12T17:22:26.000Z</time>
      </trkpt>
      <trkpt lat="43.7621" lon="7.14921">
        <ele>833.20001220703</ele>
        <time>2012-07-12T17:22:31.000Z</time>
      </trkpt>
      <trkpt lat="43.76202" lon="7.14914">
        <ele>834.59997558594</ele>
        <time>2012-07-12T17:22:37.000Z</time>
      </trkpt>
      <trkpt lat="43.76194" lon="7.14904">
        <ele>835.79998779297</ele>
        <time>2012-07-12T17:22:44.000Z</time>
      </trkpt>
      <trkpt lat="43.76192" lon="7.14894">
        <ele>835.79998779297</ele>
        <time>2012-07-12T17:22:49.000Z</time>
      </trkpt>
      <trkpt lat="43.76187" lon="7.14887">
        <ele>835.59997558594</ele>
        <time>2012-07-12T17:22:54.000Z</time>
      </trkpt>
      <trkpt lat="43.76178" lon="7.14881">
        <ele>835</ele>
        <time>2012-07-12T17:22:59.000Z</time>
      </trkpt>
      <trkpt lat="43.76175" lon="7.14882">
        <ele>835</ele>
        <time>2012-07-12T17:23:00.000Z</time>
      </trkpt>
      <trkpt lat="43.76168" lon="7.14884">
        <ele>834.59997558594</ele>
        <time>2012-07-12T17:23:02.000Z</time>
      </trkpt>
      <trkpt lat="43.76146" lon="7.14887">
        <ele>834.40002441406</ele>
        <time>2012-07-12T17:23:07.000Z</time>
      </trkpt>
      <trkpt lat="43.76124" lon="7.14889">
        <ele>836.59997558594</ele>
        <time>2012-07-12T17:23:13.000Z</time>
      </trkpt>
      <trkpt lat="43.76111" lon="7.14888">
        <ele>838.59997558594</ele>
        <time>2012-07-12T17:23:18.000Z</time>
      </trkpt>
      <trkpt lat="43.76099" lon="7.14886">
        <ele>839.40002441406</ele>
        <time>2012-07-12T17:23:23.000Z</time>
      </trkpt>
      <trkpt lat="43.76092" lon="7.14883">
        <ele>839.59997558594</ele>
        <time>2012-07-12T17:23:27.000Z</time>
      </trkpt>
      <trkpt lat="43.76091" lon="7.14884">
        <ele>839.59997558594</ele>
        <time>2012-07-12T17:23:28.000Z</time>
      </trkpt>
      <trkpt lat="43.76089" lon="7.14886">
        <ele>839.40002441406</ele>
        <time>2012-07-12T17:23:33.000Z</time>
      </trkpt>
      <trkpt lat="43.7609" lon="7.14885">
        <ele>840</ele>
        <time>2012-07-12T17:23:40.000Z</time>
      </trkpt>
      <trkpt lat="43.76087" lon="7.14885">
        <ele>840.20001220703</ele>
        <time>2012-07-12T17:23:49.000Z</time>
      </trkpt>
      <trkpt lat="43.76079" lon="7.14876">
        <ele>838</ele>
        <time>2012-07-12T17:23:54.000Z</time>
      </trkpt>
      <trkpt lat="43.76068" lon="7.14874">
        <ele>836.20001220703</ele>
        <time>2012-07-12T17:23:59.000Z</time>
      </trkpt>
      <trkpt lat="43.76059" lon="7.14866">
        <ele>833.79998779297</ele>
        <time>2012-07-12T17:24:03.000Z</time>
      </trkpt>
      <trkpt lat="43.76048" lon="7.14862">
        <ele>832</ele>
        <time>2012-07-12T17:24:05.000Z</time>
      </trkpt>
      <trkpt lat="43.76042" lon="7.14861">
        <ele>831</ele>
        <time>2012-07-12T17:24:06.000Z</time>
      </trkpt>
      <trkpt lat="43.76021" lon="7.14859">
        <ele>827.40002441406</ele>
        <time>2012-07-12T17:24:10.000Z</time>
      </trkpt>
      <trkpt lat="43.76011" lon="7.14855">
        <ele>825.79998779297</ele>
        <time>2012-07-12T17:24:12.000Z</time>
      </trkpt>
      <trkpt lat="43.76005" lon="7.14845">
        <ele>824</ele>
        <time>2012-07-12T17:24:14.000Z</time>
      </trkpt>
      <trkpt lat="43.75998" lon="7.14843">
        <ele>823</ele>
        <time>2012-07-12T17:24:17.000Z</time>
      </trkpt>
      <trkpt lat="43.75996" lon="7.14843">
        <ele>822.59997558594</ele>
        <time>2012-07-12T17:24:18.000Z</time>
      </trkpt>
      <trkpt lat="43.75995" lon="7.14843">
        <ele>822.40002441406</ele>
        <time>2012-07-12T17:24:19.000Z</time>
      </trkpt>
      <trkpt lat="43.75989" lon="7.14845">
        <ele>821.79998779297</ele>
        <time>2012-07-12T17:24:22.000Z</time>
      </trkpt>
      <trkpt lat="43.75978" lon="7.14854">
        <ele>821</ele>
        <time>2012-07-12T17:24:27.000Z</time>
      </trkpt>
      <trkpt lat="43.75963" lon="7.14865">
        <ele>819.59997558594</ele>
        <time>2012-07-12T17:24:32.000Z</time>
      </trkpt>
      <trkpt lat="43.75944" lon="7.14866">
        <ele>819</ele>
        <time>2012-07-12T17:24:37.000Z</time>
      </trkpt>
      <trkpt lat="43.75924" lon="7.14855">
        <ele>817</ele>
        <time>2012-07-12T17:24:41.000Z</time>
      </trkpt>
      <trkpt lat="43.75921" lon="7.14852">
        <ele>816.20001220703</ele>
        <time>2012-07-12T17:24:42.000Z</time>
      </trkpt>
      <trkpt lat="43.75917" lon="7.14849">
        <ele>815.59997558594</ele>
        <time>2012-07-12T17:24:44.000Z</time>
      </trkpt>
      <trkpt lat="43.75917" lon="7.14848">
        <ele>815.40002441406</ele>
        <time>2012-07-12T17:24:48.000Z</time>
      </trkpt>
      <trkpt lat="43.75917" lon="7.14848">
        <ele>815.59997558594</ele>
        <time>2012-07-12T17:24:56.000Z</time>
      </trkpt>
      <trkpt lat="43.75916" lon="7.14844">
        <ele>813</ele>
        <time>2012-07-12T17:25:51.000Z</time>
      </trkpt>
      <trkpt lat="43.75913" lon="7.14844">
        <ele>813</ele>
        <time>2012-07-12T17:25:55.000Z</time>
      </trkpt>
      <trkpt lat="43.75912" lon="7.14844">
        <ele>813.20001220703</ele>
        <time>2012-07-12T17:25:56.000Z</time>
      </trkpt>
      <trkpt lat="43.75911" lon="7.14845">
        <ele>815</ele>
        <time>2012-07-12T17:26:03.000Z</time>
      </trkpt>
      <trkpt lat="43.75912" lon="7.14844">
        <ele>816.79998779297</ele>
        <time>2012-07-12T17:26:10.000Z</time>
      </trkpt>
      <trkpt lat="43.75913" lon="7.14845">
        <ele>815.59997558594</ele>
        <time>2012-07-12T17:26:19.000Z</time>
      </trkpt>
      <trkpt lat="43.75914" lon="7.14845">
        <ele>816.59997558594</ele>
        <time>2012-07-12T17:27:00.000Z</time>
      </trkpt>
      <trkpt lat="43.75922" lon="7.1484">
        <ele>817.40002441406</ele>
        <time>2012-07-12T17:27:10.000Z</time>
      </trkpt>
      <trkpt lat="43.75936" lon="7.14825">
        <ele>816.40002441406</ele>
        <time>2012-07-12T17:27:14.000Z</time>
      </trkpt>
      <trkpt lat="43.75942" lon="7.14812">
        <ele>814</ele>
        <time>2012-07-12T17:27:18.000Z</time>
      </trkpt>
      <trkpt lat="43.75951" lon="7.14801">
        <ele>810.59997558594</ele>
        <time>2012-07-12T17:27:22.000Z</time>
      </trkpt>
      <trkpt lat="43.75953" lon="7.14797">
        <ele>809.40002441406</ele>
        <time>2012-07-12T17:27:23.000Z</time>
      </trkpt>
      <trkpt lat="43.75964" lon="7.14787">
        <ele>806.59997558594</ele>
        <time>2012-07-12T17:27:26.000Z</time>
      </trkpt>
      <trkpt lat="43.75977" lon="7.1477">
        <ele>803.20001220703</ele>
        <time>2012-07-12T17:27:30.000Z</time>
      </trkpt>
      <trkpt lat="43.75985" lon="7.14763">
        <ele>801.79998779297</ele>
        <time>2012-07-12T17:27:32.000Z</time>
      </trkpt>
      <trkpt lat="43.75991" lon="7.14755">
        <ele>800.20001220703</ele>
        <time>2012-07-12T17:27:34.000Z</time>
      </trkpt>
      <trkpt lat="43.76004" lon="7.14739">
        <ele>795.79998779297</ele>
        <time>2012-07-12T17:27:39.000Z</time>
      </trkpt>
      <trkpt lat="43.76005" lon="7.14733">
        <ele>793.20001220703</ele>
        <time>2012-07-12T17:27:42.000Z</time>
      </trkpt>
      <trkpt lat="43.76005" lon="7.14729">
        <ele>792.59997558594</ele>
        <time>2012-07-12T17:27:43.000Z</time>
      </trkpt>
      <trkpt lat="43.76008" lon="7.14725">
        <ele>790.79998779297</ele>
        <time>2012-07-12T17:27:45.000Z</time>
      </trkpt>
      <trkpt lat="43.76012" lon="7.14721">
        <ele>789.59997558594</ele>
        <time>2012-07-12T17:27:47.000Z</time>
      </trkpt>
      <trkpt lat="43.76017" lon="7.14715">
        <ele>787.40002441406</ele>
        <time>2012-07-12T17:27:50.000Z</time>
      </trkpt>
      <trkpt lat="43.76017" lon="7.14712">
        <ele>786.40002441406</ele>
        <time>2012-07-12T17:27:51.000Z</time>
      </trkpt>
      <trkpt lat="43.76018" lon="7.14709">
        <ele>785.59997558594</ele>
        <time>2012-07-12T17:27:52.000Z</time>
      </trkpt>
      <trkpt lat="43.76026" lon="7.14696">
        <ele>780</ele>
        <time>2012-07-12T17:27:57.000Z</time>
      </trkpt>
      <trkpt lat="43.76032" lon="7.1469">
        <ele>779.40002441406</ele>
        <time>2012-07-12T17:27:59.000Z</time>
      </trkpt>
      <trkpt lat="43.76039" lon="7.14685">
        <ele>778.20001220703</ele>
        <time>2012-07-12T17:28:02.000Z</time>
      </trkpt>
      <trkpt lat="43.76049" lon="7.14677">
        <ele>775.40002441406</ele>
        <time>2012-07-12T17:28:07.000Z</time>
      </trkpt>
      <trkpt lat="43.76053" lon="7.14671">
        <ele>771.20001220703</ele>
        <time>2012-07-12T17:28:12.000Z</time>
      </trkpt>
      <trkpt lat="43.76049" lon="7.14667">
        <ele>769.59997558594</ele>
        <time>2012-07-12T17:28:14.000Z</time>
      </trkpt>
      <trkpt lat="43.76046" lon="7.14663">
        <ele>768.59997558594</ele>
        <time>2012-07-12T17:28:15.000Z</time>
      </trkpt>
      <trkpt lat="43.76035" lon="7.14653">
        <ele>764.40002441406</ele>
        <time>2012-07-12T17:28:19.000Z</time>
      </trkpt>
      <trkpt lat="43.76024" lon="7.14644">
        <ele>759.20001220703</ele>
        <time>2012-07-12T17:28:24.000Z</time>
      </trkpt>
      <trkpt lat="43.76016" lon="7.14641">
        <ele>755.79998779297</ele>
        <time>2012-07-12T17:28:29.000Z</time>
      </trkpt>
      <trkpt lat="43.76018" lon="7.14641">
        <ele>754.79998779297</ele>
        <time>2012-07-12T17:28:31.000Z</time>
      </trkpt>
      <trkpt lat="43.7602" lon="7.14641">
        <ele>754</ele>
        <time>2012-07-12T17:28:33.000Z</time>
      </trkpt>
      <trkpt lat="43.76031" lon="7.14634">
        <ele>749.79998779297</ele>
        <time>2012-07-12T17:28:38.000Z</time>
      </trkpt>
      <trkpt lat="43.76041" lon="7.14625">
        <ele>746</ele>
        <time>2012-07-12T17:28:43.000Z</time>
      </trkpt>
      <trkpt lat="43.76042" lon="7.14623">
        <ele>745</ele>
        <time>2012-07-12T17:28:45.000Z</time>
      </trkpt>
      <trkpt lat="43.76041" lon="7.14623">
        <ele>744.40002441406</ele>
        <time>2012-07-12T17:28:47.000Z</time>
      </trkpt>
      <trkpt lat="43.76032" lon="7.14615">
        <ele>741.59997558594</ele>
        <time>2012-07-12T17:28:51.000Z</time>
      </trkpt>
      <trkpt lat="43.7603" lon="7.14612">
        <ele>741.20001220703</ele>
        <time>2012-07-12T17:28:52.000Z</time>
      </trkpt>
      <trkpt lat="43.76016" lon="7.146">
        <ele>737.20001220703</ele>
        <time>2012-07-12T17:28:58.000Z</time>
      </trkpt>
      <trkpt lat="43.76" lon="7.14593">
        <ele>734</ele>
        <time>2012-07-12T17:29:03.000Z</time>
      </trkpt>
      <trkpt lat="43.75988" lon="7.14588">
        <ele>731.40002441406</ele>
        <time>2012-07-12T17:29:08.000Z</time>
      </trkpt>
      <trkpt lat="43.75979" lon="7.14584">
        <ele>732</ele>
        <time>2012-07-12T17:29:13.000Z</time>
      </trkpt>
      <trkpt lat="43.75979" lon="7.14582">
        <ele>731.79998779297</ele>
        <time>2012-07-12T17:29:14.000Z</time>
      </trkpt>
      <trkpt lat="43.7598" lon="7.14581">
        <ele>732</ele>
        <time>2012-07-12T17:29:18.000Z</time>
      </trkpt>
      <trkpt lat="43.7598" lon="7.14581">
        <ele>733.59997558594</ele>
        <time>2012-07-12T17:29:23.000Z</time>
      </trkpt>
      <trkpt lat="43.75974" lon="7.14577">
        <ele>733.79998779297</ele>
        <time>2012-07-12T17:29:31.000Z</time>
      </trkpt>
      <trkpt lat="43.75969" lon="7.14571">
        <ele>730.59997558594</ele>
        <time>2012-07-12T17:29:36.000Z</time>
      </trkpt>
      <trkpt lat="43.75961" lon="7.1456">
        <ele>726.40002441406</ele>
        <time>2012-07-12T17:29:41.000Z</time>
      </trkpt>
      <trkpt lat="43.75961" lon="7.14558">
        <ele>725.40002441406</ele>
        <time>2012-07-12T17:29:42.000Z</time>
      </trkpt>
      <trkpt lat="43.7596" lon="7.14553">
        <ele>723.40002441406</ele>
        <time>2012-07-12T17:29:44.000Z</time>
      </trkpt>
      <trkpt lat="43.75962" lon="7.14551">
        <ele>722.79998779297</ele>
        <time>2012-07-12T17:29:45.000Z</time>
      </trkpt>
      <trkpt lat="43.75968" lon="7.14547">
        <ele>719.20001220703</ele>
        <time>2012-07-12T17:29:48.000Z</time>
      </trkpt>
      <trkpt lat="43.7597" lon="7.14544">
        <ele>718.20001220703</ele>
        <time>2012-07-12T17:29:50.000Z</time>
      </trkpt>
      <trkpt lat="43.7597" lon="7.14542">
        <ele>717</ele>
        <time>2012-07-12T17:29:51.000Z</time>
      </trkpt>
      <trkpt lat="43.75969" lon="7.14539">
        <ele>714.20001220703</ele>
        <time>2012-07-12T17:29:54.000Z</time>
      </trkpt>
      <trkpt lat="43.75965" lon="7.14537">
        <ele>716.20001220703</ele>
        <time>2012-07-12T17:29:59.000Z</time>
      </trkpt>
      <trkpt lat="43.75958" lon="7.14535">
        <ele>714.79998779297</ele>
        <time>2012-07-12T17:30:02.000Z</time>
      </trkpt>
      <trkpt lat="43.75945" lon="7.14532">
        <ele>710.59997558594</ele>
        <time>2012-07-12T17:30:07.000Z</time>
      </trkpt>
      <trkpt lat="43.7594" lon="7.14531">
        <ele>707.79998779297</ele>
        <time>2012-07-12T17:30:11.000Z</time>
      </trkpt>
      <trkpt lat="43.75939" lon="7.14528">
        <ele>703.40002441406</ele>
        <time>2012-07-12T17:30:23.000Z</time>
      </trkpt>
      <trkpt lat="43.75937" lon="7.14527">
        <ele>701.40002441406</ele>
        <time>2012-07-12T17:30:28.000Z</time>
      </trkpt>
      <trkpt lat="43.7593" lon="7.14525">
        <ele>700.40002441406</ele>
        <time>2012-07-12T17:30:34.000Z</time>
      </trkpt>
      <trkpt lat="43.75926" lon="7.14522">
        <ele>699.20001220703</ele>
        <time>2012-07-12T17:30:36.000Z</time>
      </trkpt>
      <trkpt lat="43.75923" lon="7.1452">
        <ele>698</ele>
        <time>2012-07-12T17:30:38.000Z</time>
      </trkpt>
      <trkpt lat="43.75925" lon="7.14513">
        <ele>696.20001220703</ele>
        <time>2012-07-12T17:30:41.000Z</time>
      </trkpt>
      <trkpt lat="43.75932" lon="7.145">
        <ele>692.59997558594</ele>
        <time>2012-07-12T17:30:46.000Z</time>
      </trkpt>
      <trkpt lat="43.75934" lon="7.14497">
        <ele>691.20001220703</ele>
        <time>2012-07-12T17:30:48.000Z</time>
      </trkpt>
      <trkpt lat="43.75934" lon="7.14495">
        <ele>690.59997558594</ele>
        <time>2012-07-12T17:30:49.000Z</time>
      </trkpt>
      <trkpt lat="43.75934" lon="7.14493">
        <ele>693.20001220703</ele>
        <time>2012-07-12T17:30:51.000Z</time>
      </trkpt>
      <trkpt lat="43.75933" lon="7.14494">
        <ele>693.79998779297</ele>
        <time>2012-07-12T17:30:52.000Z</time>
      </trkpt>
      <trkpt lat="43.75932" lon="7.14492">
        <ele>695</ele>
        <time>2012-07-12T17:30:55.000Z</time>
      </trkpt>
      <trkpt lat="43.75925" lon="7.14491">
        <ele>695</ele>
        <time>2012-07-12T17:31:00.000Z</time>
      </trkpt>
      <trkpt lat="43.75924" lon="7.14489">
        <ele>695</ele>
        <time>2012-07-12T17:31:01.000Z</time>
      </trkpt>
      <trkpt lat="43.75927" lon="7.14487">
        <ele>694</ele>
        <time>2012-07-12T17:31:03.000Z</time>
      </trkpt>
      <trkpt lat="43.75934" lon="7.14478">
        <ele>690.79998779297</ele>
        <time>2012-07-12T17:31:07.000Z</time>
      </trkpt>
      <trkpt lat="43.7594" lon="7.14469">
        <ele>686.20001220703</ele>
        <time>2012-07-12T17:31:12.000Z</time>
      </trkpt>
      <trkpt lat="43.75943" lon="7.14461">
        <ele>683.79998779297</ele>
        <time>2012-07-12T17:31:16.000Z</time>
      </trkpt>
      <trkpt lat="43.75948" lon="7.14456">
        <ele>680</ele>
        <time>2012-07-12T17:31:21.000Z</time>
      </trkpt>
      <trkpt lat="43.75943" lon="7.14454">
        <ele>679.40002441406</ele>
        <time>2012-07-12T17:31:24.000Z</time>
      </trkpt>
      <trkpt lat="43.75937" lon="7.14451">
        <ele>677.40002441406</ele>
        <time>2012-07-12T17:31:27.000Z</time>
      </trkpt>
      <trkpt lat="43.75933" lon="7.14448">
        <ele>675.59997558594</ele>
        <time>2012-07-12T17:31:29.000Z</time>
      </trkpt>
      <trkpt lat="43.75922" lon="7.14447">
        <ele>672.20001220703</ele>
        <time>2012-07-12T17:31:33.000Z</time>
      </trkpt>
      <trkpt lat="43.75912" lon="7.14445">
        <ele>668.59997558594</ele>
        <time>2012-07-12T17:31:38.000Z</time>
      </trkpt>
      <trkpt lat="43.759" lon="7.14438">
        <ele>665.40002441406</ele>
        <time>2012-07-12T17:31:43.000Z</time>
      </trkpt>
      <trkpt lat="43.75894" lon="7.14436">
        <ele>663.79998779297</ele>
        <time>2012-07-12T17:31:47.000Z</time>
      </trkpt>
      <trkpt lat="43.75893" lon="7.14435">
        <ele>665.59997558594</ele>
        <time>2012-07-12T17:31:51.000Z</time>
      </trkpt>
      <trkpt lat="43.75894" lon="7.14431">
        <ele>666</ele>
        <time>2012-07-12T17:31:55.000Z</time>
      </trkpt>
      <trkpt lat="43.75895" lon="7.14425">
        <ele>665.40002441406</ele>
        <time>2012-07-12T17:31:59.000Z</time>
      </trkpt>
      <trkpt lat="43.75896" lon="7.14423">
        <ele>664.79998779297</ele>
        <time>2012-07-12T17:32:01.000Z</time>
      </trkpt>
      <trkpt lat="43.75896" lon="7.14422">
        <ele>664.20001220703</ele>
        <time>2012-07-12T17:32:03.000Z</time>
      </trkpt>
      <trkpt lat="43.75896" lon="7.14422">
        <ele>664</ele>
        <time>2012-07-12T17:32:07.000Z</time>
      </trkpt>
      <trkpt lat="43.75893" lon="7.1442">
        <ele>672.40002441406</ele>
        <time>2012-07-12T17:33:09.000Z</time>
      </trkpt>
      <trkpt lat="43.75891" lon="7.14419">
        <ele>670.59997558594</ele>
        <time>2012-07-12T17:33:17.000Z</time>
      </trkpt>
      <trkpt lat="43.75885" lon="7.14415">
        <ele>668</ele>
        <time>2012-07-12T17:33:22.000Z</time>
      </trkpt>
      <trkpt lat="43.75884" lon="7.1441">
        <ele>666.40002441406</ele>
        <time>2012-07-12T17:33:24.000Z</time>
      </trkpt>
      <trkpt lat="43.75887" lon="7.14403">
        <ele>664.79998779297</ele>
        <time>2012-07-12T17:33:26.000Z</time>
      </trkpt>
      <trkpt lat="43.75897" lon="7.14385">
        <ele>658.79998779297</ele>
        <time>2012-07-12T17:33:31.000Z</time>
      </trkpt>
      <trkpt lat="43.75904" lon="7.14378">
        <ele>654.59997558594</ele>
        <time>2012-07-12T17:33:35.000Z</time>
      </trkpt>
      <trkpt lat="43.75908" lon="7.14364">
        <ele>651.79998779297</ele>
        <time>2012-07-12T17:33:39.000Z</time>
      </trkpt>
      <trkpt lat="43.75919" lon="7.14345">
        <ele>648</ele>
        <time>2012-07-12T17:33:43.000Z</time>
      </trkpt>
      <trkpt lat="43.75929" lon="7.14334">
        <ele>644.40002441406</ele>
        <time>2012-07-12T17:33:47.000Z</time>
      </trkpt>
      <trkpt lat="43.7593" lon="7.14332">
        <ele>643.20001220703</ele>
        <time>2012-07-12T17:33:49.000Z</time>
      </trkpt>
      <trkpt lat="43.75928" lon="7.1433">
        <ele>643.20001220703</ele>
        <time>2012-07-12T17:33:50.000Z</time>
      </trkpt>
      <trkpt lat="43.75918" lon="7.14324">
        <ele>642.20001220703</ele>
        <time>2012-07-12T17:33:54.000Z</time>
      </trkpt>
      <trkpt lat="43.7592" lon="7.14315">
        <ele>641.59997558594</ele>
        <time>2012-07-12T17:33:57.000Z</time>
      </trkpt>
      <trkpt lat="43.75928" lon="7.14314">
        <ele>639.79998779297</ele>
        <time>2012-07-12T17:34:00.000Z</time>
      </trkpt>
      <trkpt lat="43.75928" lon="7.14315">
        <ele>639.40002441406</ele>
        <time>2012-07-12T17:34:01.000Z</time>
      </trkpt>
      <trkpt lat="43.75928" lon="7.14315">
        <ele>638.79998779297</ele>
        <time>2012-07-12T17:34:04.000Z</time>
      </trkpt>
      <trkpt lat="43.75931" lon="7.14318">
        <ele>638.59997558594</ele>
        <time>2012-07-12T17:34:26.000Z</time>
      </trkpt>
      <trkpt lat="43.75931" lon="7.14315">
        <ele>642.40002441406</ele>
        <time>2012-07-12T17:35:35.000Z</time>
      </trkpt>
      <trkpt lat="43.75933" lon="7.14314">
        <ele>641.40002441406</ele>
        <time>2012-07-12T17:35:46.000Z</time>
      </trkpt>
      <trkpt lat="43.75931" lon="7.14318">
        <ele>642.40002441406</ele>
        <time>2012-07-12T17:35:50.000Z</time>
      </trkpt>
      <trkpt lat="43.75929" lon="7.14319">
        <ele>644.40002441406</ele>
        <time>2012-07-12T17:35:56.000Z</time>
      </trkpt>
      <trkpt lat="43.75925" lon="7.14321">
        <ele>655.79998779297</ele>
        <time>2012-07-12T17:36:16.000Z</time>
      </trkpt>
      <trkpt lat="43.75926" lon="7.14318">
        <ele>652.40002441406</ele>
        <time>2012-07-12T17:36:21.000Z</time>
      </trkpt>
      <trkpt lat="43.75927" lon="7.14314">
        <ele>645.79998779297</ele>
        <time>2012-07-12T17:36:35.000Z</time>
      </trkpt>
      <trkpt lat="43.75927" lon="7.14311">
        <ele>645</ele>
        <time>2012-07-12T17:36:42.000Z</time>
      </trkpt>
      <trkpt lat="43.75927" lon="7.14309">
        <ele>644.40002441406</ele>
        <time>2012-07-12T17:37:02.000Z</time>
      </trkpt>
      <trkpt lat="43.75929" lon="7.14309">
        <ele>642.79998779297</ele>
        <time>2012-07-12T17:37:32.000Z</time>
      </trkpt>
      <trkpt lat="43.7593" lon="7.14313">
        <ele>645</ele>
        <time>2012-07-12T17:37:48.000Z</time>
      </trkpt>
      <trkpt lat="43.7593" lon="7.14313">
        <ele>646.59997558594</ele>
        <time>2012-07-12T17:37:56.000Z</time>
      </trkpt>
      <trkpt lat="43.75929" lon="7.14312">
        <ele>647.20001220703</ele>
        <time>2012-07-12T17:38:07.000Z</time>
      </trkpt>
      <trkpt lat="43.75929" lon="7.14311">
        <ele>647.59997558594</ele>
        <time>2012-07-12T17:38:29.000Z</time>
      </trkpt>
      <trkpt lat="43.75929" lon="7.14312">
        <ele>643.59997558594</ele>
        <time>2012-07-12T17:39:19.000Z</time>
      </trkpt>
      <trkpt lat="43.75929" lon="7.14312">
        <ele>642.40002441406</ele>
        <time>2012-07-12T17:39:37.000Z</time>
      </trkpt>
      <trkpt lat="43.75932" lon="7.14318">
        <ele>639.79998779297</ele>
        <time>2012-07-12T17:40:37.000Z</time>
      </trkpt>
      <trkpt lat="43.75932" lon="7.14318">
        <ele>639.40002441406</ele>
        <time>2012-07-12T17:40:49.000Z</time>
      </trkpt>
      <trkpt lat="43.75931" lon="7.14313">
        <ele>639.59997558594</ele>
        <time>2012-07-12T17:41:11.000Z</time>
      </trkpt>
      <trkpt lat="43.75933" lon="7.14311">
        <ele>640</ele>
        <time>2012-07-12T17:41:17.000Z</time>
      </trkpt>
      <trkpt lat="43.75936" lon="7.14312">
        <ele>640.20001220703</ele>
        <time>2012-07-12T17:41:19.000Z</time>
      </trkpt>
      <trkpt lat="43.75938" lon="7.14314">
        <ele>640.20001220703</ele>
        <time>2012-07-12T17:41:21.000Z</time>
      </trkpt>
      <trkpt lat="43.75938" lon="7.14314">
        <ele>639.79998779297</ele>
        <time>2012-07-12T17:41:23.000Z</time>
      </trkpt>
      <trkpt lat="43.75947" lon="7.14318">
        <ele>639.40002441406</ele>
        <time>2012-07-12T17:41:35.000Z</time>
      </trkpt>
      <trkpt lat="43.75961" lon="7.14317">
        <ele>639.40002441406</ele>
        <time>2012-07-12T17:41:42.000Z</time>
      </trkpt>
      <trkpt lat="43.75972" lon="7.14317">
        <ele>639.79998779297</ele>
        <time>2012-07-12T17:41:49.000Z</time>
      </trkpt>
      <trkpt lat="43.75983" lon="7.14319">
        <ele>642</ele>
        <time>2012-07-12T17:41:56.000Z</time>
      </trkpt>
      <trkpt lat="43.75995" lon="7.14319">
        <ele>642.79998779297</ele>
        <time>2012-07-12T17:42:03.000Z</time>
      </trkpt>
      <trkpt lat="43.76007" lon="7.14321">
        <ele>643</ele>
        <time>2012-07-12T17:42:10.000Z</time>
      </trkpt>
      <trkpt lat="43.76019" lon="7.14322">
        <ele>642.79998779297</ele>
        <time>2012-07-12T17:42:17.000Z</time>
      </trkpt>
      <trkpt lat="43.76029" lon="7.14325">
        <ele>643.79998779297</ele>
        <time>2012-07-12T17:42:23.000Z</time>
      </trkpt>
      <trkpt lat="43.76043" lon="7.14332">
        <ele>646.59997558594</ele>
        <time>2012-07-12T17:42:31.000Z</time>
      </trkpt>
      <trkpt lat="43.76056" lon="7.14341">
        <ele>648.20001220703</ele>
        <time>2012-07-12T17:42:39.000Z</time>
      </trkpt>
      <trkpt lat="43.76072" lon="7.14351">
        <ele>650.40002441406</ele>
        <time>2012-07-12T17:42:48.000Z</time>
      </trkpt>
      <trkpt lat="43.76084" lon="7.1436">
        <ele>652</ele>
        <time>2012-07-12T17:42:56.000Z</time>
      </trkpt>
      <trkpt lat="43.76096" lon="7.14368">
        <ele>653.20001220703</ele>
        <time>2012-07-12T17:43:03.000Z</time>
      </trkpt>
      <trkpt lat="43.76107" lon="7.14379">
        <ele>654.40002441406</ele>
        <time>2012-07-12T17:43:10.000Z</time>
      </trkpt>
      <trkpt lat="43.76122" lon="7.14388">
        <ele>655.40002441406</ele>
        <time>2012-07-12T17:43:18.000Z</time>
      </trkpt>
      <trkpt lat="43.76137" lon="7.14396">
        <ele>656.20001220703</ele>
        <time>2012-07-12T17:43:26.000Z</time>
      </trkpt>
      <trkpt lat="43.76153" lon="7.14408">
        <ele>657.40002441406</ele>
        <time>2012-07-12T17:43:35.000Z</time>
      </trkpt>
      <trkpt lat="43.76156" lon="7.1441">
        <ele>657.59997558594</ele>
        <time>2012-07-12T17:43:37.000Z</time>
      </trkpt>
      <trkpt lat="43.76163" lon="7.14412">
        <ele>658.59997558594</ele>
        <time>2012-07-12T17:43:41.000Z</time>
      </trkpt>
      <trkpt lat="43.76175" lon="7.14416">
        <ele>659.20001220703</ele>
        <time>2012-07-12T17:43:47.000Z</time>
      </trkpt>
      <trkpt lat="43.76189" lon="7.14421">
        <ele>659</ele>
        <time>2012-07-12T17:43:54.000Z</time>
      </trkpt>
      <trkpt lat="43.76199" lon="7.14421">
        <ele>659</ele>
        <time>2012-07-12T17:44:00.000Z</time>
      </trkpt>
      <trkpt lat="43.76211" lon="7.14425">
        <ele>658.79998779297</ele>
        <time>2012-07-12T17:44:06.000Z</time>
      </trkpt>
      <trkpt lat="43.76225" lon="7.14431">
        <ele>659.59997558594</ele>
        <time>2012-07-12T17:44:13.000Z</time>
      </trkpt>
      <trkpt lat="43.76236" lon="7.14436">
        <ele>661</ele>
        <time>2012-07-12T17:44:19.000Z</time>
      </trkpt>
      <trkpt lat="43.7625" lon="7.14441">
        <ele>661.59997558594</ele>
        <time>2012-07-12T17:44:26.000Z</time>
      </trkpt>
      <trkpt lat="43.76264" lon="7.14443">
        <ele>661.79998779297</ele>
        <time>2012-07-12T17:44:33.000Z</time>
      </trkpt>
      <trkpt lat="43.76275" lon="7.14445">
        <ele>662</ele>
        <time>2012-07-12T17:44:39.000Z</time>
      </trkpt>
      <trkpt lat="43.76288" lon="7.14448">
        <ele>661.59997558594</ele>
        <time>2012-07-12T17:44:46.000Z</time>
      </trkpt>
      <trkpt lat="43.76299" lon="7.14452">
        <ele>663.59997558594</ele>
        <time>2012-07-12T17:44:53.000Z</time>
      </trkpt>
      <trkpt lat="43.76314" lon="7.14458">
        <ele>665.20001220703</ele>
        <time>2012-07-12T17:45:01.000Z</time>
      </trkpt>
      <trkpt lat="43.76329" lon="7.14459">
        <ele>666</ele>
        <time>2012-07-12T17:45:08.000Z</time>
      </trkpt>
      <trkpt lat="43.76348" lon="7.1446">
        <ele>665.79998779297</ele>
        <time>2012-07-12T17:45:17.000Z</time>
      </trkpt>
      <trkpt lat="43.7636" lon="7.14456">
        <ele>665</ele>
        <time>2012-07-12T17:45:23.000Z</time>
      </trkpt>
      <trkpt lat="43.76373" lon="7.14452">
        <ele>665.59997558594</ele>
        <time>2012-07-12T17:45:30.000Z</time>
      </trkpt>
      <trkpt lat="43.76385" lon="7.14455">
        <ele>668.79998779297</ele>
        <time>2012-07-12T17:45:36.000Z</time>
      </trkpt>
      <trkpt lat="43.76397" lon="7.14456">
        <ele>671</ele>
        <time>2012-07-12T17:45:42.000Z</time>
      </trkpt>
      <trkpt lat="43.7641" lon="7.14454">
        <ele>672.20001220703</ele>
        <time>2012-07-12T17:45:49.000Z</time>
      </trkpt>
      <trkpt lat="43.76425" lon="7.14454">
        <ele>672.40002441406</ele>
        <time>2012-07-12T17:45:57.000Z</time>
      </trkpt>
      <trkpt lat="43.76436" lon="7.1446">
        <ele>674.20001220703</ele>
        <time>2012-07-12T17:46:03.000Z</time>
      </trkpt>
      <trkpt lat="43.76446" lon="7.14463">
        <ele>675.79998779297</ele>
        <time>2012-07-12T17:46:09.000Z</time>
      </trkpt>
      <trkpt lat="43.76462" lon="7.14467">
        <ele>677.40002441406</ele>
        <time>2012-07-12T17:46:18.000Z</time>
      </trkpt>
      <trkpt lat="43.76474" lon="7.14468">
        <ele>678</ele>
        <time>2012-07-12T17:46:25.000Z</time>
      </trkpt>
      <trkpt lat="43.76489" lon="7.14465">
        <ele>679</ele>
        <time>2012-07-12T17:46:34.000Z</time>
      </trkpt>
      <trkpt lat="43.76499" lon="7.14465">
        <ele>679.59997558594</ele>
        <time>2012-07-12T17:46:40.000Z</time>
      </trkpt>
      <trkpt lat="43.76511" lon="7.1446">
        <ele>681.20001220703</ele>
        <time>2012-07-12T17:46:49.000Z</time>
      </trkpt>
      <trkpt lat="43.76519" lon="7.14456">
        <ele>683.40002441406</ele>
        <time>2012-07-12T17:46:55.000Z</time>
      </trkpt>
      <trkpt lat="43.76527" lon="7.1445">
        <ele>685.79998779297</ele>
        <time>2012-07-12T17:47:02.000Z</time>
      </trkpt>
      <trkpt lat="43.7654" lon="7.14445">
        <ele>688</ele>
        <time>2012-07-12T17:47:12.000Z</time>
      </trkpt>
      <trkpt lat="43.76548" lon="7.14443">
        <ele>688.79998779297</ele>
        <time>2012-07-12T17:47:18.000Z</time>
      </trkpt>
      <trkpt lat="43.76559" lon="7.14445">
        <ele>690.20001220703</ele>
        <time>2012-07-12T17:47:24.000Z</time>
      </trkpt>
      <trkpt lat="43.76569" lon="7.14444">
        <ele>690.20001220703</ele>
        <time>2012-07-12T17:47:30.000Z</time>
      </trkpt>
      <trkpt lat="43.76584" lon="7.14445">
        <ele>691</ele>
        <time>2012-07-12T17:47:39.000Z</time>
      </trkpt>
      <trkpt lat="43.76596" lon="7.14442">
        <ele>690.79998779297</ele>
        <time>2012-07-12T17:47:46.000Z</time>
      </trkpt>
      <trkpt lat="43.7661" lon="7.14439">
        <ele>691.40002441406</ele>
        <time>2012-07-12T17:47:54.000Z</time>
      </trkpt>
      <trkpt lat="43.7662" lon="7.14441">
        <ele>693.40002441406</ele>
        <time>2012-07-12T17:48:00.000Z</time>
      </trkpt>
      <trkpt lat="43.76628" lon="7.14441">
        <ele>694.79998779297</ele>
        <time>2012-07-12T17:48:06.000Z</time>
      </trkpt>
      <trkpt lat="43.7663" lon="7.14441">
        <ele>695</ele>
        <time>2012-07-12T17:48:07.000Z</time>
      </trkpt>
      <trkpt lat="43.76641" lon="7.1444">
        <ele>695.59997558594</ele>
        <time>2012-07-12T17:48:14.000Z</time>
      </trkpt>
      <trkpt lat="43.76649" lon="7.14441">
        <ele>697.79998779297</ele>
        <time>2012-07-12T17:48:21.000Z</time>
      </trkpt>
      <trkpt lat="43.76656" lon="7.14442">
        <ele>702.59997558594</ele>
        <time>2012-07-12T17:49:00.000Z</time>
      </trkpt>
      <trkpt lat="43.76657" lon="7.14443">
        <ele>706.20001220703</ele>
        <time>2012-07-12T17:49:09.000Z</time>
      </trkpt>
      <trkpt lat="43.76663" lon="7.14442">
        <ele>706.59997558594</ele>
        <time>2012-07-12T17:49:14.000Z</time>
      </trkpt>
      <trkpt lat="43.76673" lon="7.14442">
        <ele>707.20001220703</ele>
        <time>2012-07-12T17:49:21.000Z</time>
      </trkpt>
      <trkpt lat="43.76683" lon="7.14445">
        <ele>707.79998779297</ele>
        <time>2012-07-12T17:49:29.000Z</time>
      </trkpt>
      <trkpt lat="43.76694" lon="7.14448">
        <ele>708.59997558594</ele>
        <time>2012-07-12T17:49:37.000Z</time>
      </trkpt>
      <trkpt lat="43.76696" lon="7.14448">
        <ele>708.40002441406</ele>
        <time>2012-07-12T17:49:41.000Z</time>
      </trkpt>
      <trkpt lat="43.76696" lon="7.14449">
        <ele>708.59997558594</ele>
        <time>2012-07-12T17:49:42.000Z</time>
      </trkpt>
      <trkpt lat="43.76696" lon="7.14449">
        <ele>708</ele>
        <time>2012-07-12T17:49:51.000Z</time>
      </trkpt>
      <trkpt lat="43.76699" lon="7.14449">
        <ele>706.20001220703</ele>
        <time>2012-07-12T17:50:01.000Z</time>
      </trkpt>
      <trkpt lat="43.76703" lon="7.14452">
        <ele>706.40002441406</ele>
        <time>2012-07-12T17:50:05.000Z</time>
      </trkpt>
      <trkpt lat="43.76708" lon="7.14453">
        <ele>706.79998779297</ele>
        <time>2012-07-12T17:50:09.000Z</time>
      </trkpt>
      <trkpt lat="43.7671" lon="7.14453">
        <ele>707.20001220703</ele>
        <time>2012-07-12T17:50:10.000Z</time>
      </trkpt>
      <trkpt lat="43.76711" lon="7.14453">
        <ele>707.79998779297</ele>
        <time>2012-07-12T17:50:14.000Z</time>
      </trkpt>
      <trkpt lat="43.76713" lon="7.14453">
        <ele>709</ele>
        <time>2012-07-12T17:50:19.000Z</time>
      </trkpt>
      <trkpt lat="43.76714" lon="7.14453">
        <ele>710.79998779297</ele>
        <time>2012-07-12T17:50:27.000Z</time>
      </trkpt>
      <trkpt lat="43.7672" lon="7.14457">
        <ele>712.20001220703</ele>
        <time>2012-07-12T17:50:35.000Z</time>
      </trkpt>
      <trkpt lat="43.76729" lon="7.14461">
        <ele>712.59997558594</ele>
        <time>2012-07-12T17:50:43.000Z</time>
      </trkpt>
      <trkpt lat="43.76732" lon="7.14462">
        <ele>713.59997558594</ele>
        <time>2012-07-12T17:50:49.000Z</time>
      </trkpt>
      <trkpt lat="43.76739" lon="7.14466">
        <ele>714</ele>
        <time>2012-07-12T17:50:54.000Z</time>
      </trkpt>
      <trkpt lat="43.76751" lon="7.14473">
        <ele>714.59997558594</ele>
        <time>2012-07-12T17:51:02.000Z</time>
      </trkpt>
      <trkpt lat="43.76752" lon="7.14474">
        <ele>714.59997558594</ele>
        <time>2012-07-12T17:51:03.000Z</time>
      </trkpt>
      <trkpt lat="43.76758" lon="7.14469">
        <ele>714.20001220703</ele>
        <time>2012-07-12T17:51:07.000Z</time>
      </trkpt>
      <trkpt lat="43.76759" lon="7.14467">
        <ele>714.79998779297</ele>
        <time>2012-07-12T17:51:08.000Z</time>
      </trkpt>
      <trkpt lat="43.76764" lon="7.14464">
        <ele>716</ele>
        <time>2012-07-12T17:51:11.000Z</time>
      </trkpt>
      <trkpt lat="43.76766" lon="7.14465">
        <ele>716.59997558594</ele>
        <time>2012-07-12T17:51:13.000Z</time>
      </trkpt>
      <trkpt lat="43.76774" lon="7.1447">
        <ele>717</ele>
        <time>2012-07-12T17:51:19.000Z</time>
      </trkpt>
      <trkpt lat="43.76784" lon="7.14475">
        <ele>717.79998779297</ele>
        <time>2012-07-12T17:51:26.000Z</time>
      </trkpt>
      <trkpt lat="43.76795" lon="7.14478">
        <ele>719</ele>
        <time>2012-07-12T17:51:33.000Z</time>
      </trkpt>
      <trkpt lat="43.76806" lon="7.14481">
        <ele>720.59997558594</ele>
        <time>2012-07-12T17:51:41.000Z</time>
      </trkpt>
      <trkpt lat="43.76816" lon="7.14482">
        <ele>722</ele>
        <time>2012-07-12T17:51:49.000Z</time>
      </trkpt>
      <trkpt lat="43.76826" lon="7.14482">
        <ele>723.20001220703</ele>
        <time>2012-07-12T17:51:56.000Z</time>
      </trkpt>
      <trkpt lat="43.76833" lon="7.14485">
        <ele>724.40002441406</ele>
        <time>2012-07-12T17:52:02.000Z</time>
      </trkpt>
      <trkpt lat="43.76843" lon="7.14486">
        <ele>725.59997558594</ele>
        <time>2012-07-12T17:52:09.000Z</time>
      </trkpt>
      <trkpt lat="43.76857" lon="7.14486">
        <ele>726.20001220703</ele>
        <time>2012-07-12T17:52:18.000Z</time>
      </trkpt>
      <trkpt lat="43.76864" lon="7.14488">
        <ele>727.59997558594</ele>
        <time>2012-07-12T17:52:23.000Z</time>
      </trkpt>
      <trkpt lat="43.76874" lon="7.14491">
        <ele>729.20001220703</ele>
        <time>2012-07-12T17:52:30.000Z</time>
      </trkpt>
      <trkpt lat="43.76885" lon="7.14492">
        <ele>730.40002441406</ele>
        <time>2012-07-12T17:52:37.000Z</time>
      </trkpt>
      <trkpt lat="43.76897" lon="7.14491">
        <ele>730.59997558594</ele>
        <time>2012-07-12T17:52:44.000Z</time>
      </trkpt>
      <trkpt lat="43.76912" lon="7.14489">
        <ele>731.59997558594</ele>
        <time>2012-07-12T17:52:52.000Z</time>
      </trkpt>
      <trkpt lat="43.76924" lon="7.14488">
        <ele>731.79998779297</ele>
        <time>2012-07-12T17:52:58.000Z</time>
      </trkpt>
      <trkpt lat="43.7694" lon="7.14484">
        <ele>733</ele>
        <time>2012-07-12T17:53:07.000Z</time>
      </trkpt>
      <trkpt lat="43.76953" lon="7.14479">
        <ele>734.40002441406</ele>
        <time>2012-07-12T17:53:15.000Z</time>
      </trkpt>
      <trkpt lat="43.76962" lon="7.14479">
        <ele>734.59997558594</ele>
        <time>2012-07-12T17:53:21.000Z</time>
      </trkpt>
      <trkpt lat="43.7697" lon="7.14478">
        <ele>734.40002441406</ele>
        <time>2012-07-12T17:53:30.000Z</time>
      </trkpt>
      <trkpt lat="43.7697" lon="7.14476">
        <ele>739.79998779297</ele>
        <time>2012-07-12T17:53:54.000Z</time>
      </trkpt>
      <trkpt lat="43.76979" lon="7.14477">
        <ele>737.79998779297</ele>
        <time>2012-07-12T17:55:05.000Z</time>
      </trkpt>
      <trkpt lat="43.76989" lon="7.14475">
        <ele>737.79998779297</ele>
        <time>2012-07-12T17:55:11.000Z</time>
      </trkpt>
      <trkpt lat="43.77" lon="7.1447">
        <ele>738</ele>
        <time>2012-07-12T17:55:18.000Z</time>
      </trkpt>
      <trkpt lat="43.7701" lon="7.14467">
        <ele>739.40002441406</ele>
        <time>2012-07-12T17:55:24.000Z</time>
      </trkpt>
      <trkpt lat="43.77022" lon="7.14461">
        <ele>740.79998779297</ele>
        <time>2012-07-12T17:55:31.000Z</time>
      </trkpt>
      <trkpt lat="43.77031" lon="7.14453">
        <ele>742.20001220703</ele>
        <time>2012-07-12T17:55:38.000Z</time>
      </trkpt>
      <trkpt lat="43.77041" lon="7.14445">
        <ele>743.20001220703</ele>
        <time>2012-07-12T17:55:44.000Z</time>
      </trkpt>
      <trkpt lat="43.77054" lon="7.14434">
        <ele>745</ele>
        <time>2012-07-12T17:55:52.000Z</time>
      </trkpt>
      <trkpt lat="43.77067" lon="7.14422">
        <ele>745.59997558594</ele>
        <time>2012-07-12T17:56:01.000Z</time>
      </trkpt>
      <trkpt lat="43.77079" lon="7.14412">
        <ele>745.59997558594</ele>
        <time>2012-07-12T17:56:08.000Z</time>
      </trkpt>
      <trkpt lat="43.77095" lon="7.14403">
        <ele>746.20001220703</ele>
        <time>2012-07-12T17:56:17.000Z</time>
      </trkpt>
      <trkpt lat="43.77099" lon="7.14396">
        <ele>746.59997558594</ele>
        <time>2012-07-12T17:56:21.000Z</time>
      </trkpt>
      <trkpt lat="43.77108" lon="7.14388">
        <ele>747</ele>
        <time>2012-07-12T17:56:27.000Z</time>
      </trkpt>
      <trkpt lat="43.77123" lon="7.14369">
        <ele>749</ele>
        <time>2012-07-12T17:56:36.000Z</time>
      </trkpt>
      <trkpt lat="43.77145" lon="7.14342">
        <ele>751.40002441406</ele>
        <time>2012-07-12T17:56:48.000Z</time>
      </trkpt>
      <trkpt lat="43.77161" lon="7.14323">
        <ele>753.79998779297</ele>
        <time>2012-07-12T17:56:57.000Z</time>
      </trkpt>
      <trkpt lat="43.77174" lon="7.14304">
        <ele>754.20001220703</ele>
        <time>2012-07-12T17:57:05.000Z</time>
      </trkpt>
      <trkpt lat="43.77195" lon="7.14275">
        <ele>755.40002441406</ele>
        <time>2012-07-12T17:57:17.000Z</time>
      </trkpt>
      <trkpt lat="43.77207" lon="7.14266">
        <ele>755.79998779297</ele>
        <time>2012-07-12T17:57:23.000Z</time>
      </trkpt>
      <trkpt lat="43.7722" lon="7.14251">
        <ele>756.20001220703</ele>
        <time>2012-07-12T17:57:30.000Z</time>
      </trkpt>
      <trkpt lat="43.77232" lon="7.14241">
        <ele>757.20001220703</ele>
        <time>2012-07-12T17:57:36.000Z</time>
      </trkpt>
      <trkpt lat="43.77248" lon="7.14222">
        <ele>758</ele>
        <time>2012-07-12T17:57:45.000Z</time>
      </trkpt>
      <trkpt lat="43.77253" lon="7.14205">
        <ele>757.79998779297</ele>
        <time>2012-07-12T17:57:51.000Z</time>
      </trkpt>
      <trkpt lat="43.7725" lon="7.1419">
        <ele>758.40002441406</ele>
        <time>2012-07-12T17:57:56.000Z</time>
      </trkpt>
      <trkpt lat="43.77251" lon="7.14172">
        <ele>759.59997558594</ele>
        <time>2012-07-12T17:58:02.000Z</time>
      </trkpt>
      <trkpt lat="43.77262" lon="7.14161">
        <ele>761.20001220703</ele>
        <time>2012-07-12T17:58:08.000Z</time>
      </trkpt>
      <trkpt lat="43.77275" lon="7.14142">
        <ele>762.40002441406</ele>
        <time>2012-07-12T17:58:16.000Z</time>
      </trkpt>
      <trkpt lat="43.77285" lon="7.14121">
        <ele>764.40002441406</ele>
        <time>2012-07-12T17:58:25.000Z</time>
      </trkpt>
      <trkpt lat="43.77293" lon="7.14106">
        <ele>765.59997558594</ele>
        <time>2012-07-12T17:58:32.000Z</time>
      </trkpt>
      <trkpt lat="43.773" lon="7.14087">
        <ele>767.40002441406</ele>
        <time>2012-07-12T17:58:40.000Z</time>
      </trkpt>
      <trkpt lat="43.7731" lon="7.14077">
        <ele>769.40002441406</ele>
        <time>2012-07-12T17:58:47.000Z</time>
      </trkpt>
      <trkpt lat="43.77317" lon="7.14068">
        <ele>770.40002441406</ele>
        <time>2012-07-12T17:58:53.000Z</time>
      </trkpt>
      <trkpt lat="43.77332" lon="7.14056">
        <ele>771.59997558594</ele>
        <time>2012-07-12T17:59:02.000Z</time>
      </trkpt>
      <trkpt lat="43.77346" lon="7.1405">
        <ele>773</ele>
        <time>2012-07-12T17:59:10.000Z</time>
      </trkpt>
      <trkpt lat="43.77356" lon="7.14048">
        <ele>774.40002441406</ele>
        <time>2012-07-12T17:59:16.000Z</time>
      </trkpt>
      <trkpt lat="43.77365" lon="7.14043">
        <ele>776.20001220703</ele>
        <time>2012-07-12T17:59:24.000Z</time>
      </trkpt>
      <trkpt lat="43.77372" lon="7.14038">
        <ele>777</ele>
        <time>2012-07-12T17:59:30.000Z</time>
      </trkpt>
      <trkpt lat="43.77375" lon="7.14026">
        <ele>777.20001220703</ele>
        <time>2012-07-12T17:59:36.000Z</time>
      </trkpt>
      <trkpt lat="43.77383" lon="7.14014">
        <ele>778</ele>
        <time>2012-07-12T17:59:42.000Z</time>
      </trkpt>
      <trkpt lat="43.77395" lon="7.14013">
        <ele>780.20001220703</ele>
        <time>2012-07-12T17:59:49.000Z</time>
      </trkpt>
      <trkpt lat="43.7741" lon="7.14014">
        <ele>780.40002441406</ele>
        <time>2012-07-12T17:59:58.000Z</time>
      </trkpt>
      <trkpt lat="43.7742" lon="7.14007">
        <ele>781.20001220703</ele>
        <time>2012-07-12T18:00:04.000Z</time>
      </trkpt>
      <trkpt lat="43.77434" lon="7.13998">
        <ele>781.20001220703</ele>
        <time>2012-07-12T18:00:12.000Z</time>
      </trkpt>
      <trkpt lat="43.77444" lon="7.13987">
        <ele>781.79998779297</ele>
        <time>2012-07-12T18:00:19.000Z</time>
      </trkpt>
      <trkpt lat="43.77447" lon="7.13972">
        <ele>782</ele>
        <time>2012-07-12T18:00:26.000Z</time>
      </trkpt>
      <trkpt lat="43.77449" lon="7.1397">
        <ele>782.59997558594</ele>
        <time>2012-07-12T18:00:30.000Z</time>
      </trkpt>
      <trkpt lat="43.77452" lon="7.13963">
        <ele>784.40002441406</ele>
        <time>2012-07-12T18:00:48.000Z</time>
      </trkpt>
      <trkpt lat="43.77456" lon="7.1395">
        <ele>784.59997558594</ele>
        <time>2012-07-12T18:00:55.000Z</time>
      </trkpt>
      <trkpt lat="43.77456" lon="7.13948">
        <ele>784.79998779297</ele>
        <time>2012-07-12T18:00:56.000Z</time>
      </trkpt>
      <trkpt lat="43.77459" lon="7.13946">
        <ele>785.79998779297</ele>
        <time>2012-07-12T18:00:59.000Z</time>
      </trkpt>
      <trkpt lat="43.77461" lon="7.13947">
        <ele>786</ele>
        <time>2012-07-12T18:01:00.000Z</time>
      </trkpt>
      <trkpt lat="43.77468" lon="7.13955">
        <ele>787</ele>
        <time>2012-07-12T18:01:06.000Z</time>
      </trkpt>
      <trkpt lat="43.77468" lon="7.13962">
        <ele>788.59997558594</ele>
        <time>2012-07-12T18:01:10.000Z</time>
      </trkpt>
      <trkpt lat="43.77467" lon="7.13964">
        <ele>788.79998779297</ele>
        <time>2012-07-12T18:01:11.000Z</time>
      </trkpt>
      <trkpt lat="43.77469" lon="7.13972">
        <ele>790.40002441406</ele>
        <time>2012-07-12T18:01:15.000Z</time>
      </trkpt>
      <trkpt lat="43.77472" lon="7.13974">
        <ele>791</ele>
        <time>2012-07-12T18:01:17.000Z</time>
      </trkpt>
      <trkpt lat="43.77473" lon="7.13974">
        <ele>790.79998779297</ele>
        <time>2012-07-12T18:01:18.000Z</time>
      </trkpt>
      <trkpt lat="43.77476" lon="7.13974">
        <ele>789.79998779297</ele>
        <time>2012-07-12T18:01:20.000Z</time>
      </trkpt>
      <trkpt lat="43.77483" lon="7.13964">
        <ele>789.79998779297</ele>
        <time>2012-07-12T18:01:26.000Z</time>
      </trkpt>
      <trkpt lat="43.7749" lon="7.13948">
        <ele>791.20001220703</ele>
        <time>2012-07-12T18:01:34.000Z</time>
      </trkpt>
      <trkpt lat="43.77499" lon="7.13933">
        <ele>793.40002441406</ele>
        <time>2012-07-12T18:01:43.000Z</time>
      </trkpt>
      <trkpt lat="43.77506" lon="7.1392">
        <ele>794</ele>
        <time>2012-07-12T18:01:51.000Z</time>
      </trkpt>
      <trkpt lat="43.77509" lon="7.13909">
        <ele>795.20001220703</ele>
        <time>2012-07-12T18:01:57.000Z</time>
      </trkpt>
      <trkpt lat="43.77512" lon="7.13897">
        <ele>798.20001220703</ele>
        <time>2012-07-12T18:02:04.000Z</time>
      </trkpt>
      <trkpt lat="43.77514" lon="7.13892">
        <ele>798.79998779297</ele>
        <time>2012-07-12T18:02:08.000Z</time>
      </trkpt>
      <trkpt lat="43.77514" lon="7.13892">
        <ele>798.40002441406</ele>
        <time>2012-07-12T18:02:10.000Z</time>
      </trkpt>
      <trkpt lat="43.77518" lon="7.13884">
        <ele>801.40002441406</ele>
        <time>2012-07-12T18:02:17.000Z</time>
      </trkpt>
      <trkpt lat="43.77519" lon="7.13879">
        <ele>802.40002441406</ele>
        <time>2012-07-12T18:02:22.000Z</time>
      </trkpt>
      <trkpt lat="43.7752" lon="7.13879">
        <ele>802.40002441406</ele>
        <time>2012-07-12T18:02:23.000Z</time>
      </trkpt>
      <trkpt lat="43.77522" lon="7.13872">
        <ele>801.79998779297</ele>
        <time>2012-07-12T18:02:30.000Z</time>
      </trkpt>
      <trkpt lat="43.77522" lon="7.1387">
        <ele>801.59997558594</ele>
        <time>2012-07-12T18:02:31.000Z</time>
      </trkpt>
      <trkpt lat="43.77524" lon="7.13868">
        <ele>800</ele>
        <time>2012-07-12T18:02:35.000Z</time>
      </trkpt>
      <trkpt lat="43.77527" lon="7.13864">
        <ele>798.20001220703</ele>
        <time>2012-07-12T18:02:45.000Z</time>
      </trkpt>
      <trkpt lat="43.77526" lon="7.1386">
        <ele>797.59997558594</ele>
        <time>2012-07-12T18:02:47.000Z</time>
      </trkpt>
      <trkpt lat="43.77526" lon="7.13856">
        <ele>797.40002441406</ele>
        <time>2012-07-12T18:02:49.000Z</time>
      </trkpt>
      <trkpt lat="43.77525" lon="7.13845">
        <ele>797.20001220703</ele>
        <time>2012-07-12T18:02:54.000Z</time>
      </trkpt>
      <trkpt lat="43.77521" lon="7.13835">
        <ele>799.20001220703</ele>
        <time>2012-07-12T18:02:59.000Z</time>
      </trkpt>
      <trkpt lat="43.77518" lon="7.13833">
        <ele>799.79998779297</ele>
        <time>2012-07-12T18:03:01.000Z</time>
      </trkpt>
      <trkpt lat="43.77512" lon="7.13829">
        <ele>801.79998779297</ele>
        <time>2012-07-12T18:03:05.000Z</time>
      </trkpt>
      <trkpt lat="43.77509" lon="7.13827">
        <ele>802.59997558594</ele>
        <time>2012-07-12T18:03:07.000Z</time>
      </trkpt>
      <trkpt lat="43.77508" lon="7.13828">
        <ele>803.20001220703</ele>
        <time>2012-07-12T18:03:08.000Z</time>
      </trkpt>
      <trkpt lat="43.77502" lon="7.13828">
        <ele>804.40002441406</ele>
        <time>2012-07-12T18:03:12.000Z</time>
      </trkpt>
      <trkpt lat="43.77489" lon="7.13827">
        <ele>806</ele>
        <time>2012-07-12T18:03:21.000Z</time>
      </trkpt>
      <trkpt lat="43.77477" lon="7.13826">
        <ele>809</ele>
        <time>2012-07-12T18:03:28.000Z</time>
      </trkpt>
      <trkpt lat="43.77466" lon="7.13825">
        <ele>811.79998779297</ele>
        <time>2012-07-12T18:03:36.000Z</time>
      </trkpt>
      <trkpt lat="43.77452" lon="7.13825">
        <ele>814.79998779297</ele>
        <time>2012-07-12T18:03:45.000Z</time>
      </trkpt>
      <trkpt lat="43.77441" lon="7.13823">
        <ele>816.59997558594</ele>
        <time>2012-07-12T18:03:53.000Z</time>
      </trkpt>
      <trkpt lat="43.7743" lon="7.1382">
        <ele>819</ele>
        <time>2012-07-12T18:04:01.000Z</time>
      </trkpt>
      <trkpt lat="43.77418" lon="7.1382">
        <ele>822.40002441406</ele>
        <time>2012-07-12T18:04:09.000Z</time>
      </trkpt>
      <trkpt lat="43.77406" lon="7.13817">
        <ele>825.79998779297</ele>
        <time>2012-07-12T18:04:17.000Z</time>
      </trkpt>
      <trkpt lat="43.77398" lon="7.13814">
        <ele>827.59997558594</ele>
        <time>2012-07-12T18:04:23.000Z</time>
      </trkpt>
      <trkpt lat="43.77387" lon="7.13813">
        <ele>828.79998779297</ele>
        <time>2012-07-12T18:04:31.000Z</time>
      </trkpt>
      <trkpt lat="43.77378" lon="7.13814">
        <ele>828.20001220703</ele>
        <time>2012-07-12T18:04:38.000Z</time>
      </trkpt>
      <trkpt lat="43.77367" lon="7.13812">
        <ele>829</ele>
        <time>2012-07-12T18:04:46.000Z</time>
      </trkpt>
      <trkpt lat="43.77359" lon="7.13809">
        <ele>830.20001220703</ele>
        <time>2012-07-12T18:04:52.000Z</time>
      </trkpt>
      <trkpt lat="43.77353" lon="7.13812">
        <ele>830.20001220703</ele>
        <time>2012-07-12T18:04:58.000Z</time>
      </trkpt>
      <trkpt lat="43.77344" lon="7.13814">
        <ele>830</ele>
        <time>2012-07-12T18:05:03.000Z</time>
      </trkpt>
      <trkpt lat="43.77327" lon="7.13809">
        <ele>830.40002441406</ele>
        <time>2012-07-12T18:05:12.000Z</time>
      </trkpt>
      <trkpt lat="43.77313" lon="7.13806">
        <ele>830</ele>
        <time>2012-07-12T18:05:19.000Z</time>
      </trkpt>
      <trkpt lat="43.77311" lon="7.13804">
        <ele>830</ele>
        <time>2012-07-12T18:05:21.000Z</time>
      </trkpt>
      <trkpt lat="43.77305" lon="7.13799">
        <ele>829.59997558594</ele>
        <time>2012-07-12T18:05:25.000Z</time>
      </trkpt>
      <trkpt lat="43.77295" lon="7.13791">
        <ele>829.20001220703</ele>
        <time>2012-07-12T18:05:33.000Z</time>
      </trkpt>
      <trkpt lat="43.7729" lon="7.13788">
        <ele>829</ele>
        <time>2012-07-12T18:05:37.000Z</time>
      </trkpt>
      <trkpt lat="43.77288" lon="7.13789">
        <ele>829</ele>
        <time>2012-07-12T18:05:40.000Z</time>
      </trkpt>
      <trkpt lat="43.77291" lon="7.13789">
        <ele>829.40002441406</ele>
        <time>2012-07-12T18:05:43.000Z</time>
      </trkpt>
      <trkpt lat="43.77292" lon="7.13789">
        <ele>829.20001220703</ele>
        <time>2012-07-12T18:05:44.000Z</time>
      </trkpt>
      <trkpt lat="43.77293" lon="7.13788">
        <ele>829.20001220703</ele>
        <time>2012-07-12T18:05:45.000Z</time>
      </trkpt>
      <trkpt lat="43.77294" lon="7.13785">
        <ele>829.20001220703</ele>
        <time>2012-07-12T18:05:50.000Z</time>
      </trkpt>
      <trkpt lat="43.77292" lon="7.13784">
        <ele>830</ele>
        <time>2012-07-12T18:06:10.000Z</time>
      </trkpt>
      <trkpt lat="43.77285" lon="7.13781">
        <ele>830.20001220703</ele>
        <time>2012-07-12T18:06:15.000Z</time>
      </trkpt>
      <trkpt lat="43.77283" lon="7.13781">
        <ele>830</ele>
        <time>2012-07-12T18:06:17.000Z</time>
      </trkpt>
      <trkpt lat="43.77284" lon="7.13782">
        <ele>830.20001220703</ele>
        <time>2012-07-12T18:06:19.000Z</time>
      </trkpt>
      <trkpt lat="43.7729" lon="7.13787">
        <ele>830.40002441406</ele>
        <time>2012-07-12T18:06:24.000Z</time>
      </trkpt>
      <trkpt lat="43.77294" lon="7.13788">
        <ele>830.40002441406</ele>
        <time>2012-07-12T18:06:29.000Z</time>
      </trkpt>
      <trkpt lat="43.77301" lon="7.13794">
        <ele>832</ele>
        <time>2012-07-12T18:07:36.000Z</time>
      </trkpt>
      <trkpt lat="43.77315" lon="7.13806">
        <ele>830.79998779297</ele>
        <time>2012-07-12T18:07:44.000Z</time>
      </trkpt>
      <trkpt lat="43.77331" lon="7.13809">
        <ele>830.79998779297</ele>
        <time>2012-07-12T18:07:51.000Z</time>
      </trkpt>
      <trkpt lat="43.77343" lon="7.13812">
        <ele>830.59997558594</ele>
        <time>2012-07-12T18:07:57.000Z</time>
      </trkpt>
      <trkpt lat="43.77344" lon="7.13812">
        <ele>830.59997558594</ele>
        <time>2012-07-12T18:08:01.000Z</time>
      </trkpt>
      <trkpt lat="43.7735" lon="7.13811">
        <ele>830</ele>
        <time>2012-07-12T18:08:07.000Z</time>
      </trkpt>
      <trkpt lat="43.7736" lon="7.13808">
        <ele>830.20001220703</ele>
        <time>2012-07-12T18:08:12.000Z</time>
      </trkpt>
      <trkpt lat="43.77374" lon="7.13813">
        <ele>828.59997558594</ele>
        <time>2012-07-12T18:08:16.000Z</time>
      </trkpt>
      <trkpt lat="43.77398" lon="7.13813">
        <ele>826.20001220703</ele>
        <time>2012-07-12T18:08:21.000Z</time>
      </trkpt>
      <trkpt lat="43.77424" lon="7.13819">
        <ele>821.79998779297</ele>
        <time>2012-07-12T18:08:26.000Z</time>
      </trkpt>
      <trkpt lat="43.77459" lon="7.13824">
        <ele>815.79998779297</ele>
        <time>2012-07-12T18:08:32.000Z</time>
      </trkpt>
      <trkpt lat="43.77493" lon="7.13826">
        <ele>810.59997558594</ele>
        <time>2012-07-12T18:08:37.000Z</time>
      </trkpt>
      <trkpt lat="43.77511" lon="7.13828">
        <ele>808</ele>
        <time>2012-07-12T18:08:40.000Z</time>
      </trkpt>
      <trkpt lat="43.77524" lon="7.13835">
        <ele>806.20001220703</ele>
        <time>2012-07-12T18:08:43.000Z</time>
      </trkpt>
      <trkpt lat="43.77525" lon="7.1384">
        <ele>805.59997558594</ele>
        <time>2012-07-12T18:08:44.000Z</time>
      </trkpt>
      <trkpt lat="43.77524" lon="7.13858">
        <ele>803.59997558594</ele>
        <time>2012-07-12T18:08:48.000Z</time>
      </trkpt>
      <trkpt lat="43.77524" lon="7.1387">
        <ele>803.40002441406</ele>
        <time>2012-07-12T18:08:52.000Z</time>
      </trkpt>
      <trkpt lat="43.77525" lon="7.13879">
        <ele>804.79998779297</ele>
        <time>2012-07-12T18:08:56.000Z</time>
      </trkpt>
      <trkpt lat="43.77526" lon="7.1388">
        <ele>805</ele>
        <time>2012-07-12T18:08:57.000Z</time>
      </trkpt>
      <trkpt lat="43.77527" lon="7.13881">
        <ele>805.20001220703</ele>
        <time>2012-07-12T18:08:58.000Z</time>
      </trkpt>
      <trkpt lat="43.77529" lon="7.13881">
        <ele>806.40002441406</ele>
        <time>2012-07-12T18:09:03.000Z</time>
      </trkpt>
      <trkpt lat="43.77531" lon="7.13876">
        <ele>808.40002441406</ele>
        <time>2012-07-12T18:09:08.000Z</time>
      </trkpt>
      <trkpt lat="43.77533" lon="7.13869">
        <ele>809.79998779297</ele>
        <time>2012-07-12T18:09:13.000Z</time>
      </trkpt>
      <trkpt lat="43.77538" lon="7.13861">
        <ele>812</ele>
        <time>2012-07-12T18:09:20.000Z</time>
      </trkpt>
      <trkpt lat="43.77538" lon="7.1386">
        <ele>812.20001220703</ele>
        <time>2012-07-12T18:09:21.000Z</time>
      </trkpt>
      <trkpt lat="43.77541" lon="7.13857">
        <ele>813.40002441406</ele>
        <time>2012-07-12T18:09:25.000Z</time>
      </trkpt>
      <trkpt lat="43.77542" lon="7.13856">
        <ele>813.79998779297</ele>
        <time>2012-07-12T18:09:26.000Z</time>
      </trkpt>
      <trkpt lat="43.7755" lon="7.13851">
        <ele>815.79998779297</ele>
        <time>2012-07-12T18:09:35.000Z</time>
      </trkpt>
      <trkpt lat="43.77555" lon="7.13846">
        <ele>816.79998779297</ele>
        <time>2012-07-12T18:09:41.000Z</time>
      </trkpt>
      <trkpt lat="43.7756" lon="7.13843">
        <ele>817</ele>
        <time>2012-07-12T18:09:47.000Z</time>
      </trkpt>
      <trkpt lat="43.77561" lon="7.13841">
        <ele>816.59997558594</ele>
        <time>2012-07-12T18:09:49.000Z</time>
      </trkpt>
      <trkpt lat="43.77567" lon="7.13837">
        <ele>817.40002441406</ele>
        <time>2012-07-12T18:09:56.000Z</time>
      </trkpt>
      <trkpt lat="43.77572" lon="7.13836">
        <ele>819.40002441406</ele>
        <time>2012-07-12T18:10:02.000Z</time>
      </trkpt>
      <trkpt lat="43.77575" lon="7.13835">
        <ele>819.40002441406</ele>
        <time>2012-07-12T18:10:05.000Z</time>
      </trkpt>
      <trkpt lat="43.77576" lon="7.13833">
        <ele>819.40002441406</ele>
        <time>2012-07-12T18:10:12.000Z</time>
      </trkpt>
      <trkpt lat="43.77579" lon="7.13827">
        <ele>820.20001220703</ele>
        <time>2012-07-12T18:11:15.000Z</time>
      </trkpt>
      <trkpt lat="43.77581" lon="7.13817">
        <ele>818.59997558594</ele>
        <time>2012-07-12T18:11:21.000Z</time>
      </trkpt>
      <trkpt lat="43.77578" lon="7.13804">
        <ele>818.59997558594</ele>
        <time>2012-07-12T18:11:27.000Z</time>
      </trkpt>
      <trkpt lat="43.77575" lon="7.138">
        <ele>819.59997558594</ele>
        <time>2012-07-12T18:11:30.000Z</time>
      </trkpt>
      <trkpt lat="43.77572" lon="7.13797">
        <ele>820.59997558594</ele>
        <time>2012-07-12T18:11:32.000Z</time>
      </trkpt>
      <trkpt lat="43.77572" lon="7.13788">
        <ele>822.40002441406</ele>
        <time>2012-07-12T18:11:37.000Z</time>
      </trkpt>
      <trkpt lat="43.77572" lon="7.13788">
        <ele>823</ele>
        <time>2012-07-12T18:11:38.000Z</time>
      </trkpt>
      <trkpt lat="43.77572" lon="7.13787">
        <ele>823</ele>
        <time>2012-07-12T18:11:39.000Z</time>
      </trkpt>
      <trkpt lat="43.77572" lon="7.13785">
        <ele>823.79998779297</ele>
        <time>2012-07-12T18:11:41.000Z</time>
      </trkpt>
      <trkpt lat="43.77571" lon="7.13774">
        <ele>826.40002441406</ele>
        <time>2012-07-12T18:11:51.000Z</time>
      </trkpt>
      <trkpt lat="43.77575" lon="7.13762">
        <ele>826.40002441406</ele>
        <time>2012-07-12T18:11:57.000Z</time>
      </trkpt>
      <trkpt lat="43.77577" lon="7.13757">
        <ele>826</ele>
        <time>2012-07-12T18:12:02.000Z</time>
      </trkpt>
      <trkpt lat="43.77575" lon="7.13752">
        <ele>827.79998779297</ele>
        <time>2012-07-12T18:12:08.000Z</time>
      </trkpt>
      <trkpt lat="43.77572" lon="7.13748">
        <ele>830.20001220703</ele>
        <time>2012-07-12T18:12:13.000Z</time>
      </trkpt>
      <trkpt lat="43.77573" lon="7.13748">
        <ele>830.40002441406</ele>
        <time>2012-07-12T18:12:14.000Z</time>
      </trkpt>
      <trkpt lat="43.77576" lon="7.13747">
        <ele>831.79998779297</ele>
        <time>2012-07-12T18:12:17.000Z</time>
      </trkpt>
      <trkpt lat="43.7758" lon="7.13743">
        <ele>832.20001220703</ele>
        <time>2012-07-12T18:12:22.000Z</time>
      </trkpt>
      <trkpt lat="43.77583" lon="7.1374">
        <ele>832.20001220703</ele>
        <time>2012-07-12T18:12:27.000Z</time>
      </trkpt>
      <trkpt lat="43.77582" lon="7.13739">
        <ele>831.79998779297</ele>
        <time>2012-07-12T18:12:28.000Z</time>
      </trkpt>
      <trkpt lat="43.77577" lon="7.13733">
        <ele>832.20001220703</ele>
        <time>2012-07-12T18:12:36.000Z</time>
      </trkpt>
      <trkpt lat="43.77576" lon="7.13731">
        <ele>832.59997558594</ele>
        <time>2012-07-12T18:12:38.000Z</time>
      </trkpt>
      <trkpt lat="43.77576" lon="7.13727">
        <ele>833.59997558594</ele>
        <time>2012-07-12T18:12:42.000Z</time>
      </trkpt>
      <trkpt lat="43.77573" lon="7.13721">
        <ele>833.79998779297</ele>
        <time>2012-07-12T18:12:51.000Z</time>
      </trkpt>
      <trkpt lat="43.77573" lon="7.1372">
        <ele>833.79998779297</ele>
        <time>2012-07-12T18:12:52.000Z</time>
      </trkpt>
      <trkpt lat="43.77574" lon="7.13717">
        <ele>833.59997558594</ele>
        <time>2012-07-12T18:12:57.000Z</time>
      </trkpt>
      <trkpt lat="43.77576" lon="7.13711">
        <ele>832.79998779297</ele>
        <time>2012-07-12T18:13:02.000Z</time>
      </trkpt>
      <trkpt lat="43.77577" lon="7.1371">
        <ele>832.79998779297</ele>
        <time>2012-07-12T18:13:03.000Z</time>
      </trkpt>
      <trkpt lat="43.77576" lon="7.13701">
        <ele>832.59997558594</ele>
        <time>2012-07-12T18:13:08.000Z</time>
      </trkpt>
      <trkpt lat="43.77576" lon="7.13699">
        <ele>833</ele>
        <time>2012-07-12T18:13:09.000Z</time>
      </trkpt>
      <trkpt lat="43.7758" lon="7.13692">
        <ele>833.40002441406</ele>
        <time>2012-07-12T18:13:12.000Z</time>
      </trkpt>
      <trkpt lat="43.77581" lon="7.13679">
        <ele>835.20001220703</ele>
        <time>2012-07-12T18:13:17.000Z</time>
      </trkpt>
      <trkpt lat="43.77582" lon="7.13677">
        <ele>835.40002441406</ele>
        <time>2012-07-12T18:13:18.000Z</time>
      </trkpt>
      <trkpt lat="43.77583" lon="7.1367">
        <ele>836.59997558594</ele>
        <time>2012-07-12T18:13:22.000Z</time>
      </trkpt>
      <trkpt lat="43.7758" lon="7.13666">
        <ele>838.40002441406</ele>
        <time>2012-07-12T18:13:28.000Z</time>
      </trkpt>
      <trkpt lat="43.77579" lon="7.13663">
        <ele>838.79998779297</ele>
        <time>2012-07-12T18:13:31.000Z</time>
      </trkpt>
      <trkpt lat="43.77578" lon="7.13661">
        <ele>839.59997558594</ele>
        <time>2012-07-12T18:13:32.000Z</time>
      </trkpt>
      <trkpt lat="43.77581" lon="7.1366">
        <ele>837.79998779297</ele>
        <time>2012-07-12T18:13:38.000Z</time>
      </trkpt>
      <trkpt lat="43.77574" lon="7.13658">
        <ele>837.59997558594</ele>
        <time>2012-07-12T18:15:24.000Z</time>
      </trkpt>
      <trkpt lat="43.77576" lon="7.13644">
        <ele>837.40002441406</ele>
        <time>2012-07-12T18:17:52.000Z</time>
      </trkpt>
      <trkpt lat="43.77575" lon="7.1363">
        <ele>836.20001220703</ele>
        <time>2012-07-12T18:17:56.000Z</time>
      </trkpt>
      <trkpt lat="43.77569" lon="7.13622">
        <ele>835.79998779297</ele>
        <time>2012-07-12T18:18:00.000Z</time>
      </trkpt>
      <trkpt lat="43.77569" lon="7.13615">
        <ele>836.20001220703</ele>
        <time>2012-07-12T18:18:03.000Z</time>
      </trkpt>
      <trkpt lat="43.7757" lon="7.13613">
        <ele>837.40002441406</ele>
        <time>2012-07-12T18:18:04.000Z</time>
      </trkpt>
      <trkpt lat="43.77571" lon="7.13612">
        <ele>840</ele>
        <time>2012-07-12T18:18:08.000Z</time>
      </trkpt>
      <trkpt lat="43.77571" lon="7.13608">
        <ele>838.59997558594</ele>
        <time>2012-07-12T18:18:14.000Z</time>
      </trkpt>
      <trkpt lat="43.77571" lon="7.13591">
        <ele>838</ele>
        <time>2012-07-12T18:18:19.000Z</time>
      </trkpt>
      <trkpt lat="43.77571" lon="7.13587">
        <ele>838.20001220703</ele>
        <time>2012-07-12T18:18:20.000Z</time>
      </trkpt>
      <trkpt lat="43.77566" lon="7.13573">
        <ele>838.20001220703</ele>
        <time>2012-07-12T18:18:23.000Z</time>
      </trkpt>
      <trkpt lat="43.77565" lon="7.13558">
        <ele>839</ele>
        <time>2012-07-12T18:18:27.000Z</time>
      </trkpt>
      <trkpt lat="43.77566" lon="7.13556">
        <ele>839.40002441406</ele>
        <time>2012-07-12T18:18:28.000Z</time>
      </trkpt>
      <trkpt lat="43.77569" lon="7.13551">
        <ele>838.79998779297</ele>
        <time>2012-07-12T18:18:31.000Z</time>
      </trkpt>
      <trkpt lat="43.77576" lon="7.13541">
        <ele>836.79998779297</ele>
        <time>2012-07-12T18:18:37.000Z</time>
      </trkpt>
      <trkpt lat="43.77578" lon="7.13537">
        <ele>836.40002441406</ele>
        <time>2012-07-12T18:18:40.000Z</time>
      </trkpt>
      <trkpt lat="43.77582" lon="7.13532">
        <ele>836.59997558594</ele>
        <time>2012-07-12T18:18:43.000Z</time>
      </trkpt>
      <trkpt lat="43.77588" lon="7.13528">
        <ele>835.79998779297</ele>
        <time>2012-07-12T18:18:49.000Z</time>
      </trkpt>
      <trkpt lat="43.77595" lon="7.13523">
        <ele>836.20001220703</ele>
        <time>2012-07-12T18:18:53.000Z</time>
      </trkpt>
      <trkpt lat="43.77599" lon="7.13517">
        <ele>836.79998779297</ele>
        <time>2012-07-12T18:18:57.000Z</time>
      </trkpt>
      <trkpt lat="43.77598" lon="7.13514">
        <ele>837.20001220703</ele>
        <time>2012-07-12T18:19:00.000Z</time>
      </trkpt>
      <trkpt lat="43.77598" lon="7.13506">
        <ele>836.79998779297</ele>
        <time>2012-07-12T18:19:05.000Z</time>
      </trkpt>
      <trkpt lat="43.776" lon="7.13491">
        <ele>835.20001220703</ele>
        <time>2012-07-12T18:19:10.000Z</time>
      </trkpt>
      <trkpt lat="43.77606" lon="7.13477">
        <ele>834.59997558594</ele>
        <time>2012-07-12T18:19:15.000Z</time>
      </trkpt>
      <trkpt lat="43.7761" lon="7.13467">
        <ele>833.59997558594</ele>
        <time>2012-07-12T18:19:20.000Z</time>
      </trkpt>
      <trkpt lat="43.77615" lon="7.13457">
        <ele>832.79998779297</ele>
        <time>2012-07-12T18:19:26.000Z</time>
      </trkpt>
      <trkpt lat="43.7761" lon="7.1345">
        <ele>831.59997558594</ele>
        <time>2012-07-12T18:19:31.000Z</time>
      </trkpt>
      <trkpt lat="43.77608" lon="7.13443">
        <ele>830.79998779297</ele>
        <time>2012-07-12T18:19:34.000Z</time>
      </trkpt>
      <trkpt lat="43.77607" lon="7.13442">
        <ele>830.20001220703</ele>
        <time>2012-07-12T18:19:35.000Z</time>
      </trkpt>
      <trkpt lat="43.77605" lon="7.13441">
        <ele>829.59997558594</ele>
        <time>2012-07-12T18:19:36.000Z</time>
      </trkpt>
      <trkpt lat="43.77605" lon="7.13441">
        <ele>829.20001220703</ele>
        <time>2012-07-12T18:19:40.000Z</time>
      </trkpt>
      <trkpt lat="43.77595" lon="7.13444">
        <ele>827.40002441406</ele>
        <time>2012-07-12T18:20:04.000Z</time>
      </trkpt>
      <trkpt lat="43.77592" lon="7.13441">
        <ele>826.40002441406</ele>
        <time>2012-07-12T18:20:06.000Z</time>
      </trkpt>
      <trkpt lat="43.77587" lon="7.13433">
        <ele>826.40002441406</ele>
        <time>2012-07-12T18:20:09.000Z</time>
      </trkpt>
      <trkpt lat="43.77578" lon="7.13415">
        <ele>822</ele>
        <time>2012-07-12T18:20:15.000Z</time>
      </trkpt>
      <trkpt lat="43.77566" lon="7.13404">
        <ele>821.20001220703</ele>
        <time>2012-07-12T18:20:19.000Z</time>
      </trkpt>
      <trkpt lat="43.77548" lon="7.134">
        <ele>818</ele>
        <time>2012-07-12T18:20:23.000Z</time>
      </trkpt>
      <trkpt lat="43.77538" lon="7.13392">
        <ele>816.40002441406</ele>
        <time>2012-07-12T18:20:26.000Z</time>
      </trkpt>
      <trkpt lat="43.77531" lon="7.13392">
        <ele>814</ele>
        <time>2012-07-12T18:20:29.000Z</time>
      </trkpt>
      <trkpt lat="43.77529" lon="7.13392">
        <ele>813.79998779297</ele>
        <time>2012-07-12T18:20:30.000Z</time>
      </trkpt>
      <trkpt lat="43.7752" lon="7.13389">
        <ele>812.40002441406</ele>
        <time>2012-07-12T18:20:33.000Z</time>
      </trkpt>
      <trkpt lat="43.77507" lon="7.1339">
        <ele>808.20001220703</ele>
        <time>2012-07-12T18:20:37.000Z</time>
      </trkpt>
      <trkpt lat="43.77491" lon="7.13388">
        <ele>805.79998779297</ele>
        <time>2012-07-12T18:20:41.000Z</time>
      </trkpt>
      <trkpt lat="43.77483" lon="7.13378">
        <ele>804.20001220703</ele>
        <time>2012-07-12T18:20:44.000Z</time>
      </trkpt>
      <trkpt lat="43.77473" lon="7.1337">
        <ele>799.79998779297</ele>
        <time>2012-07-12T18:20:47.000Z</time>
      </trkpt>
      <trkpt lat="43.77469" lon="7.13367">
        <ele>799.59997558594</ele>
        <time>2012-07-12T18:20:48.000Z</time>
      </trkpt>
      <trkpt lat="43.7745" lon="7.13352">
        <ele>797</ele>
        <time>2012-07-12T18:20:52.000Z</time>
      </trkpt>
      <trkpt lat="43.77446" lon="7.13349">
        <ele>796.59997558594</ele>
        <time>2012-07-12T18:20:53.000Z</time>
      </trkpt>
      <trkpt lat="43.77439" lon="7.13346">
        <ele>795.79998779297</ele>
        <time>2012-07-12T18:20:55.000Z</time>
      </trkpt>
      <trkpt lat="43.77426" lon="7.13343">
        <ele>793.59997558594</ele>
        <time>2012-07-12T18:20:58.000Z</time>
      </trkpt>
      <trkpt lat="43.77421" lon="7.13338">
        <ele>793</ele>
        <time>2012-07-12T18:21:00.000Z</time>
      </trkpt>
      <trkpt lat="43.77423" lon="7.13332">
        <ele>793</ele>
        <time>2012-07-12T18:21:01.000Z</time>
      </trkpt>
      <trkpt lat="43.77419" lon="7.13322">
        <ele>793.20001220703</ele>
        <time>2012-07-12T18:21:05.000Z</time>
      </trkpt>
      <trkpt lat="43.77407" lon="7.13322">
        <ele>792.59997558594</ele>
        <time>2012-07-12T18:21:09.000Z</time>
      </trkpt>
      <trkpt lat="43.77401" lon="7.13325">
        <ele>791.79998779297</ele>
        <time>2012-07-12T18:21:11.000Z</time>
      </trkpt>
      <trkpt lat="43.77394" lon="7.13326">
        <ele>790.79998779297</ele>
        <time>2012-07-12T18:21:14.000Z</time>
      </trkpt>
      <trkpt lat="43.7739" lon="7.13324">
        <ele>790.40002441406</ele>
        <time>2012-07-12T18:21:16.000Z</time>
      </trkpt>
      <trkpt lat="43.77391" lon="7.13319">
        <ele>789.59997558594</ele>
        <time>2012-07-12T18:21:18.000Z</time>
      </trkpt>
      <trkpt lat="43.77393" lon="7.13308">
        <ele>787.40002441406</ele>
        <time>2012-07-12T18:21:21.000Z</time>
      </trkpt>
      <trkpt lat="43.77394" lon="7.13304">
        <ele>787.40002441406</ele>
        <time>2012-07-12T18:21:22.000Z</time>
      </trkpt>
      <trkpt lat="43.77393" lon="7.13301">
        <ele>787.20001220703</ele>
        <time>2012-07-12T18:21:23.000Z</time>
      </trkpt>
      <trkpt lat="43.77389" lon="7.13298">
        <ele>786</ele>
        <time>2012-07-12T18:21:25.000Z</time>
      </trkpt>
      <trkpt lat="43.77382" lon="7.13295">
        <ele>784.59997558594</ele>
        <time>2012-07-12T18:21:28.000Z</time>
      </trkpt>
      <trkpt lat="43.7738" lon="7.13295">
        <ele>783.79998779297</ele>
        <time>2012-07-12T18:21:29.000Z</time>
      </trkpt>
      <trkpt lat="43.77369" lon="7.13299">
        <ele>779.20001220703</ele>
        <time>2012-07-12T18:21:34.000Z</time>
      </trkpt>
      <trkpt lat="43.77364" lon="7.13301">
        <ele>778.20001220703</ele>
        <time>2012-07-12T18:21:36.000Z</time>
      </trkpt>
      <trkpt lat="43.77359" lon="7.13304">
        <ele>777</ele>
        <time>2012-07-12T18:21:39.000Z</time>
      </trkpt>
      <trkpt lat="43.77358" lon="7.13302">
        <ele>776.40002441406</ele>
        <time>2012-07-12T18:21:40.000Z</time>
      </trkpt>
      <trkpt lat="43.77354" lon="7.13296">
        <ele>774.79998779297</ele>
        <time>2012-07-12T18:21:43.000Z</time>
      </trkpt>
      <trkpt lat="43.77346" lon="7.13295">
        <ele>774.59997558594</ele>
        <time>2012-07-12T18:21:47.000Z</time>
      </trkpt>
      <trkpt lat="43.77343" lon="7.13287">
        <ele>774</ele>
        <time>2012-07-12T18:21:50.000Z</time>
      </trkpt>
      <trkpt lat="43.77335" lon="7.13288">
        <ele>770.40002441406</ele>
        <time>2012-07-12T18:21:54.000Z</time>
      </trkpt>
      <trkpt lat="43.77329" lon="7.13293">
        <ele>768.59997558594</ele>
        <time>2012-07-12T18:21:58.000Z</time>
      </trkpt>
      <trkpt lat="43.77325" lon="7.13288">
        <ele>769</ele>
        <time>2012-07-12T18:22:01.000Z</time>
      </trkpt>
      <trkpt lat="43.77318" lon="7.13277">
        <ele>768.20001220703</ele>
        <time>2012-07-12T18:22:05.000Z</time>
      </trkpt>
      <trkpt lat="43.77312" lon="7.13269">
        <ele>768</ele>
        <time>2012-07-12T18:22:08.000Z</time>
      </trkpt>
      <trkpt lat="43.7731" lon="7.13268">
        <ele>768.20001220703</ele>
        <time>2012-07-12T18:22:09.000Z</time>
      </trkpt>
      <trkpt lat="43.77308" lon="7.13267">
        <ele>768.40002441406</ele>
        <time>2012-07-12T18:22:10.000Z</time>
      </trkpt>
      <trkpt lat="43.77306" lon="7.13263">
        <ele>768.59997558594</ele>
        <time>2012-07-12T18:22:14.000Z</time>
      </trkpt>
      <trkpt lat="43.77303" lon="7.13258">
        <ele>769.40002441406</ele>
        <time>2012-07-12T18:22:21.000Z</time>
      </trkpt>
      <trkpt lat="43.77296" lon="7.13247">
        <ele>768.79998779297</ele>
        <time>2012-07-12T18:22:26.000Z</time>
      </trkpt>
      <trkpt lat="43.77292" lon="7.13243">
        <ele>768.20001220703</ele>
        <time>2012-07-12T18:22:28.000Z</time>
      </trkpt>
      <trkpt lat="43.77288" lon="7.13239">
        <ele>768.20001220703</ele>
        <time>2012-07-12T18:22:30.000Z</time>
      </trkpt>
      <trkpt lat="43.77287" lon="7.13234">
        <ele>767.79998779297</ele>
        <time>2012-07-12T18:22:32.000Z</time>
      </trkpt>
      <trkpt lat="43.77283" lon="7.1323">
        <ele>769</ele>
        <time>2012-07-12T18:22:35.000Z</time>
      </trkpt>
      <trkpt lat="43.7728" lon="7.13227">
        <ele>768.40002441406</ele>
        <time>2012-07-12T18:22:37.000Z</time>
      </trkpt>
      <trkpt lat="43.77275" lon="7.13227">
        <ele>767.20001220703</ele>
        <time>2012-07-12T18:22:39.000Z</time>
      </trkpt>
      <trkpt lat="43.77271" lon="7.13225">
        <ele>766.79998779297</ele>
        <time>2012-07-12T18:22:41.000Z</time>
      </trkpt>
      <trkpt lat="43.77266" lon="7.13221">
        <ele>766.40002441406</ele>
        <time>2012-07-12T18:22:43.000Z</time>
      </trkpt>
      <trkpt lat="43.77264" lon="7.1322">
        <ele>766</ele>
        <time>2012-07-12T18:22:44.000Z</time>
      </trkpt>
      <trkpt lat="43.77255" lon="7.13218">
        <ele>765.59997558594</ele>
        <time>2012-07-12T18:22:47.000Z</time>
      </trkpt>
      <trkpt lat="43.77248" lon="7.13213">
        <ele>765.59997558594</ele>
        <time>2012-07-12T18:22:51.000Z</time>
      </trkpt>
      <trkpt lat="43.77237" lon="7.13209">
        <ele>766.79998779297</ele>
        <time>2012-07-12T18:22:56.000Z</time>
      </trkpt>
      <trkpt lat="43.77234" lon="7.13209">
        <ele>766.40002441406</ele>
        <time>2012-07-12T18:22:57.000Z</time>
      </trkpt>
      <trkpt lat="43.77222" lon="7.13211">
        <ele>764.20001220703</ele>
        <time>2012-07-12T18:23:01.000Z</time>
      </trkpt>
      <trkpt lat="43.77205" lon="7.13206">
        <ele>763.40002441406</ele>
        <time>2012-07-12T18:23:06.000Z</time>
      </trkpt>
      <trkpt lat="43.77189" lon="7.13199">
        <ele>761</ele>
        <time>2012-07-12T18:23:11.000Z</time>
      </trkpt>
      <trkpt lat="43.77171" lon="7.13192">
        <ele>758.20001220703</ele>
        <time>2012-07-12T18:23:15.000Z</time>
      </trkpt>
      <trkpt lat="43.77155" lon="7.13187">
        <ele>755.79998779297</ele>
        <time>2012-07-12T18:23:18.000Z</time>
      </trkpt>
      <trkpt lat="43.7715" lon="7.13185">
        <ele>754.79998779297</ele>
        <time>2012-07-12T18:23:19.000Z</time>
      </trkpt>
      <trkpt lat="43.77133" lon="7.13181">
        <ele>751</ele>
        <time>2012-07-12T18:23:23.000Z</time>
      </trkpt>
      <trkpt lat="43.77116" lon="7.13171">
        <ele>748.20001220703</ele>
        <time>2012-07-12T18:23:27.000Z</time>
      </trkpt>
      <trkpt lat="43.77113" lon="7.13168">
        <ele>747.59997558594</ele>
        <time>2012-07-12T18:23:28.000Z</time>
      </trkpt>
      <trkpt lat="43.77104" lon="7.13161">
        <ele>746.59997558594</ele>
        <time>2012-07-12T18:23:31.000Z</time>
      </trkpt>
      <trkpt lat="43.7709" lon="7.13149">
        <ele>745.79998779297</ele>
        <time>2012-07-12T18:23:35.000Z</time>
      </trkpt>
      <trkpt lat="43.77087" lon="7.13146">
        <ele>745.40002441406</ele>
        <time>2012-07-12T18:23:36.000Z</time>
      </trkpt>
      <trkpt lat="43.77065" lon="7.13129">
        <ele>743.40002441406</ele>
        <time>2012-07-12T18:23:41.000Z</time>
      </trkpt>
      <trkpt lat="43.77044" lon="7.13113">
        <ele>741.79998779297</ele>
        <time>2012-07-12T18:23:45.000Z</time>
      </trkpt>
      <trkpt lat="43.77039" lon="7.13109">
        <ele>741.40002441406</ele>
        <time>2012-07-12T18:23:46.000Z</time>
      </trkpt>
      <trkpt lat="43.77024" lon="7.13098">
        <ele>739.79998779297</ele>
        <time>2012-07-12T18:23:49.000Z</time>
      </trkpt>
      <trkpt lat="43.77007" lon="7.13082">
        <ele>738.79998779297</ele>
        <time>2012-07-12T18:23:52.000Z</time>
      </trkpt>
      <trkpt lat="43.77" lon="7.13079">
        <ele>738.20001220703</ele>
        <time>2012-07-12T18:23:53.000Z</time>
      </trkpt>
      <trkpt lat="43.7698" lon="7.13068">
        <ele>736.40002441406</ele>
        <time>2012-07-12T18:23:56.000Z</time>
      </trkpt>
      <trkpt lat="43.76974" lon="7.13064">
        <ele>736</ele>
        <time>2012-07-12T18:23:57.000Z</time>
      </trkpt>
      <trkpt lat="43.76959" lon="7.13054">
        <ele>734</ele>
        <time>2012-07-12T18:24:00.000Z</time>
      </trkpt>
      <trkpt lat="43.76959" lon="7.13054">
        <ele>733.40002441406</ele>
        <time>2012-07-12T18:24:01.000Z</time>
      </trkpt>
      <trkpt lat="43.76961" lon="7.13055">
        <ele>732.79998779297</ele>
        <time>2012-07-12T18:24:05.000Z</time>
      </trkpt>
      <trkpt lat="43.76954" lon="7.13061">
        <ele>730.40002441406</ele>
        <time>2012-07-12T18:24:10.000Z</time>
      </trkpt>
      <trkpt lat="43.76936" lon="7.13058">
        <ele>728.79998779297</ele>
        <time>2012-07-12T18:24:14.000Z</time>
      </trkpt>
      <trkpt lat="43.7692" lon="7.13051">
        <ele>726.40002441406</ele>
        <time>2012-07-12T18:24:18.000Z</time>
      </trkpt>
      <trkpt lat="43.76909" lon="7.13045">
        <ele>725.40002441406</ele>
        <time>2012-07-12T18:24:21.000Z</time>
      </trkpt>
      <trkpt lat="43.76905" lon="7.13044">
        <ele>725</ele>
        <time>2012-07-12T18:24:22.000Z</time>
      </trkpt>
      <trkpt lat="43.76889" lon="7.13032">
        <ele>723.59997558594</ele>
        <time>2012-07-12T18:24:26.000Z</time>
      </trkpt>
      <trkpt lat="43.7688" lon="7.13029">
        <ele>723</ele>
        <time>2012-07-12T18:24:28.000Z</time>
      </trkpt>
      <trkpt lat="43.76869" lon="7.13036">
        <ele>722.40002441406</ele>
        <time>2012-07-12T18:24:31.000Z</time>
      </trkpt>
      <trkpt lat="43.76866" lon="7.13039">
        <ele>721.79998779297</ele>
        <time>2012-07-12T18:24:32.000Z</time>
      </trkpt>
      <trkpt lat="43.76857" lon="7.13041">
        <ele>721.59997558594</ele>
        <time>2012-07-12T18:24:35.000Z</time>
      </trkpt>
      <trkpt lat="43.76844" lon="7.13033">
        <ele>721.20001220703</ele>
        <time>2012-07-12T18:24:39.000Z</time>
      </trkpt>
      <trkpt lat="43.7683" lon="7.13026">
        <ele>721.20001220703</ele>
        <time>2012-07-12T18:24:43.000Z</time>
      </trkpt>
      <trkpt lat="43.76826" lon="7.13022">
        <ele>720.20001220703</ele>
        <time>2012-07-12T18:24:44.000Z</time>
      </trkpt>
      <trkpt lat="43.76814" lon="7.13016">
        <ele>720.40002441406</ele>
        <time>2012-07-12T18:24:47.000Z</time>
      </trkpt>
      <trkpt lat="43.76792" lon="7.13011">
        <ele>721.20001220703</ele>
        <time>2012-07-12T18:24:53.000Z</time>
      </trkpt>
      <trkpt lat="43.76773" lon="7.13003">
        <ele>720.79998779297</ele>
        <time>2012-07-12T18:24:58.000Z</time>
      </trkpt>
      <trkpt lat="43.76771" lon="7.12999">
        <ele>720.40002441406</ele>
        <time>2012-07-12T18:24:59.000Z</time>
      </trkpt>
      <trkpt lat="43.76756" lon="7.12983">
        <ele>720.20001220703</ele>
        <time>2012-07-12T18:25:03.000Z</time>
      </trkpt>
      <trkpt lat="43.76744" lon="7.12975">
        <ele>719</ele>
        <time>2012-07-12T18:25:07.000Z</time>
      </trkpt>
      <trkpt lat="43.76744" lon="7.12975">
        <ele>715.79998779297</ele>
        <time>2012-07-12T18:25:12.000Z</time>
      </trkpt>
      <trkpt lat="43.7674" lon="7.12977">
        <ele>714.59997558594</ele>
        <time>2012-07-12T18:25:17.000Z</time>
      </trkpt>
      <trkpt lat="43.76739" lon="7.12976">
        <ele>714.59997558594</ele>
        <time>2012-07-12T18:25:18.000Z</time>
      </trkpt>
      <trkpt lat="43.76736" lon="7.12976">
        <ele>716</ele>
        <time>2012-07-12T18:25:22.000Z</time>
      </trkpt>
      <trkpt lat="43.76732" lon="7.12975">
        <ele>717.79998779297</ele>
        <time>2012-07-12T18:25:27.000Z</time>
      </trkpt>
      <trkpt lat="43.76731" lon="7.12974">
        <ele>717.40002441406</ele>
        <time>2012-07-12T18:25:29.000Z</time>
      </trkpt>
      <trkpt lat="43.76731" lon="7.12975">
        <ele>718</ele>
        <time>2012-07-12T18:25:37.000Z</time>
      </trkpt>
      <trkpt lat="43.76733" lon="7.12977">
        <ele>718.40002441406</ele>
        <time>2012-07-12T18:25:45.000Z</time>
      </trkpt>
      <trkpt lat="43.76731" lon="7.12975">
        <ele>717.40002441406</ele>
        <time>2012-07-12T18:25:56.000Z</time>
      </trkpt>
      <trkpt lat="43.7673" lon="7.12975">
        <ele>717.40002441406</ele>
        <time>2012-07-12T18:25:57.000Z</time>
      </trkpt>
      <trkpt lat="43.76726" lon="7.12973">
        <ele>716.79998779297</ele>
        <time>2012-07-12T18:26:02.000Z</time>
      </trkpt>
      <trkpt lat="43.76726" lon="7.12973">
        <ele>717</ele>
        <time>2012-07-12T18:26:03.000Z</time>
      </trkpt>
      <trkpt lat="43.76725" lon="7.12972">
        <ele>716.59997558594</ele>
        <time>2012-07-12T18:26:04.000Z</time>
      </trkpt>
      <trkpt lat="43.76724" lon="7.1297">
        <ele>715.59997558594</ele>
        <time>2012-07-12T18:26:06.000Z</time>
      </trkpt>
      <trkpt lat="43.76723" lon="7.12969">
        <ele>714.79998779297</ele>
        <time>2012-07-12T18:26:07.000Z</time>
      </trkpt>
      <trkpt lat="43.76723" lon="7.12967">
        <ele>713.20001220703</ele>
        <time>2012-07-12T18:26:11.000Z</time>
      </trkpt>
      <trkpt lat="43.76726" lon="7.12972">
        <ele>713.20001220703</ele>
        <time>2012-07-12T18:26:16.000Z</time>
      </trkpt>
      <trkpt lat="43.76727" lon="7.12973">
        <ele>713.40002441406</ele>
        <time>2012-07-12T18:26:17.000Z</time>
      </trkpt>
      <trkpt lat="43.76731" lon="7.12976">
        <ele>715.20001220703</ele>
        <time>2012-07-12T18:26:22.000Z</time>
      </trkpt>
      <trkpt lat="43.76732" lon="7.12973">
        <ele>715.59997558594</ele>
        <time>2012-07-12T18:26:29.000Z</time>
      </trkpt>
      <trkpt lat="43.7673" lon="7.12972">
        <ele>721</ele>
        <time>2012-07-12T18:27:14.000Z</time>
      </trkpt>
      <trkpt lat="43.76726" lon="7.1297">
        <ele>722.20001220703</ele>
        <time>2012-07-12T18:27:21.000Z</time>
      </trkpt>
      <trkpt lat="43.76724" lon="7.1297">
        <ele>720</ele>
        <time>2012-07-12T18:27:26.000Z</time>
      </trkpt>
      <trkpt lat="43.76722" lon="7.12967">
        <ele>719.79998779297</ele>
        <time>2012-07-12T18:27:33.000Z</time>
      </trkpt>
      <trkpt lat="43.76719" lon="7.12959">
        <ele>719</ele>
        <time>2012-07-12T18:27:37.000Z</time>
      </trkpt>
      <trkpt lat="43.76717" lon="7.12958">
        <ele>719</ele>
        <time>2012-07-12T18:27:38.000Z</time>
      </trkpt>
      <trkpt lat="43.76704" lon="7.12952">
        <ele>717.79998779297</ele>
        <time>2012-07-12T18:27:44.000Z</time>
      </trkpt>
      <trkpt lat="43.76696" lon="7.12941">
        <ele>717.40002441406</ele>
        <time>2012-07-12T18:27:49.000Z</time>
      </trkpt>
      <trkpt lat="43.76687" lon="7.12933">
        <ele>718</ele>
        <time>2012-07-12T18:27:54.000Z</time>
      </trkpt>
      <trkpt lat="43.76685" lon="7.12931">
        <ele>718.59997558594</ele>
        <time>2012-07-12T18:27:58.000Z</time>
      </trkpt>
      <trkpt lat="43.76683" lon="7.12921">
        <ele>717.20001220703</ele>
        <time>2012-07-12T18:28:13.000Z</time>
      </trkpt>
      <trkpt lat="43.76681" lon="7.12917">
        <ele>716.20001220703</ele>
        <time>2012-07-12T18:28:15.000Z</time>
      </trkpt>
      <trkpt lat="43.76675" lon="7.12912">
        <ele>716.20001220703</ele>
        <time>2012-07-12T18:28:18.000Z</time>
      </trkpt>
      <trkpt lat="43.76665" lon="7.12902">
        <ele>715.59997558594</ele>
        <time>2012-07-12T18:28:23.000Z</time>
      </trkpt>
      <trkpt lat="43.76649" lon="7.12889">
        <ele>712.79998779297</ele>
        <time>2012-07-12T18:28:29.000Z</time>
      </trkpt>
      <trkpt lat="43.76627" lon="7.12871">
        <ele>705.20001220703</ele>
        <time>2012-07-12T18:28:34.000Z</time>
      </trkpt>
      <trkpt lat="43.76619" lon="7.12867">
        <ele>701.59997558594</ele>
        <time>2012-07-12T18:28:36.000Z</time>
      </trkpt>
      <trkpt lat="43.76606" lon="7.12861">
        <ele>698.59997558594</ele>
        <time>2012-07-12T18:28:39.000Z</time>
      </trkpt>
      <trkpt lat="43.76598" lon="7.12857">
        <ele>698.79998779297</ele>
        <time>2012-07-12T18:28:41.000Z</time>
      </trkpt>
      <trkpt lat="43.76591" lon="7.12853">
        <ele>698.59997558594</ele>
        <time>2012-07-12T18:28:43.000Z</time>
      </trkpt>
      <trkpt lat="43.76579" lon="7.12849">
        <ele>697.79998779297</ele>
        <time>2012-07-12T18:28:46.000Z</time>
      </trkpt>
      <trkpt lat="43.76574" lon="7.12848">
        <ele>697</ele>
        <time>2012-07-12T18:28:47.000Z</time>
      </trkpt>
      <trkpt lat="43.76552" lon="7.12842">
        <ele>697.59997558594</ele>
        <time>2012-07-12T18:28:53.000Z</time>
      </trkpt>
      <trkpt lat="43.76541" lon="7.12836">
        <ele>696.59997558594</ele>
        <time>2012-07-12T18:28:57.000Z</time>
      </trkpt>
      <trkpt lat="43.76534" lon="7.12832">
        <ele>695.79998779297</ele>
        <time>2012-07-12T18:29:00.000Z</time>
      </trkpt>
      <trkpt lat="43.76533" lon="7.1283">
        <ele>695.40002441406</ele>
        <time>2012-07-12T18:29:01.000Z</time>
      </trkpt>
      <trkpt lat="43.76524" lon="7.12823">
        <ele>694.20001220703</ele>
        <time>2012-07-12T18:29:05.000Z</time>
      </trkpt>
      <trkpt lat="43.76515" lon="7.12818">
        <ele>690</ele>
        <time>2012-07-12T18:29:10.000Z</time>
      </trkpt>
      <trkpt lat="43.76506" lon="7.12811">
        <ele>689.40002441406</ele>
        <time>2012-07-12T18:29:15.000Z</time>
      </trkpt>
      <trkpt lat="43.76492" lon="7.12802">
        <ele>688</ele>
        <time>2012-07-12T18:29:20.000Z</time>
      </trkpt>
      <trkpt lat="43.76483" lon="7.12792">
        <ele>686</ele>
        <time>2012-07-12T18:29:24.000Z</time>
      </trkpt>
      <trkpt lat="43.76479" lon="7.12789">
        <ele>685.40002441406</ele>
        <time>2012-07-12T18:29:26.000Z</time>
      </trkpt>
      <trkpt lat="43.76477" lon="7.12784">
        <ele>684.40002441406</ele>
        <time>2012-07-12T18:29:28.000Z</time>
      </trkpt>
      <trkpt lat="43.76471" lon="7.1278">
        <ele>681</ele>
        <time>2012-07-12T18:29:31.000Z</time>
      </trkpt>
      <trkpt lat="43.76468" lon="7.12776">
        <ele>678.59997558594</ele>
        <time>2012-07-12T18:29:33.000Z</time>
      </trkpt>
      <trkpt lat="43.76462" lon="7.12772">
        <ele>677.20001220703</ele>
        <time>2012-07-12T18:29:36.000Z</time>
      </trkpt>
      <trkpt lat="43.76461" lon="7.12767">
        <ele>676.79998779297</ele>
        <time>2012-07-12T18:29:38.000Z</time>
      </trkpt>
      <trkpt lat="43.76456" lon="7.12765">
        <ele>675.79998779297</ele>
        <time>2012-07-12T18:29:40.000Z</time>
      </trkpt>
      <trkpt lat="43.76453" lon="7.12763">
        <ele>675.59997558594</ele>
        <time>2012-07-12T18:29:41.000Z</time>
      </trkpt>
      <trkpt lat="43.76443" lon="7.12756">
        <ele>673.40002441406</ele>
        <time>2012-07-12T18:29:46.000Z</time>
      </trkpt>
      <trkpt lat="43.76437" lon="7.12752">
        <ele>672</ele>
        <time>2012-07-12T18:29:50.000Z</time>
      </trkpt>
      <trkpt lat="43.76437" lon="7.12754">
        <ele>668.79998779297</ele>
        <time>2012-07-12T18:30:05.000Z</time>
      </trkpt>
      <trkpt lat="43.76436" lon="7.12755">
        <ele>670.79998779297</ele>
        <time>2012-07-12T18:30:16.000Z</time>
      </trkpt>
      <trkpt lat="43.7643" lon="7.12752">
        <ele>671</ele>
        <time>2012-07-12T18:30:53.000Z</time>
      </trkpt>
      <trkpt lat="43.76417" lon="7.12742">
        <ele>671.40002441406</ele>
        <time>2012-07-12T18:30:57.000Z</time>
      </trkpt>
      <trkpt lat="43.76402" lon="7.12726">
        <ele>668.59997558594</ele>
        <time>2012-07-12T18:31:02.000Z</time>
      </trkpt>
      <trkpt lat="43.76392" lon="7.12712">
        <ele>666.79998779297</ele>
        <time>2012-07-12T18:31:06.000Z</time>
      </trkpt>
      <trkpt lat="43.76379" lon="7.12706">
        <ele>661.40002441406</ele>
        <time>2012-07-12T18:31:10.000Z</time>
      </trkpt>
      <trkpt lat="43.76378" lon="7.12705">
        <ele>659.59997558594</ele>
        <time>2012-07-12T18:31:13.000Z</time>
      </trkpt>
      <trkpt lat="43.76372" lon="7.12702">
        <ele>656.20001220703</ele>
        <time>2012-07-12T18:31:21.000Z</time>
      </trkpt>
      <trkpt lat="43.76371" lon="7.12701">
        <ele>656.20001220703</ele>
        <time>2012-07-12T18:31:28.000Z</time>
      </trkpt>
      <trkpt lat="43.7637" lon="7.12701">
        <ele>654.79998779297</ele>
        <time>2012-07-12T18:31:34.000Z</time>
      </trkpt>
      <trkpt lat="43.76367" lon="7.127">
        <ele>654.59997558594</ele>
        <time>2012-07-12T18:31:39.000Z</time>
      </trkpt>
      <trkpt lat="43.76357" lon="7.12692">
        <ele>656.20001220703</ele>
        <time>2012-07-12T18:32:00.000Z</time>
      </trkpt>
      <trkpt lat="43.76347" lon="7.12685">
        <ele>654.79998779297</ele>
        <time>2012-07-12T18:32:04.000Z</time>
      </trkpt>
      <trkpt lat="43.76338" lon="7.1268">
        <ele>651.20001220703</ele>
        <time>2012-07-12T18:32:08.000Z</time>
      </trkpt>
      <trkpt lat="43.76337" lon="7.12679">
        <ele>649.79998779297</ele>
        <time>2012-07-12T18:32:12.000Z</time>
      </trkpt>
      <trkpt lat="43.76331" lon="7.1268">
        <ele>649.40002441406</ele>
        <time>2012-07-12T18:32:17.000Z</time>
      </trkpt>
      <trkpt lat="43.76324" lon="7.12678">
        <ele>647.79998779297</ele>
        <time>2012-07-12T18:32:22.000Z</time>
      </trkpt>
      <trkpt lat="43.76317" lon="7.12673">
        <ele>646.59997558594</ele>
        <time>2012-07-12T18:32:26.000Z</time>
      </trkpt>
      <trkpt lat="43.76312" lon="7.12673">
        <ele>645.59997558594</ele>
        <time>2012-07-12T18:32:28.000Z</time>
      </trkpt>
      <trkpt lat="43.76306" lon="7.12672">
        <ele>644</ele>
        <time>2012-07-12T18:32:30.000Z</time>
      </trkpt>
      <trkpt lat="43.76292" lon="7.12665">
        <ele>638</ele>
        <time>2012-07-12T18:32:35.000Z</time>
      </trkpt>
      <trkpt lat="43.76282" lon="7.12663">
        <ele>636.40002441406</ele>
        <time>2012-07-12T18:32:39.000Z</time>
      </trkpt>
      <trkpt lat="43.76274" lon="7.12665">
        <ele>633.40002441406</ele>
        <time>2012-07-12T18:32:43.000Z</time>
      </trkpt>
      <trkpt lat="43.76272" lon="7.12667">
        <ele>633</ele>
        <time>2012-07-12T18:32:44.000Z</time>
      </trkpt>
      <trkpt lat="43.7627" lon="7.12667">
        <ele>632.79998779297</ele>
        <time>2012-07-12T18:32:45.000Z</time>
      </trkpt>
      <trkpt lat="43.7627" lon="7.12667">
        <ele>633</ele>
        <time>2012-07-12T18:32:47.000Z</time>
      </trkpt>
      <trkpt lat="43.76268" lon="7.12666">
        <ele>630.40002441406</ele>
        <time>2012-07-12T18:32:53.000Z</time>
      </trkpt>
      <trkpt lat="43.76265" lon="7.12664">
        <ele>629.40002441406</ele>
        <time>2012-07-12T18:32:56.000Z</time>
      </trkpt>
      <trkpt lat="43.76264" lon="7.12664">
        <ele>629.40002441406</ele>
        <time>2012-07-12T18:32:57.000Z</time>
      </trkpt>
      <trkpt lat="43.76264" lon="7.12663">
        <ele>623.79998779297</ele>
        <time>2012-07-12T18:33:15.000Z</time>
      </trkpt>
      <trkpt lat="43.76258" lon="7.12662">
        <ele>622.79998779297</ele>
        <time>2012-07-12T18:33:20.000Z</time>
      </trkpt>
      <trkpt lat="43.76243" lon="7.12657">
        <ele>627</ele>
        <time>2012-07-12T18:33:26.000Z</time>
      </trkpt>
      <trkpt lat="43.7623" lon="7.12656">
        <ele>629.20001220703</ele>
        <time>2012-07-12T18:33:30.000Z</time>
      </trkpt>
      <trkpt lat="43.76215" lon="7.12649">
        <ele>626.20001220703</ele>
        <time>2012-07-12T18:33:35.000Z</time>
      </trkpt>
      <trkpt lat="43.76206" lon="7.12649">
        <ele>621.20001220703</ele>
        <time>2012-07-12T18:33:40.000Z</time>
      </trkpt>
      <trkpt lat="43.76203" lon="7.12648">
        <ele>619.40002441406</ele>
        <time>2012-07-12T18:33:44.000Z</time>
      </trkpt>
      <trkpt lat="43.76202" lon="7.12648">
        <ele>618.59997558594</ele>
        <time>2012-07-12T18:33:45.000Z</time>
      </trkpt>
      <trkpt lat="43.76198" lon="7.12648">
        <ele>614.59997558594</ele>
        <time>2012-07-12T18:33:51.000Z</time>
      </trkpt>
      <trkpt lat="43.76196" lon="7.12647">
        <ele>616.20001220703</ele>
        <time>2012-07-12T18:33:54.000Z</time>
      </trkpt>
      <trkpt lat="43.76193" lon="7.12644">
        <ele>615.59997558594</ele>
        <time>2012-07-12T18:33:56.000Z</time>
      </trkpt>
      <trkpt lat="43.76191" lon="7.12644">
        <ele>615</ele>
        <time>2012-07-12T18:34:00.000Z</time>
      </trkpt>
      <trkpt lat="43.76189" lon="7.12642">
        <ele>613.40002441406</ele>
        <time>2012-07-12T18:34:05.000Z</time>
      </trkpt>
      <trkpt lat="43.76186" lon="7.1264">
        <ele>612</ele>
        <time>2012-07-12T18:34:08.000Z</time>
      </trkpt>
      <trkpt lat="43.76185" lon="7.1264">
        <ele>611.40002441406</ele>
        <time>2012-07-12T18:34:10.000Z</time>
      </trkpt>
      <trkpt lat="43.76184" lon="7.12639">
        <ele>610.59997558594</ele>
        <time>2012-07-12T18:34:13.000Z</time>
      </trkpt>
      <trkpt lat="43.76179" lon="7.12639">
        <ele>609.79998779297</ele>
        <time>2012-07-12T18:34:15.000Z</time>
      </trkpt>
      <trkpt lat="43.76177" lon="7.12639">
        <ele>609.59997558594</ele>
        <time>2012-07-12T18:34:17.000Z</time>
      </trkpt>
      <trkpt lat="43.76176" lon="7.12639">
        <ele>610</ele>
        <time>2012-07-12T18:34:19.000Z</time>
      </trkpt>
      <trkpt lat="43.76173" lon="7.1264">
        <ele>609.40002441406</ele>
        <time>2012-07-12T18:34:24.000Z</time>
      </trkpt>
      <trkpt lat="43.7617" lon="7.12638">
        <ele>608</ele>
        <time>2012-07-12T18:34:31.000Z</time>
      </trkpt>
      <trkpt lat="43.76168" lon="7.12636">
        <ele>607</ele>
        <time>2012-07-12T18:34:39.000Z</time>
      </trkpt>
      <trkpt lat="43.76169" lon="7.12634">
        <ele>608.20001220703</ele>
        <time>2012-07-12T18:34:44.000Z</time>
      </trkpt>
      <trkpt lat="43.76171" lon="7.12631">
        <ele>609.20001220703</ele>
        <time>2012-07-12T18:34:49.000Z</time>
      </trkpt>
      <trkpt lat="43.76171" lon="7.12625">
        <ele>608</ele>
        <time>2012-07-12T18:34:55.000Z</time>
      </trkpt>
      <trkpt lat="43.76166" lon="7.12622">
        <ele>607</ele>
        <time>2012-07-12T18:35:00.000Z</time>
      </trkpt>
      <trkpt lat="43.76165" lon="7.12621">
        <ele>606.79998779297</ele>
        <time>2012-07-12T18:35:01.000Z</time>
      </trkpt>
      <trkpt lat="43.76165" lon="7.1262">
        <ele>604.79998779297</ele>
        <time>2012-07-12T18:35:07.000Z</time>
      </trkpt>
      <trkpt lat="43.7616" lon="7.12625">
        <ele>604</ele>
        <time>2012-07-12T18:35:36.000Z</time>
      </trkpt>
      <trkpt lat="43.76153" lon="7.12626">
        <ele>601.79998779297</ele>
        <time>2012-07-12T18:35:39.000Z</time>
      </trkpt>
      <trkpt lat="43.76152" lon="7.12625">
        <ele>600.79998779297</ele>
        <time>2012-07-12T18:35:40.000Z</time>
      </trkpt>
      <trkpt lat="43.76144" lon="7.12622">
        <ele>598.20001220703</ele>
        <time>2012-07-12T18:35:43.000Z</time>
      </trkpt>
      <trkpt lat="43.7614" lon="7.12621">
        <ele>596.59997558594</ele>
        <time>2012-07-12T18:35:45.000Z</time>
      </trkpt>
      <trkpt lat="43.76135" lon="7.12622">
        <ele>595.20001220703</ele>
        <time>2012-07-12T18:35:47.000Z</time>
      </trkpt>
      <trkpt lat="43.76132" lon="7.12626">
        <ele>594.59997558594</ele>
        <time>2012-07-12T18:35:49.000Z</time>
      </trkpt>
      <trkpt lat="43.76122" lon="7.12629">
        <ele>593.79998779297</ele>
        <time>2012-07-12T18:35:53.000Z</time>
      </trkpt>
      <trkpt lat="43.76117" lon="7.1263">
        <ele>593</ele>
        <time>2012-07-12T18:35:57.000Z</time>
      </trkpt>
      <trkpt lat="43.76115" lon="7.12631">
        <ele>594</ele>
        <time>2012-07-12T18:36:04.000Z</time>
      </trkpt>
      <trkpt lat="43.76115" lon="7.12638">
        <ele>596.20001220703</ele>
        <time>2012-07-12T18:36:23.000Z</time>
      </trkpt>
      <trkpt lat="43.76118" lon="7.12644">
        <ele>593.20001220703</ele>
        <time>2012-07-12T18:36:28.000Z</time>
      </trkpt>
      <trkpt lat="43.7612" lon="7.12648">
        <ele>578.40002441406</ele>
        <time>2012-07-12T18:36:53.000Z</time>
      </trkpt>
      <trkpt lat="43.76122" lon="7.12663">
        <ele>576.20001220703</ele>
        <time>2012-07-12T18:36:57.000Z</time>
      </trkpt>
      <trkpt lat="43.76122" lon="7.12675">
        <ele>574.59997558594</ele>
        <time>2012-07-12T18:37:01.000Z</time>
      </trkpt>
      <trkpt lat="43.76122" lon="7.12677">
        <ele>573.20001220703</ele>
        <time>2012-07-12T18:37:04.000Z</time>
      </trkpt>
      <trkpt lat="43.76122" lon="7.12678">
        <ele>573</ele>
        <time>2012-07-12T18:37:11.000Z</time>
      </trkpt>
      <trkpt lat="43.76121" lon="7.12676">
        <ele>579</ele>
        <time>2012-07-12T18:45:24.000Z</time>
      </trkpt>
      <trkpt lat="43.76121" lon="7.12686">
        <ele>578.20001220703</ele>
        <time>2012-07-12T18:45:29.000Z</time>
      </trkpt>
      <trkpt lat="43.76114" lon="7.12703">
        <ele>574.59997558594</ele>
        <time>2012-07-12T18:45:33.000Z</time>
      </trkpt>
      <trkpt lat="43.76113" lon="7.12714">
        <ele>574.79998779297</ele>
        <time>2012-07-12T18:45:35.000Z</time>
      </trkpt>
      <trkpt lat="43.76113" lon="7.12722">
        <ele>575.20001220703</ele>
        <time>2012-07-12T18:45:37.000Z</time>
      </trkpt>
      <trkpt lat="43.76104" lon="7.1273">
        <ele>575.20001220703</ele>
        <time>2012-07-12T18:45:40.000Z</time>
      </trkpt>
      <trkpt lat="43.76094" lon="7.12735">
        <ele>576.20001220703</ele>
        <time>2012-07-12T18:45:42.000Z</time>
      </trkpt>
      <trkpt lat="43.76086" lon="7.12741">
        <ele>575.40002441406</ele>
        <time>2012-07-12T18:45:44.000Z</time>
      </trkpt>
      <trkpt lat="43.76078" lon="7.12749">
        <ele>574.79998779297</ele>
        <time>2012-07-12T18:45:47.000Z</time>
      </trkpt>
      <trkpt lat="43.76076" lon="7.12747">
        <ele>574</ele>
        <time>2012-07-12T18:45:49.000Z</time>
      </trkpt>
      <trkpt lat="43.76074" lon="7.12748">
        <ele>574</ele>
        <time>2012-07-12T18:45:50.000Z</time>
      </trkpt>
      <trkpt lat="43.76062" lon="7.12755">
        <ele>571.59997558594</ele>
        <time>2012-07-12T18:45:54.000Z</time>
      </trkpt>
      <trkpt lat="43.7605" lon="7.12757">
        <ele>570.20001220703</ele>
        <time>2012-07-12T18:45:59.000Z</time>
      </trkpt>
      <trkpt lat="43.76046" lon="7.12754">
        <ele>569.20001220703</ele>
        <time>2012-07-12T18:46:01.000Z</time>
      </trkpt>
      <trkpt lat="43.76046" lon="7.12752">
        <ele>569.40002441406</ele>
        <time>2012-07-12T18:46:02.000Z</time>
      </trkpt>
      <trkpt lat="43.76053" lon="7.12742">
        <ele>568.40002441406</ele>
        <time>2012-07-12T18:46:06.000Z</time>
      </trkpt>
      <trkpt lat="43.76055" lon="7.12736">
        <ele>567.20001220703</ele>
        <time>2012-07-12T18:46:10.000Z</time>
      </trkpt>
      <trkpt lat="43.76047" lon="7.12736">
        <ele>564.59997558594</ele>
        <time>2012-07-12T18:46:14.000Z</time>
      </trkpt>
      <trkpt lat="43.76045" lon="7.12731">
        <ele>562.40002441406</ele>
        <time>2012-07-12T18:46:18.000Z</time>
      </trkpt>
      <trkpt lat="43.76047" lon="7.12726">
        <ele>561</ele>
        <time>2012-07-12T18:46:19.000Z</time>
      </trkpt>
      <trkpt lat="43.76051" lon="7.12715">
        <ele>558.40002441406</ele>
        <time>2012-07-12T18:46:22.000Z</time>
      </trkpt>
      <trkpt lat="43.76051" lon="7.12712">
        <ele>557.20001220703</ele>
        <time>2012-07-12T18:46:23.000Z</time>
      </trkpt>
      <trkpt lat="43.76046" lon="7.12707">
        <ele>555.20001220703</ele>
        <time>2012-07-12T18:46:26.000Z</time>
      </trkpt>
      <trkpt lat="43.76041" lon="7.12712">
        <ele>554.20001220703</ele>
        <time>2012-07-12T18:46:28.000Z</time>
      </trkpt>
      <trkpt lat="43.76038" lon="7.12714">
        <ele>553.79998779297</ele>
        <time>2012-07-12T18:46:29.000Z</time>
      </trkpt>
      <trkpt lat="43.76033" lon="7.12718">
        <ele>553</ele>
        <time>2012-07-12T18:46:31.000Z</time>
      </trkpt>
      <trkpt lat="43.76031" lon="7.12716">
        <ele>552.59997558594</ele>
        <time>2012-07-12T18:46:32.000Z</time>
      </trkpt>
      <trkpt lat="43.76032" lon="7.12707">
        <ele>550.79998779297</ele>
        <time>2012-07-12T18:46:35.000Z</time>
      </trkpt>
      <trkpt lat="43.76032" lon="7.12704">
        <ele>550.40002441406</ele>
        <time>2012-07-12T18:46:36.000Z</time>
      </trkpt>
      <trkpt lat="43.76028" lon="7.12706">
        <ele>549.40002441406</ele>
        <time>2012-07-12T18:46:38.000Z</time>
      </trkpt>
      <trkpt lat="43.76017" lon="7.1271">
        <ele>547.79998779297</ele>
        <time>2012-07-12T18:46:41.000Z</time>
      </trkpt>
      <trkpt lat="43.76014" lon="7.12712">
        <ele>546.79998779297</ele>
        <time>2012-07-12T18:46:42.000Z</time>
      </trkpt>
      <trkpt lat="43.76012" lon="7.12715">
        <ele>546.59997558594</ele>
        <time>2012-07-12T18:46:43.000Z</time>
      </trkpt>
      <trkpt lat="43.76007" lon="7.12717">
        <ele>546.20001220703</ele>
        <time>2012-07-12T18:46:45.000Z</time>
      </trkpt>
      <trkpt lat="43.76007" lon="7.12712">
        <ele>545.20001220703</ele>
        <time>2012-07-12T18:46:48.000Z</time>
      </trkpt>
      <trkpt lat="43.76011" lon="7.12705">
        <ele>543.59997558594</ele>
        <time>2012-07-12T18:46:51.000Z</time>
      </trkpt>
      <trkpt lat="43.76004" lon="7.12707">
        <ele>541.40002441406</ele>
        <time>2012-07-12T18:46:55.000Z</time>
      </trkpt>
      <trkpt lat="43.76002" lon="7.12709">
        <ele>540.79998779297</ele>
        <time>2012-07-12T18:46:56.000Z</time>
      </trkpt>
      <trkpt lat="43.75998" lon="7.1271">
        <ele>538.79998779297</ele>
        <time>2012-07-12T18:46:58.000Z</time>
      </trkpt>
      <trkpt lat="43.75998" lon="7.12708">
        <ele>538.40002441406</ele>
        <time>2012-07-12T18:47:00.000Z</time>
      </trkpt>
      <trkpt lat="43.75997" lon="7.12707">
        <ele>538.40002441406</ele>
        <time>2012-07-12T18:47:01.000Z</time>
      </trkpt>
      <trkpt lat="43.75995" lon="7.12703">
        <ele>537.79998779297</ele>
        <time>2012-07-12T18:47:03.000Z</time>
      </trkpt>
      <trkpt lat="43.75988" lon="7.12707">
        <ele>536.40002441406</ele>
        <time>2012-07-12T18:47:07.000Z</time>
      </trkpt>
      <trkpt lat="43.75985" lon="7.12706">
        <ele>536.40002441406</ele>
        <time>2012-07-12T18:47:09.000Z</time>
      </trkpt>
      <trkpt lat="43.75981" lon="7.12705">
        <ele>537.20001220703</ele>
        <time>2012-07-12T18:47:11.000Z</time>
      </trkpt>
      <trkpt lat="43.75979" lon="7.12704">
        <ele>536.79998779297</ele>
        <time>2012-07-12T18:47:12.000Z</time>
      </trkpt>
      <trkpt lat="43.75978" lon="7.12698">
        <ele>536.20001220703</ele>
        <time>2012-07-12T18:47:16.000Z</time>
      </trkpt>
      <trkpt lat="43.7598" lon="7.12695">
        <ele>536.20001220703</ele>
        <time>2012-07-12T18:47:18.000Z</time>
      </trkpt>
      <trkpt lat="43.7598" lon="7.12694">
        <ele>536.59997558594</ele>
        <time>2012-07-12T18:47:20.000Z</time>
      </trkpt>
      <trkpt lat="43.75981" lon="7.12691">
        <ele>539.40002441406</ele>
        <time>2012-07-12T18:47:31.000Z</time>
      </trkpt>
      <trkpt lat="43.75983" lon="7.12689">
        <ele>538.40002441406</ele>
        <time>2012-07-12T18:47:33.000Z</time>
      </trkpt>
      <trkpt lat="43.75984" lon="7.12688">
        <ele>538.40002441406</ele>
        <time>2012-07-12T18:47:34.000Z</time>
      </trkpt>
      <trkpt lat="43.75984" lon="7.12685">
        <ele>536.59997558594</ele>
        <time>2012-07-12T18:47:36.000Z</time>
      </trkpt>
      <trkpt lat="43.75983" lon="7.12682">
        <ele>536.20001220703</ele>
        <time>2012-07-12T18:47:37.000Z</time>
      </trkpt>
      <trkpt lat="43.75977" lon="7.12681">
        <ele>532.59997558594</ele>
        <time>2012-07-12T18:47:40.000Z</time>
      </trkpt>
      <trkpt lat="43.75968" lon="7.12684">
        <ele>527.40002441406</ele>
        <time>2012-07-12T18:47:44.000Z</time>
      </trkpt>
      <trkpt lat="43.75967" lon="7.12682">
        <ele>525.79998779297</ele>
        <time>2012-07-12T18:47:45.000Z</time>
      </trkpt>
      <trkpt lat="43.75968" lon="7.12678">
        <ele>526.59997558594</ele>
        <time>2012-07-12T18:47:47.000Z</time>
      </trkpt>
      <trkpt lat="43.75972" lon="7.12668">
        <ele>525.40002441406</ele>
        <time>2012-07-12T18:47:51.000Z</time>
      </trkpt>
      <trkpt lat="43.75967" lon="7.12669">
        <ele>523.20001220703</ele>
        <time>2012-07-12T18:47:54.000Z</time>
      </trkpt>
      <trkpt lat="43.75959" lon="7.12672">
        <ele>517.59997558594</ele>
        <time>2012-07-12T18:47:58.000Z</time>
      </trkpt>
      <trkpt lat="43.75956" lon="7.12667">
        <ele>515.59997558594</ele>
        <time>2012-07-12T18:48:02.000Z</time>
      </trkpt>
      <trkpt lat="43.75953" lon="7.12659">
        <ele>511.39999389648</ele>
        <time>2012-07-12T18:48:06.000Z</time>
      </trkpt>
      <trkpt lat="43.75947" lon="7.12662">
        <ele>508</ele>
        <time>2012-07-12T18:48:09.000Z</time>
      </trkpt>
      <trkpt lat="43.75942" lon="7.12662">
        <ele>506.20001220703</ele>
        <time>2012-07-12T18:48:12.000Z</time>
      </trkpt>
      <trkpt lat="43.7594" lon="7.12656">
        <ele>503.20001220703</ele>
        <time>2012-07-12T18:48:16.000Z</time>
      </trkpt>
      <trkpt lat="43.75933" lon="7.12652">
        <ele>502.60000610352</ele>
        <time>2012-07-12T18:48:20.000Z</time>
      </trkpt>
      <trkpt lat="43.75935" lon="7.12641">
        <ele>499.60000610352</ele>
        <time>2012-07-12T18:48:24.000Z</time>
      </trkpt>
      <trkpt lat="43.75936" lon="7.12639">
        <ele>499.79998779297</ele>
        <time>2012-07-12T18:48:25.000Z</time>
      </trkpt>
      <trkpt lat="43.75936" lon="7.12635">
        <ele>499</ele>
        <time>2012-07-12T18:48:27.000Z</time>
      </trkpt>
      <trkpt lat="43.75933" lon="7.12635">
        <ele>497.79998779297</ele>
        <time>2012-07-12T18:48:29.000Z</time>
      </trkpt>
      <trkpt lat="43.7593" lon="7.12635">
        <ele>498.60000610352</ele>
        <time>2012-07-12T18:48:31.000Z</time>
      </trkpt>
      <trkpt lat="43.7593" lon="7.12632">
        <ele>498.39999389648</ele>
        <time>2012-07-12T18:48:33.000Z</time>
      </trkpt>
      <trkpt lat="43.75926" lon="7.12622">
        <ele>495.60000610352</ele>
        <time>2012-07-12T18:48:37.000Z</time>
      </trkpt>
      <trkpt lat="43.7592" lon="7.12621">
        <ele>495.39999389648</ele>
        <time>2012-07-12T18:48:39.000Z</time>
      </trkpt>
      <trkpt lat="43.75917" lon="7.12623">
        <ele>494.20001220703</ele>
        <time>2012-07-12T18:48:41.000Z</time>
      </trkpt>
      <trkpt lat="43.75909" lon="7.12622">
        <ele>491.20001220703</ele>
        <time>2012-07-12T18:48:45.000Z</time>
      </trkpt>
      <trkpt lat="43.75897" lon="7.12621">
        <ele>490</ele>
        <time>2012-07-12T18:48:48.000Z</time>
      </trkpt>
      <trkpt lat="43.75892" lon="7.12623">
        <ele>488.60000610352</ele>
        <time>2012-07-12T18:48:50.000Z</time>
      </trkpt>
      <trkpt lat="43.75887" lon="7.12621">
        <ele>487</ele>
        <time>2012-07-12T18:48:52.000Z</time>
      </trkpt>
      <trkpt lat="43.75878" lon="7.12619">
        <ele>484.60000610352</ele>
        <time>2012-07-12T18:48:56.000Z</time>
      </trkpt>
      <trkpt lat="43.75872" lon="7.12619">
        <ele>483.39999389648</ele>
        <time>2012-07-12T18:48:58.000Z</time>
      </trkpt>
      <trkpt lat="43.75868" lon="7.12619">
        <ele>481.79998779297</ele>
        <time>2012-07-12T18:49:00.000Z</time>
      </trkpt>
      <trkpt lat="43.75866" lon="7.12619">
        <ele>481.39999389648</ele>
        <time>2012-07-12T18:49:02.000Z</time>
      </trkpt>
      <trkpt lat="43.75865" lon="7.12618">
        <ele>479.60000610352</ele>
        <time>2012-07-12T18:49:03.000Z</time>
      </trkpt>
      <trkpt lat="43.75855" lon="7.1262">
        <ele>476.79998779297</ele>
        <time>2012-07-12T18:49:07.000Z</time>
      </trkpt>
      <trkpt lat="43.75843" lon="7.12627">
        <ele>474.60000610352</ele>
        <time>2012-07-12T18:49:12.000Z</time>
      </trkpt>
      <trkpt lat="43.75831" lon="7.1264">
        <ele>472</ele>
        <time>2012-07-12T18:49:16.000Z</time>
      </trkpt>
      <trkpt lat="43.75828" lon="7.12646">
        <ele>470.20001220703</ele>
        <time>2012-07-12T18:49:18.000Z</time>
      </trkpt>
      <trkpt lat="43.75825" lon="7.12646">
        <ele>470.39999389648</ele>
        <time>2012-07-12T18:49:19.000Z</time>
      </trkpt>
      <trkpt lat="43.75813" lon="7.12643">
        <ele>470.60000610352</ele>
        <time>2012-07-12T18:49:22.000Z</time>
      </trkpt>
      <trkpt lat="43.75807" lon="7.12643">
        <ele>469</ele>
        <time>2012-07-12T18:49:24.000Z</time>
      </trkpt>
      <trkpt lat="43.75798" lon="7.12642">
        <ele>469.20001220703</ele>
        <time>2012-07-12T18:49:26.000Z</time>
      </trkpt>
      <trkpt lat="43.75777" lon="7.12639">
        <ele>464</ele>
        <time>2012-07-12T18:49:31.000Z</time>
      </trkpt>
      <trkpt lat="43.75763" lon="7.12637">
        <ele>458.20001220703</ele>
        <time>2012-07-12T18:49:36.000Z</time>
      </trkpt>
      <trkpt lat="43.75761" lon="7.12635">
        <ele>457</ele>
        <time>2012-07-12T18:49:39.000Z</time>
      </trkpt>
      <trkpt lat="43.75765" lon="7.12627">
        <ele>455.20001220703</ele>
        <time>2012-07-12T18:49:44.000Z</time>
      </trkpt>
      <trkpt lat="43.75765" lon="7.12626">
        <ele>454.79998779297</ele>
        <time>2012-07-12T18:49:45.000Z</time>
      </trkpt>
      <trkpt lat="43.75761" lon="7.12623">
        <ele>454</ele>
        <time>2012-07-12T18:49:47.000Z</time>
      </trkpt>
      <trkpt lat="43.75755" lon="7.12622">
        <ele>453.39999389648</ele>
        <time>2012-07-12T18:49:49.000Z</time>
      </trkpt>
      <trkpt lat="43.75751" lon="7.12621">
        <ele>452.20001220703</ele>
        <time>2012-07-12T18:49:51.000Z</time>
      </trkpt>
      <trkpt lat="43.75755" lon="7.12615">
        <ele>451.39999389648</ele>
        <time>2012-07-12T18:49:54.000Z</time>
      </trkpt>
      <trkpt lat="43.75761" lon="7.12608">
        <ele>450.20001220703</ele>
        <time>2012-07-12T18:49:56.000Z</time>
      </trkpt>
      <trkpt lat="43.75767" lon="7.12604">
        <ele>449.20001220703</ele>
        <time>2012-07-12T18:49:58.000Z</time>
      </trkpt>
      <trkpt lat="43.75775" lon="7.12595">
        <ele>447.20001220703</ele>
        <time>2012-07-12T18:50:02.000Z</time>
      </trkpt>
      <trkpt lat="43.7578" lon="7.12581">
        <ele>445.39999389648</ele>
        <time>2012-07-12T18:50:08.000Z</time>
      </trkpt>
      <trkpt lat="43.75776" lon="7.12582">
        <ele>444</ele>
        <time>2012-07-12T18:50:11.000Z</time>
      </trkpt>
      <trkpt lat="43.75776" lon="7.12574">
        <ele>443.79998779297</ele>
        <time>2012-07-12T18:50:14.000Z</time>
      </trkpt>
      <trkpt lat="43.75774" lon="7.1257">
        <ele>442.20001220703</ele>
        <time>2012-07-12T18:50:18.000Z</time>
      </trkpt>
      <trkpt lat="43.7577" lon="7.12567">
        <ele>441.20001220703</ele>
        <time>2012-07-12T18:50:22.000Z</time>
      </trkpt>
      <trkpt lat="43.75769" lon="7.12567">
        <ele>440.79998779297</ele>
        <time>2012-07-12T18:50:23.000Z</time>
      </trkpt>
      <trkpt lat="43.75768" lon="7.12564">
        <ele>440.39999389648</ele>
        <time>2012-07-12T18:50:27.000Z</time>
      </trkpt>
      <trkpt lat="43.75767" lon="7.12561">
        <ele>436.60000610352</ele>
        <time>2012-07-12T18:50:33.000Z</time>
      </trkpt>
      <trkpt lat="43.75766" lon="7.12563">
        <ele>434.60000610352</ele>
        <time>2012-07-12T18:50:52.000Z</time>
      </trkpt>
      <trkpt lat="43.7576" lon="7.12567">
        <ele>436</ele>
        <time>2012-07-12T18:52:37.000Z</time>
      </trkpt>
      <trkpt lat="43.75759" lon="7.12569">
        <ele>434.60000610352</ele>
        <time>2012-07-12T18:52:38.000Z</time>
      </trkpt>
      <trkpt lat="43.75753" lon="7.12577">
        <ele>434.20001220703</ele>
        <time>2012-07-12T18:52:41.000Z</time>
      </trkpt>
      <trkpt lat="43.7575" lon="7.12581">
        <ele>434.39999389648</ele>
        <time>2012-07-12T18:52:42.000Z</time>
      </trkpt>
      <trkpt lat="43.75741" lon="7.12589">
        <ele>432</ele>
        <time>2012-07-12T18:52:46.000Z</time>
      </trkpt>
      <trkpt lat="43.75742" lon="7.12583">
        <ele>427.39999389648</ele>
        <time>2012-07-12T18:52:49.000Z</time>
      </trkpt>
      <trkpt lat="43.75742" lon="7.12578">
        <ele>425.20001220703</ele>
        <time>2012-07-12T18:52:53.000Z</time>
      </trkpt>
      <trkpt lat="43.75741" lon="7.12578">
        <ele>424.20001220703</ele>
        <time>2012-07-12T18:52:54.000Z</time>
      </trkpt>
      <trkpt lat="43.75733" lon="7.12579">
        <ele>421.20001220703</ele>
        <time>2012-07-12T18:52:57.000Z</time>
      </trkpt>
      <trkpt lat="43.75715" lon="7.12579">
        <ele>418.20001220703</ele>
        <time>2012-07-12T18:53:02.000Z</time>
      </trkpt>
      <trkpt lat="43.75698" lon="7.12578">
        <ele>415.79998779297</ele>
        <time>2012-07-12T18:53:06.000Z</time>
      </trkpt>
      <trkpt lat="43.75685" lon="7.12576">
        <ele>414.20001220703</ele>
        <time>2012-07-12T18:53:10.000Z</time>
      </trkpt>
      <trkpt lat="43.75676" lon="7.1258">
        <ele>413.60000610352</ele>
        <time>2012-07-12T18:53:15.000Z</time>
      </trkpt>
      <trkpt lat="43.75674" lon="7.12582">
        <ele>414.79998779297</ele>
        <time>2012-07-12T18:53:21.000Z</time>
      </trkpt>
      <trkpt lat="43.75671" lon="7.12584">
        <ele>416.79998779297</ele>
        <time>2012-07-12T18:53:28.000Z</time>
      </trkpt>
      <trkpt lat="43.75665" lon="7.12589">
        <ele>417.79998779297</ele>
        <time>2012-07-12T18:53:33.000Z</time>
      </trkpt>
      <trkpt lat="43.75662" lon="7.12589">
        <ele>419</ele>
        <time>2012-07-12T18:53:36.000Z</time>
      </trkpt>
      <trkpt lat="43.75658" lon="7.12589">
        <ele>419</ele>
        <time>2012-07-12T18:53:42.000Z</time>
      </trkpt>
      <trkpt lat="43.75657" lon="7.12591">
        <ele>420.20001220703</ele>
        <time>2012-07-12T18:53:47.000Z</time>
      </trkpt>
      <trkpt lat="43.7565" lon="7.12593">
        <ele>419.20001220703</ele>
        <time>2012-07-12T18:53:51.000Z</time>
      </trkpt>
      <trkpt lat="43.75638" lon="7.12598">
        <ele>415.79998779297</ele>
        <time>2012-07-12T18:53:56.000Z</time>
      </trkpt>
      <trkpt lat="43.75621" lon="7.12597">
        <ele>410</ele>
        <time>2012-07-12T18:54:01.000Z</time>
      </trkpt>
      <trkpt lat="43.75612" lon="7.12596">
        <ele>405.60000610352</ele>
        <time>2012-07-12T18:54:05.000Z</time>
      </trkpt>
      <trkpt lat="43.75601" lon="7.12589">
        <ele>402.39999389648</ele>
        <time>2012-07-12T18:54:09.000Z</time>
      </trkpt>
      <trkpt lat="43.75598" lon="7.12588">
        <ele>401.39999389648</ele>
        <time>2012-07-12T18:54:10.000Z</time>
      </trkpt>
      <trkpt lat="43.75582" lon="7.12587">
        <ele>398</ele>
        <time>2012-07-12T18:54:14.000Z</time>
      </trkpt>
      <trkpt lat="43.75571" lon="7.126">
        <ele>395.60000610352</ele>
        <time>2012-07-12T18:54:17.000Z</time>
      </trkpt>
      <trkpt lat="43.75566" lon="7.12611">
        <ele>393.79998779297</ele>
        <time>2012-07-12T18:54:19.000Z</time>
      </trkpt>
      <trkpt lat="43.75558" lon="7.12616">
        <ele>392.39999389648</ele>
        <time>2012-07-12T18:54:21.000Z</time>
      </trkpt>
      <trkpt lat="43.75552" lon="7.12623">
        <ele>390.39999389648</ele>
        <time>2012-07-12T18:54:23.000Z</time>
      </trkpt>
      <trkpt lat="43.75549" lon="7.12627">
        <ele>390</ele>
        <time>2012-07-12T18:54:25.000Z</time>
      </trkpt>
      <trkpt lat="43.75546" lon="7.12632">
        <ele>389.20001220703</ele>
        <time>2012-07-12T18:54:27.000Z</time>
      </trkpt>
      <trkpt lat="43.7554" lon="7.12643">
        <ele>390</ele>
        <time>2012-07-12T18:54:31.000Z</time>
      </trkpt>
      <trkpt lat="43.75529" lon="7.12654">
        <ele>392.39999389648</ele>
        <time>2012-07-12T18:54:36.000Z</time>
      </trkpt>
      <trkpt lat="43.75519" lon="7.12663">
        <ele>392.20001220703</ele>
        <time>2012-07-12T18:54:40.000Z</time>
      </trkpt>
      <trkpt lat="43.75509" lon="7.12687">
        <ele>396.39999389648</ele>
        <time>2012-07-12T18:54:45.000Z</time>
      </trkpt>
      <trkpt lat="43.75504" lon="7.12705">
        <ele>396.39999389648</ele>
        <time>2012-07-12T18:54:50.000Z</time>
      </trkpt>
      <trkpt lat="43.75497" lon="7.12722">
        <ele>397.39999389648</ele>
        <time>2012-07-12T18:54:55.000Z</time>
      </trkpt>
      <trkpt lat="43.75496" lon="7.12725">
        <ele>397.60000610352</ele>
        <time>2012-07-12T18:54:56.000Z</time>
      </trkpt>
      <trkpt lat="43.75494" lon="7.12737">
        <ele>399.39999389648</ele>
        <time>2012-07-12T18:55:01.000Z</time>
      </trkpt>
      <trkpt lat="43.75491" lon="7.12743">
        <ele>400</ele>
        <time>2012-07-12T18:55:04.000Z</time>
      </trkpt>
      <trkpt lat="43.75489" lon="7.12749">
        <ele>401</ele>
        <time>2012-07-12T18:55:06.000Z</time>
      </trkpt>
      <trkpt lat="43.75487" lon="7.12766">
        <ele>403.79998779297</ele>
        <time>2012-07-12T18:55:12.000Z</time>
      </trkpt>
      <trkpt lat="43.75489" lon="7.12774">
        <ele>405.20001220703</ele>
        <time>2012-07-12T18:55:16.000Z</time>
      </trkpt>
      <trkpt lat="43.75491" lon="7.12775">
        <ele>405.79998779297</ele>
        <time>2012-07-12T18:55:17.000Z</time>
      </trkpt>
      <trkpt lat="43.75499" lon="7.12787">
        <ele>409.79998779297</ele>
        <time>2012-07-12T18:55:24.000Z</time>
      </trkpt>
      <trkpt lat="43.75499" lon="7.12791">
        <ele>412.60000610352</ele>
        <time>2012-07-12T18:55:29.000Z</time>
      </trkpt>
      <trkpt lat="43.75497" lon="7.1279">
        <ele>423.60000610352</ele>
        <time>2012-07-12T18:56:03.000Z</time>
      </trkpt>
      <trkpt lat="43.75493" lon="7.12796">
        <ele>426</ele>
        <time>2012-07-12T18:56:22.000Z</time>
      </trkpt>
      <trkpt lat="43.7549" lon="7.12797">
        <ele>425.39999389648</ele>
        <time>2012-07-12T18:56:23.000Z</time>
      </trkpt>
      <trkpt lat="43.75488" lon="7.12799">
        <ele>425.39999389648</ele>
        <time>2012-07-12T18:56:27.000Z</time>
      </trkpt>
      <trkpt lat="43.75481" lon="7.12801">
        <ele>422.20001220703</ele>
        <time>2012-07-12T18:56:37.000Z</time>
      </trkpt>
      <trkpt lat="43.75471" lon="7.12811">
        <ele>417.39999389648</ele>
        <time>2012-07-12T18:56:42.000Z</time>
      </trkpt>
      <trkpt lat="43.75459" lon="7.12831">
        <ele>415</ele>
        <time>2012-07-12T18:56:47.000Z</time>
      </trkpt>
      <trkpt lat="43.75455" lon="7.12847">
        <ele>412</ele>
        <time>2012-07-12T18:56:51.000Z</time>
      </trkpt>
      <trkpt lat="43.7545" lon="7.12863">
        <ele>409.60000610352</ele>
        <time>2012-07-12T18:56:54.000Z</time>
      </trkpt>
      <trkpt lat="43.7545" lon="7.12872">
        <ele>407.79998779297</ele>
        <time>2012-07-12T18:56:57.000Z</time>
      </trkpt>
      <trkpt lat="43.75453" lon="7.12875">
        <ele>405.20001220703</ele>
        <time>2012-07-12T18:57:02.000Z</time>
      </trkpt>
      <trkpt lat="43.75452" lon="7.12877">
        <ele>403</ele>
        <time>2012-07-12T18:57:08.000Z</time>
      </trkpt>
      <trkpt lat="43.75451" lon="7.12881">
        <ele>416.20001220703</ele>
        <time>2012-07-12T18:57:40.000Z</time>
      </trkpt>
      <trkpt lat="43.75451" lon="7.12882">
        <ele>415.79998779297</ele>
        <time>2012-07-12T18:57:41.000Z</time>
      </trkpt>
      <trkpt lat="43.75451" lon="7.12882">
        <ele>407.20001220703</ele>
        <time>2012-07-12T18:57:47.000Z</time>
      </trkpt>
      <trkpt lat="43.75448" lon="7.12889">
        <ele>405.79998779297</ele>
        <time>2012-07-12T18:57:53.000Z</time>
      </trkpt>
      <trkpt lat="43.75441" lon="7.129">
        <ele>403</ele>
        <time>2012-07-12T18:57:58.000Z</time>
      </trkpt>
      <trkpt lat="43.75437" lon="7.12916">
        <ele>401.20001220703</ele>
        <time>2012-07-12T18:58:03.000Z</time>
      </trkpt>
      <trkpt lat="43.75427" lon="7.12932">
        <ele>400.39999389648</ele>
        <time>2012-07-12T18:58:08.000Z</time>
      </trkpt>
      <trkpt lat="43.75413" lon="7.12952">
        <ele>399.39999389648</ele>
        <time>2012-07-12T18:58:13.000Z</time>
      </trkpt>
      <trkpt lat="43.75401" lon="7.12962">
        <ele>398.39999389648</ele>
        <time>2012-07-12T18:58:17.000Z</time>
      </trkpt>
      <trkpt lat="43.75387" lon="7.12981">
        <ele>396.60000610352</ele>
        <time>2012-07-12T18:58:22.000Z</time>
      </trkpt>
      <trkpt lat="43.7538" lon="7.12995">
        <ele>395.79998779297</ele>
        <time>2012-07-12T18:58:26.000Z</time>
      </trkpt>
      <trkpt lat="43.75374" lon="7.13011">
        <ele>395.79998779297</ele>
        <time>2012-07-12T18:58:31.000Z</time>
      </trkpt>
      <trkpt lat="43.75359" lon="7.13012">
        <ele>393.20001220703</ele>
        <time>2012-07-12T18:58:35.000Z</time>
      </trkpt>
      <trkpt lat="43.75349" lon="7.1302">
        <ele>391</ele>
        <time>2012-07-12T18:58:39.000Z</time>
      </trkpt>
      <trkpt lat="43.75339" lon="7.13041">
        <ele>389</ele>
        <time>2012-07-12T18:58:44.000Z</time>
      </trkpt>
      <trkpt lat="43.7533" lon="7.13056">
        <ele>386.60000610352</ele>
        <time>2012-07-12T18:58:48.000Z</time>
      </trkpt>
      <trkpt lat="43.75312" lon="7.13066">
        <ele>384.79998779297</ele>
        <time>2012-07-12T18:58:52.000Z</time>
      </trkpt>
      <trkpt lat="43.75294" lon="7.13077">
        <ele>384.39999389648</ele>
        <time>2012-07-12T18:58:56.000Z</time>
      </trkpt>
      <trkpt lat="43.75278" lon="7.13087">
        <ele>381</ele>
        <time>2012-07-12T18:59:00.000Z</time>
      </trkpt>
      <trkpt lat="43.75274" lon="7.13088">
        <ele>381.39999389648</ele>
        <time>2012-07-12T18:59:01.000Z</time>
      </trkpt>
      <trkpt lat="43.7526" lon="7.13093">
        <ele>381.79998779297</ele>
        <time>2012-07-12T18:59:05.000Z</time>
      </trkpt>
      <trkpt lat="43.75255" lon="7.13095">
        <ele>381.79998779297</ele>
        <time>2012-07-12T18:59:06.000Z</time>
      </trkpt>
      <trkpt lat="43.75248" lon="7.131">
        <ele>382</ele>
        <time>2012-07-12T18:59:08.000Z</time>
      </trkpt>
      <trkpt lat="43.7524" lon="7.13105">
        <ele>381.60000610352</ele>
        <time>2012-07-12T18:59:10.000Z</time>
      </trkpt>
      <trkpt lat="43.75231" lon="7.13108">
        <ele>380.39999389648</ele>
        <time>2012-07-12T18:59:12.000Z</time>
      </trkpt>
      <trkpt lat="43.75223" lon="7.13112">
        <ele>379.79998779297</ele>
        <time>2012-07-12T18:59:14.000Z</time>
      </trkpt>
      <trkpt lat="43.75219" lon="7.13115">
        <ele>379.20001220703</ele>
        <time>2012-07-12T18:59:15.000Z</time>
      </trkpt>
      <trkpt lat="43.75215" lon="7.13117">
        <ele>378.39999389648</ele>
        <time>2012-07-12T18:59:16.000Z</time>
      </trkpt>
      <trkpt lat="43.75206" lon="7.13117">
        <ele>373.20001220703</ele>
        <time>2012-07-12T18:59:19.000Z</time>
      </trkpt>
      <trkpt lat="43.75197" lon="7.1312">
        <ele>371.60000610352</ele>
        <time>2012-07-12T18:59:21.000Z</time>
      </trkpt>
      <trkpt lat="43.75192" lon="7.13122">
        <ele>370.79998779297</ele>
        <time>2012-07-12T18:59:23.000Z</time>
      </trkpt>
      <trkpt lat="43.75187" lon="7.13125">
        <ele>370.60000610352</ele>
        <time>2012-07-12T18:59:25.000Z</time>
      </trkpt>
      <trkpt lat="43.7518" lon="7.13126">
        <ele>369.79998779297</ele>
        <time>2012-07-12T18:59:27.000Z</time>
      </trkpt>
      <trkpt lat="43.75162" lon="7.13129">
        <ele>368.20001220703</ele>
        <time>2012-07-12T18:59:33.000Z</time>
      </trkpt>
      <trkpt lat="43.75153" lon="7.13137">
        <ele>367.20001220703</ele>
        <time>2012-07-12T18:59:38.000Z</time>
      </trkpt>
      <trkpt lat="43.75149" lon="7.13149">
        <ele>366.60000610352</ele>
        <time>2012-07-12T18:59:42.000Z</time>
      </trkpt>
      <trkpt lat="43.75143" lon="7.13158">
        <ele>368.20001220703</ele>
        <time>2012-07-12T18:59:45.000Z</time>
      </trkpt>
      <trkpt lat="43.75142" lon="7.13161">
        <ele>369</ele>
        <time>2012-07-12T18:59:46.000Z</time>
      </trkpt>
      <trkpt lat="43.75129" lon="7.13169">
        <ele>370.79998779297</ele>
        <time>2012-07-12T18:59:51.000Z</time>
      </trkpt>
      <trkpt lat="43.75117" lon="7.13176">
        <ele>374</ele>
        <time>2012-07-12T18:59:57.000Z</time>
      </trkpt>
      <trkpt lat="43.75108" lon="7.1318">
        <ele>376.20001220703</ele>
        <time>2012-07-12T19:00:02.000Z</time>
      </trkpt>
      <trkpt lat="43.75098" lon="7.13188">
        <ele>376.20001220703</ele>
        <time>2012-07-12T19:00:08.000Z</time>
      </trkpt>
      <trkpt lat="43.75085" lon="7.13198">
        <ele>377.39999389648</ele>
        <time>2012-07-12T19:00:15.000Z</time>
      </trkpt>
      <trkpt lat="43.75073" lon="7.13212">
        <ele>376.39999389648</ele>
        <time>2012-07-12T19:00:22.000Z</time>
      </trkpt>
      <trkpt lat="43.75059" lon="7.13214">
        <ele>374.79998779297</ele>
        <time>2012-07-12T19:00:27.000Z</time>
      </trkpt>
      <trkpt lat="43.75049" lon="7.13222">
        <ele>372</ele>
        <time>2012-07-12T19:00:32.000Z</time>
      </trkpt>
      <trkpt lat="43.75049" lon="7.13223">
        <ele>373.79998779297</ele>
        <time>2012-07-12T19:00:36.000Z</time>
      </trkpt>
      <trkpt lat="43.75048" lon="7.13226">
        <ele>374</ele>
        <time>2012-07-12T19:00:41.000Z</time>
      </trkpt>
      <trkpt lat="43.75044" lon="7.13238">
        <ele>375</ele>
        <time>2012-07-12T19:00:48.000Z</time>
      </trkpt>
      <trkpt lat="43.7504" lon="7.13239">
        <ele>376.79998779297</ele>
        <time>2012-07-12T19:00:51.000Z</time>
      </trkpt>
      <trkpt lat="43.7504" lon="7.13241">
        <ele>379.20001220703</ele>
        <time>2012-07-12T19:00:55.000Z</time>
      </trkpt>
      <trkpt lat="43.75039" lon="7.13239">
        <ele>377.39999389648</ele>
        <time>2012-07-12T19:01:50.000Z</time>
      </trkpt>
      <trkpt lat="43.75038" lon="7.13238">
        <ele>379.20001220703</ele>
        <time>2012-07-12T19:01:55.000Z</time>
      </trkpt>
      <trkpt lat="43.75038" lon="7.13243">
        <ele>379.39999389648</ele>
        <time>2012-07-12T19:02:01.000Z</time>
      </trkpt>
      <trkpt lat="43.75034" lon="7.13243">
        <ele>380</ele>
        <time>2012-07-12T19:02:04.000Z</time>
      </trkpt>
      <trkpt lat="43.75031" lon="7.13245">
        <ele>380</ele>
        <time>2012-07-12T19:02:06.000Z</time>
      </trkpt>
      <trkpt lat="43.75022" lon="7.13252">
        <ele>378.20001220703</ele>
        <time>2012-07-12T19:02:09.000Z</time>
      </trkpt>
      <trkpt lat="43.75008" lon="7.13266">
        <ele>378.60000610352</ele>
        <time>2012-07-12T19:02:14.000Z</time>
      </trkpt>
      <trkpt lat="43.74999" lon="7.13275">
        <ele>380</ele>
        <time>2012-07-12T19:02:19.000Z</time>
      </trkpt>
      <trkpt lat="43.74998" lon="7.13278">
        <ele>380.39999389648</ele>
        <time>2012-07-12T19:02:20.000Z</time>
      </trkpt>
      <trkpt lat="43.74987" lon="7.13289">
        <ele>382.39999389648</ele>
        <time>2012-07-12T19:02:26.000Z</time>
      </trkpt>
      <trkpt lat="43.74973" lon="7.13293">
        <ele>382.20001220703</ele>
        <time>2012-07-12T19:02:33.000Z</time>
      </trkpt>
      <trkpt lat="43.74957" lon="7.13303">
        <ele>383.79998779297</ele>
        <time>2012-07-12T19:02:41.000Z</time>
      </trkpt>
      <trkpt lat="43.74948" lon="7.13316">
        <ele>386.20001220703</ele>
        <time>2012-07-12T19:02:47.000Z</time>
      </trkpt>
      <trkpt lat="43.74944" lon="7.13336">
        <ele>388.20001220703</ele>
        <time>2012-07-12T19:02:55.000Z</time>
      </trkpt>
      <trkpt lat="43.74942" lon="7.13356">
        <ele>389.39999389648</ele>
        <time>2012-07-12T19:03:03.000Z</time>
      </trkpt>
      <trkpt lat="43.74939" lon="7.13364">
        <ele>390.60000610352</ele>
        <time>2012-07-12T19:03:07.000Z</time>
      </trkpt>
      <trkpt lat="43.74939" lon="7.13366">
        <ele>391</ele>
        <time>2012-07-12T19:03:08.000Z</time>
      </trkpt>
      <trkpt lat="43.74938" lon="7.13379">
        <ele>393.79998779297</ele>
        <time>2012-07-12T19:03:14.000Z</time>
      </trkpt>
      <trkpt lat="43.74936" lon="7.13387">
        <ele>395.60000610352</ele>
        <time>2012-07-12T19:03:19.000Z</time>
      </trkpt>
      <trkpt lat="43.74935" lon="7.1339">
        <ele>398.79998779297</ele>
        <time>2012-07-12T19:03:25.000Z</time>
      </trkpt>
      <trkpt lat="43.74931" lon="7.13394">
        <ele>402.60000610352</ele>
        <time>2012-07-12T19:03:31.000Z</time>
      </trkpt>
      <trkpt lat="43.74929" lon="7.134">
        <ele>403.60000610352</ele>
        <time>2012-07-12T19:03:37.000Z</time>
      </trkpt>
      <trkpt lat="43.74928" lon="7.13402">
        <ele>404.20001220703</ele>
        <time>2012-07-12T19:03:39.000Z</time>
      </trkpt>
      <trkpt lat="43.74927" lon="7.13408">
        <ele>404.20001220703</ele>
        <time>2012-07-12T19:03:44.000Z</time>
      </trkpt>
      <trkpt lat="43.74928" lon="7.13411">
        <ele>403.60000610352</ele>
        <time>2012-07-12T19:03:46.000Z</time>
      </trkpt>
      <trkpt lat="43.74926" lon="7.1342">
        <ele>405.39999389648</ele>
        <time>2012-07-12T19:03:53.000Z</time>
      </trkpt>
      <trkpt lat="43.74924" lon="7.13427">
        <ele>408</ele>
        <time>2012-07-12T19:04:00.000Z</time>
      </trkpt>
      <trkpt lat="43.74924" lon="7.13428">
        <ele>408.60000610352</ele>
        <time>2012-07-12T19:04:01.000Z</time>
      </trkpt>
      <trkpt lat="43.74924" lon="7.13435">
        <ele>407.20001220703</ele>
        <time>2012-07-12T19:04:08.000Z</time>
      </trkpt>
      <trkpt lat="43.74923" lon="7.13444">
        <ele>407</ele>
        <time>2012-07-12T19:04:15.000Z</time>
      </trkpt>
      <trkpt lat="43.74923" lon="7.13445">
        <ele>407.20001220703</ele>
        <time>2012-07-12T19:04:16.000Z</time>
      </trkpt>
      <trkpt lat="43.7492" lon="7.13454">
        <ele>408.20001220703</ele>
        <time>2012-07-12T19:04:24.000Z</time>
      </trkpt>
      <trkpt lat="43.7492" lon="7.13456">
        <ele>408.20001220703</ele>
        <time>2012-07-12T19:04:26.000Z</time>
      </trkpt>
      <trkpt lat="43.7492" lon="7.13464">
        <ele>408.60000610352</ele>
        <time>2012-07-12T19:04:32.000Z</time>
      </trkpt>
      <trkpt lat="43.74919" lon="7.13469">
        <ele>409.20001220703</ele>
        <time>2012-07-12T19:04:36.000Z</time>
      </trkpt>
      <trkpt lat="43.7492" lon="7.13471">
        <ele>410</ele>
        <time>2012-07-12T19:04:39.000Z</time>
      </trkpt>
      <trkpt lat="43.74921" lon="7.13477">
        <ele>410</ele>
        <time>2012-07-12T19:04:44.000Z</time>
      </trkpt>
      <trkpt lat="43.74921" lon="7.13478">
        <ele>410.20001220703</ele>
        <time>2012-07-12T19:04:45.000Z</time>
      </trkpt>
      <trkpt lat="43.74921" lon="7.1349">
        <ele>413.39999389648</ele>
        <time>2012-07-12T19:04:54.000Z</time>
      </trkpt>
      <trkpt lat="43.7492" lon="7.13497">
        <ele>415.39999389648</ele>
        <time>2012-07-12T19:04:59.000Z</time>
      </trkpt>
      <trkpt lat="43.7492" lon="7.13501">
        <ele>415.79998779297</ele>
        <time>2012-07-12T19:05:02.000Z</time>
      </trkpt>
      <trkpt lat="43.7492" lon="7.1351">
        <ele>415.20001220703</ele>
        <time>2012-07-12T19:05:09.000Z</time>
      </trkpt>
      <trkpt lat="43.74921" lon="7.13518">
        <ele>416.39999389648</ele>
        <time>2012-07-12T19:05:15.000Z</time>
      </trkpt>
      <trkpt lat="43.74919" lon="7.1352">
        <ele>420.60000610352</ele>
        <time>2012-07-12T19:05:22.000Z</time>
      </trkpt>
      <trkpt lat="43.74916" lon="7.13526">
        <ele>427.39999389648</ele>
        <time>2012-07-12T19:05:56.000Z</time>
      </trkpt>
      <trkpt lat="43.7491" lon="7.13535">
        <ele>423.60000610352</ele>
        <time>2012-07-12T19:06:02.000Z</time>
      </trkpt>
      <trkpt lat="43.74904" lon="7.13546">
        <ele>424.60000610352</ele>
        <time>2012-07-12T19:06:08.000Z</time>
      </trkpt>
      <trkpt lat="43.74899" lon="7.13558">
        <ele>419.39999389648</ele>
        <time>2012-07-12T19:06:15.000Z</time>
      </trkpt>
      <trkpt lat="43.74897" lon="7.1357">
        <ele>419.39999389648</ele>
        <time>2012-07-12T19:06:20.000Z</time>
      </trkpt>
      <trkpt lat="43.74889" lon="7.13583">
        <ele>419.60000610352</ele>
        <time>2012-07-12T19:06:26.000Z</time>
      </trkpt>
      <trkpt lat="43.74882" lon="7.13601">
        <ele>424</ele>
        <time>2012-07-12T19:06:33.000Z</time>
      </trkpt>
      <trkpt lat="43.74871" lon="7.13619">
        <ele>426</ele>
        <time>2012-07-12T19:06:41.000Z</time>
      </trkpt>
      <trkpt lat="43.7486" lon="7.13638">
        <ele>423.60000610352</ele>
        <time>2012-07-12T19:06:48.000Z</time>
      </trkpt>
      <trkpt lat="43.74853" lon="7.13656">
        <ele>424.60000610352</ele>
        <time>2012-07-12T19:06:55.000Z</time>
      </trkpt>
      <trkpt lat="43.74853" lon="7.13676">
        <ele>427.20001220703</ele>
        <time>2012-07-12T19:07:01.000Z</time>
      </trkpt>
      <trkpt lat="43.74846" lon="7.13694">
        <ele>430.79998779297</ele>
        <time>2012-07-12T19:07:07.000Z</time>
      </trkpt>
      <trkpt lat="43.74836" lon="7.13719">
        <ele>434.20001220703</ele>
        <time>2012-07-12T19:07:15.000Z</time>
      </trkpt>
      <trkpt lat="43.74831" lon="7.13741">
        <ele>437</ele>
        <time>2012-07-12T19:07:22.000Z</time>
      </trkpt>
      <trkpt lat="43.74827" lon="7.13759">
        <ele>440.20001220703</ele>
        <time>2012-07-12T19:07:28.000Z</time>
      </trkpt>
      <trkpt lat="43.74823" lon="7.13773">
        <ele>443.60000610352</ele>
        <time>2012-07-12T19:07:34.000Z</time>
      </trkpt>
      <trkpt lat="43.74821" lon="7.13785">
        <ele>445</ele>
        <time>2012-07-12T19:07:40.000Z</time>
      </trkpt>
      <trkpt lat="43.7482" lon="7.13798">
        <ele>445.20001220703</ele>
        <time>2012-07-12T19:07:48.000Z</time>
      </trkpt>
      <trkpt lat="43.74821" lon="7.13799">
        <ele>445.39999389648</ele>
        <time>2012-07-12T19:07:54.000Z</time>
      </trkpt>
      <trkpt lat="43.7482" lon="7.13802">
        <ele>448.39999389648</ele>
        <time>2012-07-12T19:08:49.000Z</time>
      </trkpt>
      <trkpt lat="43.74819" lon="7.13801">
        <ele>449.60000610352</ele>
        <time>2012-07-12T19:08:51.000Z</time>
      </trkpt>
      <trkpt lat="43.74809" lon="7.13797">
        <ele>449.39999389648</ele>
        <time>2012-07-12T19:09:44.000Z</time>
      </trkpt>
      <trkpt lat="43.74809" lon="7.1381">
        <ele>447</ele>
        <time>2012-07-12T19:09:47.000Z</time>
      </trkpt>
      <trkpt lat="43.74808" lon="7.1383">
        <ele>446.20001220703</ele>
        <time>2012-07-12T19:09:51.000Z</time>
      </trkpt>
      <trkpt lat="43.74796" lon="7.13855">
        <ele>443.79998779297</ele>
        <time>2012-07-12T19:09:56.000Z</time>
      </trkpt>
      <trkpt lat="43.74782" lon="7.13888">
        <ele>444.20001220703</ele>
        <time>2012-07-12T19:10:01.000Z</time>
      </trkpt>
      <trkpt lat="43.74774" lon="7.1392">
        <ele>445.60000610352</ele>
        <time>2012-07-12T19:10:06.000Z</time>
      </trkpt>
      <trkpt lat="43.74773" lon="7.13927">
        <ele>446</ele>
        <time>2012-07-12T19:10:07.000Z</time>
      </trkpt>
      <trkpt lat="43.74766" lon="7.13965">
        <ele>447.39999389648</ele>
        <time>2012-07-12T19:10:12.000Z</time>
      </trkpt>
      <trkpt lat="43.74763" lon="7.13985">
        <ele>448.39999389648</ele>
        <time>2012-07-12T19:10:15.000Z</time>
      </trkpt>
      <trkpt lat="43.74758" lon="7.14004">
        <ele>448.60000610352</ele>
        <time>2012-07-12T19:10:18.000Z</time>
      </trkpt>
      <trkpt lat="43.74755" lon="7.14016">
        <ele>447.20001220703</ele>
        <time>2012-07-12T19:10:20.000Z</time>
      </trkpt>
      <trkpt lat="43.74753" lon="7.14029">
        <ele>446</ele>
        <time>2012-07-12T19:10:22.000Z</time>
      </trkpt>
      <trkpt lat="43.74752" lon="7.14042">
        <ele>445.60000610352</ele>
        <time>2012-07-12T19:10:25.000Z</time>
      </trkpt>
      <trkpt lat="43.74752" lon="7.14048">
        <ele>445.79998779297</ele>
        <time>2012-07-12T19:10:29.000Z</time>
      </trkpt>
      <trkpt lat="43.74752" lon="7.14055">
        <ele>447.20001220703</ele>
        <time>2012-07-12T19:10:33.000Z</time>
      </trkpt>
      <trkpt lat="43.74751" lon="7.14056">
        <ele>448</ele>
        <time>2012-07-12T19:10:34.000Z</time>
      </trkpt>
      <trkpt lat="43.74751" lon="7.14057">
        <ele>446.60000610352</ele>
        <time>2012-07-12T19:10:35.000Z</time>
      </trkpt>
      <trkpt lat="43.74748" lon="7.14059">
        <ele>443</ele>
        <time>2012-07-12T19:10:41.000Z</time>
      </trkpt>
      <trkpt lat="43.74745" lon="7.14071">
        <ele>442.60000610352</ele>
        <time>2012-07-12T19:10:46.000Z</time>
      </trkpt>
      <trkpt lat="43.74737" lon="7.14097">
        <ele>440.39999389648</ele>
        <time>2012-07-12T19:10:53.000Z</time>
      </trkpt>
      <trkpt lat="43.74736" lon="7.14125">
        <ele>440.79998779297</ele>
        <time>2012-07-12T19:10:59.000Z</time>
      </trkpt>
      <trkpt lat="43.74737" lon="7.14157">
        <ele>439.20001220703</ele>
        <time>2012-07-12T19:11:04.000Z</time>
      </trkpt>
      <trkpt lat="43.74739" lon="7.14187">
        <ele>439.39999389648</ele>
        <time>2012-07-12T19:11:08.000Z</time>
      </trkpt>
      <trkpt lat="43.74741" lon="7.14202">
        <ele>439.60000610352</ele>
        <time>2012-07-12T19:11:10.000Z</time>
      </trkpt>
      <trkpt lat="43.74751" lon="7.1424">
        <ele>435.60000610352</ele>
        <time>2012-07-12T19:11:16.000Z</time>
      </trkpt>
      <trkpt lat="43.74753" lon="7.14246">
        <ele>435.79998779297</ele>
        <time>2012-07-12T19:11:17.000Z</time>
      </trkpt>
      <trkpt lat="43.74755" lon="7.14252">
        <ele>437.79998779297</ele>
        <time>2012-07-12T19:11:19.000Z</time>
      </trkpt>
      <trkpt lat="43.74753" lon="7.14251">
        <ele>438.20001220703</ele>
        <time>2012-07-12T19:11:22.000Z</time>
      </trkpt>
      <trkpt lat="43.74752" lon="7.1425">
        <ele>438.39999389648</ele>
        <time>2012-07-12T19:11:23.000Z</time>
      </trkpt>
      <trkpt lat="43.74749" lon="7.14248">
        <ele>439.20001220703</ele>
        <time>2012-07-12T19:11:27.000Z</time>
      </trkpt>
      <trkpt lat="43.7475" lon="7.14244">
        <ele>437.60000610352</ele>
        <time>2012-07-12T19:11:29.000Z</time>
      </trkpt>
      <trkpt lat="43.74751" lon="7.14236">
        <ele>436.39999389648</ele>
        <time>2012-07-12T19:11:31.000Z</time>
      </trkpt>
      <trkpt lat="43.7475" lon="7.14233">
        <ele>437</ele>
        <time>2012-07-12T19:11:32.000Z</time>
      </trkpt>
      <trkpt lat="43.74746" lon="7.14242">
        <ele>437.60000610352</ele>
        <time>2012-07-12T19:11:35.000Z</time>
      </trkpt>
      <trkpt lat="43.74741" lon="7.14258">
        <ele>438.20001220703</ele>
        <time>2012-07-12T19:11:37.000Z</time>
      </trkpt>
      <trkpt lat="43.7474" lon="7.14267">
        <ele>437.60000610352</ele>
        <time>2012-07-12T19:11:38.000Z</time>
      </trkpt>
      <trkpt lat="43.7475" lon="7.14292">
        <ele>436.20001220703</ele>
        <time>2012-07-12T19:11:41.000Z</time>
      </trkpt>
      <trkpt lat="43.74756" lon="7.14301">
        <ele>437</ele>
        <time>2012-07-12T19:11:43.000Z</time>
      </trkpt>
      <trkpt lat="43.74763" lon="7.14302">
        <ele>437.79998779297</ele>
        <time>2012-07-12T19:11:45.000Z</time>
      </trkpt>
      <trkpt lat="43.74778" lon="7.14319">
        <ele>435.20001220703</ele>
        <time>2012-07-12T19:11:50.000Z</time>
      </trkpt>
      <trkpt lat="43.74791" lon="7.14337">
        <ele>436.60000610352</ele>
        <time>2012-07-12T19:11:54.000Z</time>
      </trkpt>
      <trkpt lat="43.74797" lon="7.14341">
        <ele>440.39999389648</ele>
        <time>2012-07-12T19:11:56.000Z</time>
      </trkpt>
      <trkpt lat="43.74801" lon="7.14344">
        <ele>441.20001220703</ele>
        <time>2012-07-12T19:11:58.000Z</time>
      </trkpt>
      <trkpt lat="43.74821" lon="7.14353">
        <ele>447</ele>
        <time>2012-07-12T19:12:02.000Z</time>
      </trkpt>
      <trkpt lat="43.7484" lon="7.14358">
        <ele>447.39999389648</ele>
        <time>2012-07-12T19:12:05.000Z</time>
      </trkpt>
      <trkpt lat="43.74845" lon="7.14359">
        <ele>447</ele>
        <time>2012-07-12T19:12:06.000Z</time>
      </trkpt>
      <trkpt lat="43.74853" lon="7.14362">
        <ele>444</ele>
        <time>2012-07-12T19:12:08.000Z</time>
      </trkpt>
      <trkpt lat="43.74865" lon="7.14365">
        <ele>441.60000610352</ele>
        <time>2012-07-12T19:12:11.000Z</time>
      </trkpt>
      <trkpt lat="43.74875" lon="7.14365">
        <ele>440.20001220703</ele>
        <time>2012-07-12T19:12:15.000Z</time>
      </trkpt>
      <trkpt lat="43.74876" lon="7.14365">
        <ele>441.20001220703</ele>
        <time>2012-07-12T19:12:16.000Z</time>
      </trkpt>
      <trkpt lat="43.7488" lon="7.14366">
        <ele>441.39999389648</ele>
        <time>2012-07-12T19:12:19.000Z</time>
      </trkpt>
      <trkpt lat="43.74882" lon="7.14364">
        <ele>436.79998779297</ele>
        <time>2012-07-12T19:12:22.000Z</time>
      </trkpt>
      <trkpt lat="43.74881" lon="7.14365">
        <ele>437</ele>
        <time>2012-07-12T19:12:23.000Z</time>
      </trkpt>
      <trkpt lat="43.74874" lon="7.14363">
        <ele>438</ele>
        <time>2012-07-12T19:12:26.000Z</time>
      </trkpt>
      <trkpt lat="43.74871" lon="7.14361">
        <ele>438.20001220703</ele>
        <time>2012-07-12T19:12:27.000Z</time>
      </trkpt>
      <trkpt lat="43.74865" lon="7.14363">
        <ele>440.20001220703</ele>
        <time>2012-07-12T19:12:31.000Z</time>
      </trkpt>
      <trkpt lat="43.74861" lon="7.14366">
        <ele>442.60000610352</ele>
        <time>2012-07-12T19:12:34.000Z</time>
      </trkpt>
      <trkpt lat="43.74862" lon="7.14368">
        <ele>443</ele>
        <time>2012-07-12T19:12:35.000Z</time>
      </trkpt>
      <trkpt lat="43.74863" lon="7.14366">
        <ele>443.39999389648</ele>
        <time>2012-07-12T19:12:39.000Z</time>
      </trkpt>
      <trkpt lat="43.74864" lon="7.14368">
        <ele>450</ele>
        <time>2012-07-12T19:13:07.000Z</time>
      </trkpt>
    </trkseg>
  </trk>
</gpx>